[[{"header":{"parameterUnit":"m.s-1","parameterCategory":1,"la1":31.0,"la2":29.5877,"lo1":-88.7671,"lo2":-86.6584,"dy":0.0162,"dx":0.0185,"nx":115,"ny":88,"refTime":"2023-07-17T12:00:00:Z","depth":0,"parameterNumber":2,"parameterNumberName":"U-component_of_WINDS"},"data":[0.0,0.0,0.0,0.0,0.0,0.0,0.0,0.0,0.0,0.0,0.0,0.0,0.0,0.0,0.0,0.0,0.0,0.0,0.0,0.0,0.0,0.0,0.0,0.0,0.0,0.0,0.0,0.0,0.0,0.0,0.0,0.0,0.0,0.0,0.0,0.0,0.0,0.0,0.0,0.0,0.0,0.0,0.0,0.0,0.0,0.0,0.0,0.0,0.0,0.0,0.0,0.0,0.0,0.0,0.0,0.0,0.0,0.0,0.0,0.0,0.0,0.0,0.0,0.0,0.0,0.0,0.0,0.0,0.0,0.0,0.0,0.0,0.0,0.0,0.0,0.0,0.0,0.0,0.0,0.0,0.0,0.0,0.0,0.0,0.0,0.0,0.0,0.0,0.0,0.0,0.0,0.0,0.0,0.0,0.0,0.0,0.0,0.0,0.0,0.0,0.0,0.0,0.0,0.0,0.0,0.0,0.0,0.0,0.0,0.0,0.0,0.0,0.0,0.0,0.0,0.0,0.0,0.0,0.0,0.0,0.0,0.0,0.0,0.0,0.0,0.0,0.0,0.0,0.0,0.0,0.0,0.0,0.0,0.0,0.0,0.0,0.0,0.0,0.0,0.0,0.0,0.0,0.0,0.0,0.0,0.0,0.0,0.0,0.0,0.0,0.0,0.0,0.0,0.0,0.0,0.0,0.0,0.0,0.0,0.0,0.0,0.0,0.0,0.0,0.0,0.0,0.0,0.0,0.0,0.0,0.0,0.0,0.0,0.0,0.0,0.0,0.0,0.0,0.0,0.0,0.0,0.0,0.0,0.0,0.0,0.0,0.0,0.0,0.0,0.0,0.0,0.0,0.0,0.0,0.0,0.0,0.0,0.0,0.0,0.0,0.0,0.0,0.0,0.0,0.0,0.0,0.0,0.0,0.0,0.0,0.0,0.0,0.0,0.0,0.0,0.0,0.0,0.0,0.0,0.0,0.0,0.0,0.0,0.0,0.0,0.0,0.0,0.0,0.0,0.0,0.0,0.0,0.0,0.0,0.0,0.0,0.0,0.0,0.0,0.0,0.0,0.0,0.0,0.0,0.0,0.0,0.0,0.0,0.0,0.0,0.0,0.0,0.0,0.0,0.0,0.0,0.0,0.0,0.0,0.0,0.0,0.0,0.0,0.0,0.0,0.0,0.0,0.0,0.0,0.0,0.0,0.0,0.0,0.0,0.0,0.0,0.0,0.0,0.0,0.0,0.0,0.0,0.0,0.0,0.0,0.0,0.0,0.0,0.0,0.0,0.0,0.0,0.0,0.0,0.0,0.0,0.0,0.0,0.0,0.0,0.0,0.0,0.0,0.0,0.0,0.0,0.0,0.0,0.0,0.0,0.0,0.0,0.0,0.0,0.0,0.0,0.0,0.0,0.0,0.0,0.0,0.0,0.0,0.0,0.0,0.0,0.0,0.0,0.0,0.0,0.0,0.0,0.0,0.0,0.0,0.0,0.0,0.0,0.0,0.0,0.0,0.0,0.0,0.0,0.0,0.0,0.0,0.0,0.0,0.0,0.0,0.0,0.0,0.0,0.0,0.0,0.0,0.0,0.0,0.0,0.0,0.0,0.0,0.0,0.0,0.0,0.0,0.0,0.0,0.0,0.0,0.0,0.0,0.0,0.0,0.0,0.0,0.0,0.0,0.0,0.0,0.0,0.0,0.0,0.0,0.0,0.0,0.0,0.0,0.0,0.0,0.0,0.0,0.0,0.0,0.0,0.0,0.0,0.0,0.0,0.0,0.0,0.0,0.0,0.0,0.0,0.0,0.0,0.0,0.0,0.0,0.0,0.0,0.0,0.0,0.0,0.0,0.0,0.0,0.0,0.0,0.0,0.0,0.0,0.0,0.0,0.0,0.0,0.0,0.0,0.0,0.0,0.0,0.0,0.0,0.0,0.0,0.0,0.0,0.0,0.0,0.0,0.0,0.0,0.0,0.0,0.0,0.0,0.0,0.0,0.0,0.0,0.0,0.0,0.0,0.0,0.0,0.0,0.0,0.0,0.0,0.0,0.0,0.0,0.0,0.0,0.0,0.0,0.0,0.0,0.0,0.0,0.0,0.0,0.0,0.0,0.0,0.0,0.0,0.0,0.0,0.0,0.0,0.0,0.0,0.0,0.0,0.0,0.0,0.0,0.0,0.0,0.0,0.0,0.0,0.0,0.0,0.0,0.0,0.0,0.0,0.0,0.0,0.0,0.0,0.0,0.0,0.0,0.0,0.0,0.0,0.0,0.0,0.0,0.0,0.0,0.0,0.0,0.0,0.0,0.0,0.0,0.0,0.0,0.0,0.0,0.0,0.0,0.0,0.0,0.0,0.0,0.0,0.0,0.0,0.0,0.0,0.0,0.0,0.0,0.0,0.0,0.0,0.0,0.0,0.0,0.0,0.0,0.0,0.0,0.0,0.0,0.0,0.0,0.0,0.0,0.0,0.0,0.0,0.0,0.0,0.0,0.0,0.0,0.0,0.0,0.0,0.0,0.0,0.0,0.0,0.0,0.0,0.0,0.0,0.0,0.0,0.0,0.0,0.0,0.0,0.0,0.0,0.0,0.0,0.0,0.0,0.0,0.0,0.0,0.0,0.0,0.0,0.0,0.0,0.0,0.0,0.0,0.0,0.0,0.0,0.0,0.0,0.0,0.0,0.0,0.0,0.0,0.0,0.0,0.0,0.0,0.0,0.0,0.0,0.0,0.0,0.0,0.0,0.0,0.0,0.0,0.0,0.0,0.0,0.0,0.0,0.0,0.0,0.0,0.0,0.0,0.0,0.0,0.0,0.0,0.0,0.0,0.0,0.0,0.0,0.0,0.0,0.0,0.0,0.0,0.0,0.0,0.0,0.0,0.0,0.0,0.0,0.0,0.0,0.0,0.0,0.0,0.0,0.0,0.0,0.0,0.0,0.0,0.0,0.0,0.0,0.0,0.0,0.0,0.0,0.0,0.0,0.0,0.0,0.0,0.0,0.0,0.0,0.0,0.0,0.0,0.0,0.0,0.0,0.0,0.0,0.0,0.0,0.0,0.0,0.0,0.0,0.0,0.0,0.0,0.0,0.0,0.0,0.0,0.0,0.0,0.0,0.0,0.0,0.0,0.0,0.0,0.0,0.0,0.0,0.0,0.0,0.0,0.0,0.0,0.0,0.0,0.0,0.0,0.0,0.0,0.0,0.0,0.0,0.0,0.0,0.0,0.0,0.0,0.0,0.0,0.0,0.0,0.0,0.0,0.0,0.0,0.0,0.0,0.0,0.0,0.0,0.0,0.0,0.0,0.0,0.0,0.0,0.0,0.0,0.0,0.0,0.0,0.0,0.0,0.0,0.0,0.0,0.0,0.0,0.0,0.0,0.0,0.0,0.0,0.0,0.0,0.0,0.0,0.0,0.0,0.0,0.0,0.0,0.0,0.0,0.0,0.0,0.0,0.0,0.0,0.0,0.0,0.0,0.0,0.0,0.0,0.0,0.0,0.0,0.0,0.0,0.0,0.0,0.0,0.0,0.0,0.0,0.0,0.0,0.0,0.0,0.0,0.0,0.0,0.0,0.0,0.0,0.0,0.0,0.0,0.0,0.0,0.0,0.0,0.0,0.0,0.0,0.0,0.0,0.0,0.0,0.0,0.0,0.0,0.0,0.0,0.0,0.0,0.0,0.0,0.0,0.0,0.0,0.0,0.0,0.0,0.0,0.0,0.0,0.0,0.0,0.0,0.0,0.0,0.0,0.0,0.0,0.0,0.0,0.0,0.0,0.0,0.0,0.0,0.0,0.0,0.0,0.0,0.0,0.0,0.0,0.0,0.0,0.0,0.0,0.0,0.0,0.0,0.0,0.0,0.0,0.0,0.0,0.0,0.0,0.0,0.0,0.0,0.0,0.0,0.0,0.0,0.0,0.0,0.0,0.0,0.0,0.0,0.0,0.0,0.0,0.0,0.0,0.0,0.0,0.0,0.0,0.0,0.0,0.0,0.0,0.0,0.0,0.0,0.0,0.0,0.0,0.0,0.0,0.0,0.0,0.0,0.0,0.0,0.0,0.0,0.0,0.0,0.0,0.0,0.0,0.0,0.0,0.0,0.0,0.0,0.0,0.0,0.0,0.0,0.0,0.0,0.0,0.0,0.0,0.0,0.0,0.0,0.0,0.0,0.0,0.0,0.0,0.0,0.0,0.0,0.0,0.0,0.0,0.0,0.0,0.0,0.0,0.0,0.0,0.0,0.0,0.0,0.0,0.0,0.0,0.0,0.0,0.0,-0.241,0.0,0.0,0.0,0.0,0.0,0.0,0.0,0.0,0.0,0.0,0.0,0.0,0.0,0.0,0.0,0.0,0.0,0.0,0.0,0.0,0.0,0.0,0.0,0.0,0.0,0.0,0.0,0.0,0.0,0.0,0.0,0.0,0.0,0.0,0.0,0.0,0.0,0.0,0.0,0.0,0.0,0.0,0.0,0.0,0.0,0.0,0.0,0.0,0.0,0.0,0.0,0.0,0.0,0.0,0.0,0.0,0.0,0.0,0.0,0.0,0.0,0.0,0.0,0.0,0.0,0.0,0.0,0.0,0.0,0.0,0.0,0.0,0.0,0.0,0.0,0.0,0.0,0.0,0.0,0.0,0.0,0.0,0.0,0.0,0.0,0.0,0.0,0.0,0.0,0.0,0.0,0.0,0.0,0.0,0.0,0.0,0.0,0.0,0.0,0.0,0.0,0.0,0.0,0.0,0.0,0.0,0.0,0.0,0.0,0.0,-0.3136,-0.3215,-0.3448,-0.3507,-0.3546,0.0,0.0,0.0,0.0,0.0,0.0,0.0,0.0,0.0,0.0,0.0,0.0,0.0,0.0,0.0,0.0,0.0,0.0,0.0,0.0,0.0,0.0,0.0,0.0,0.0,0.0,0.0,0.0,0.0,0.0,0.0,0.0,0.0,0.0,0.0,0.0,0.0,0.0,0.0,0.0,0.0,0.0,0.0,0.0,0.0,0.0,0.0,0.0,0.0,0.0,0.0,0.0,0.0,0.0,0.0,0.0,0.0,0.0,0.0,0.0,0.0,0.0,0.0,0.0,0.0,0.0,0.0,0.0,0.0,0.0,0.0,0.0,0.0,0.0,0.0,0.0,0.0,0.0,0.0,0.0,0.0,0.0,0.0,0.0,0.0,0.0,0.0,0.0,0.0,0.0,0.0,0.0,0.0,0.0,0.0,0.0,0.0,0.0,0.0,0.0,0.0,0.0,0.0,0.0,0.0,0.0,0.0,0.0,0.0,0.0,0.0,0.0,-0.454,-0.4693,-0.4693,0.0,0.0,0.0,0.0,0.0,0.0,0.0,0.0,0.0,0.0,0.0,0.0,0.0,0.0,0.0,0.0,0.0,0.0,0.0,0.0,0.0,0.0,0.0,0.0,0.0,0.0,0.0,0.0,0.0,0.0,0.0,0.0,0.0,0.0,0.0,0.0,0.0,0.0,0.0,0.0,0.0,0.0,0.0,0.0,0.0,0.0,0.0,0.0,0.0,0.0,0.0,0.0,0.0,0.0,0.0,0.0,0.0,0.0,0.0,0.0,0.0,0.0,0.0,0.0,0.0,0.0,0.0,0.0,0.0,0.0,0.0,0.0,0.0,0.0,0.0,0.0,0.0,0.0,0.0,0.0,0.0,0.0,0.0,0.0,0.0,0.0,0.0,0.0,0.0,0.0,0.0,0.0,0.0,0.0,0.0,0.0,0.0,0.0,0.0,0.0,0.0,0.0,0.0,0.0,0.0,0.0,0.0,0.0,0.0,0.0,-0.5082,-0.5389,-0.5467,0.0,-0.5467,0.0,0.0,0.0,0.0,0.0,0.0,0.0,0.0,0.0,0.0,0.0,0.0,0.0,0.0,0.0,0.0,0.0,0.0,0.0,0.0,0.0,0.0,0.0,0.0,0.0,0.0,0.0,0.0,0.0,0.0,0.0,0.0,0.0,0.0,0.0,0.0,0.0,0.0,0.0,0.0,0.0,0.0,0.0,0.0,0.0,0.0,0.0,0.0,0.0,0.0,0.0,0.0,0.0,0.0,0.0,0.0,0.0,0.0,0.0,0.0,0.0,0.0,0.0,0.0,0.0,0.0,0.0,0.0,0.0,0.0,0.0,0.0,0.0,0.0,0.0,0.0,0.0,0.0,0.0,0.0,0.0,0.0,0.0,0.0,0.0,0.0,0.0,0.0,0.0,0.0,0.0,0.0,0.0,0.0,0.0,0.0,0.0,0.0,0.0,0.0,0.0,0.0,0.0,0.0,0.0,0.0,0.0,0.0,0.0,0.0,-0.6244,-0.6398,-0.663,-0.6784,0.0,0.0,0.0,0.0,0.0,0.0,0.0,0.0,0.0,0.0,0.0,0.0,0.0,0.0,0.0,0.0,0.0,0.0,0.0,0.0,0.0,0.0,0.0,0.0,0.0,0.0,0.0,0.0,0.0,0.0,0.0,0.0,0.0,0.0,0.0,0.0,0.0,0.0,0.0,0.0,0.0,0.0,0.0,0.0,0.0,0.0,0.0,0.0,0.0,0.0,0.0,0.0,0.0,0.0,0.0,0.0,0.0,0.0,0.0,0.0,0.0,0.0,0.0,0.0,0.0,0.0,0.0,0.0,0.0,0.0,0.0,0.0,0.0,0.0,0.0,0.0,0.0,0.0,0.0,0.0,0.0,0.0,0.0,0.0,0.0,0.0,0.0,0.0,0.0,0.0,0.0,0.0,0.0,0.0,0.0,0.0,0.0,0.0,0.0,0.0,0.0,0.0,0.0,0.0,0.0,0.0,0.0,0.0,0.0,0.0,-0.6942,-0.7322,-0.7472,-0.771,-0.7863,-0.8008,0.0,0.0,0.0,0.0,0.0,0.0,0.0,0.0,0.0,0.0,0.0,0.0,0.0,0.0,0.0,0.0,0.0,0.0,0.0,0.0,0.0,0.0,0.0,0.0,0.0,0.0,0.0,0.0,0.0,0.0,0.0,0.0,0.0,0.0,0.0,0.0,0.0,0.0,0.0,0.0,0.0,0.0,0.0,0.0,0.0,0.0,0.0,0.0,0.0,0.0,0.0,0.0,0.0,0.0,0.0,0.0,0.0,0.0,0.0,0.0,0.0,0.0,0.0,0.0,0.0,0.0,0.0,0.0,0.0,0.0,0.0,0.0,0.0,0.0,0.0,0.0,0.0,0.0,0.0,0.0,0.0,0.0,0.0,0.0,0.0,0.0,0.0,0.0,0.0,0.0,0.0,0.0,0.0,0.0,0.0,0.0,0.0,0.0,0.0,0.0,0.0,0.0,0.0,0.0,0.0,0.0,0.0,0.0,-0.7403,-0.7791,-0.8327,-0.8851,-0.8775,-0.8623,0.0,0.0,0.0,0.0,0.0,0.0,0.0,0.0,0.0,0.0,0.0,0.0,0.0,0.0,0.0,0.0,0.0,0.0,0.0,0.0,0.0,0.0,0.0,0.0,0.0,0.0,0.0,0.0,0.0,0.0,0.0,0.0,0.0,0.0,0.0,0.0,0.0,0.0,0.0,0.0,0.0,0.0,0.0,0.0,0.0,0.0,0.0,0.0,0.0,0.0,0.0,0.0,0.0,0.0,0.0,0.0,0.0,0.0,0.0,0.0,0.0,0.0,0.0,0.0,0.0,0.0,0.0,0.0,0.0,0.0,0.0,0.0,0.0,0.0,0.0,0.0,0.0,0.0,0.0,0.0,0.0,0.0,0.0,0.0,0.0,0.0,0.0,0.0,0.0,0.0,0.0,0.0,0.0,0.0,0.0,0.0,0.0,0.0,0.0,0.0,0.0,0.0,0.0,0.0,0.0,0.0,0.0,0.0,0.0,-0.8097,-0.8637,-0.9241,-0.9911,-0.9609,-0.9539,0.0,0.0,0.0,0.0,0.0,0.0,0.0,0.0,0.0,0.0,0.0,0.0,0.0,0.0,0.0,0.0,0.0,0.0,0.0,0.0,0.0,0.0,0.0,0.0,0.0,0.0,0.0,0.0,0.0,0.0,0.0,0.0,0.0,0.0,0.0,0.0,0.0,0.0,0.0,0.0,0.0,0.0,0.0,0.0,0.0,0.0,0.0,0.0,0.0,0.0,0.0,0.0,0.0,0.0,0.0,0.0,0.0,0.0,0.0,0.0,0.0,0.0,0.0,0.0,0.0,0.0,0.0,0.0,0.0,0.0,0.0,0.0,0.0,0.0,0.0,0.0,0.0,0.0,0.0,0.0,0.0,0.0,0.0,0.0,0.0,0.0,0.0,0.0,0.0,0.0,0.0,0.0,0.0,0.0,0.0,0.0,0.0,0.0,0.0,0.0,0.0,0.0,0.0,0.0,0.0,0.0,0.0,0.0,0.0,-0.9084,0.0,-1.0067,-1.0738,-1.0443,-1.0368,0.0,0.0,0.0,0.0,0.0,0.0,0.0,0.0,0.0,0.0,0.0,0.0,0.0,0.0,0.0,0.0,0.0,0.0,0.0,0.0,0.0,0.0,0.0,0.0,0.0,0.0,0.0,0.0,0.0,0.0,0.0,0.0,0.0,0.0,0.0,0.0,0.0,0.0,0.0,0.0,0.0,0.0,0.0,0.0,0.0,0.0,0.0,0.0,0.0,0.0,0.0,0.0,0.0,0.0,0.0,0.0,0.0,0.0,0.0,0.0,0.0,0.0,0.0,0.0,0.0,0.0,0.0,0.0,0.0,0.0,0.0,0.0,0.0,0.0,0.0,0.0,0.0,0.0,0.0,0.0,0.0,0.0,0.0,0.0,0.0,0.0,0.0,0.0,0.0,0.0,0.0,0.0,0.0,0.0,0.0,0.0,0.0,0.0,0.0,0.0,0.0,0.0,0.0,0.0,0.0,0.0,0.0,0.0,-0.9706,-1.0449,-1.0674,-1.0986,-1.1422,-1.1273,-1.1043,0.0,0.0,0.0,0.0,0.0,0.0,0.0,0.0,0.0,0.0,0.0,0.0,0.0,0.0,0.0,0.0,0.0,0.0,0.0,0.0,0.0,0.0,0.0,0.0,0.0,0.0,0.0,0.0,0.0,0.0,0.0,0.0,0.0,0.0,0.0,0.0,0.0,0.0,0.0,0.0,0.0,0.0,0.0,0.0,0.0,0.0,0.0,0.0,0.0,0.0,0.0,0.0,0.0,0.0,0.0,0.0,0.0,0.0,0.0,0.0,0.0,0.0,0.0,0.0,0.0,0.0,0.0,0.0,0.0,0.0,0.0,0.0,0.0,0.0,0.0,0.0,0.0,0.0,0.0,0.0,0.0,0.0,0.0,0.0,0.0,0.0,0.0,0.0,0.0,0.0,0.0,0.0,0.0,0.0,0.0,0.0,0.0,0.0,0.0,0.0,0.0,0.0,0.0,0.0,0.0,0.0,0.0,0.0,0.0,-1.1694,-1.1847,-1.2151,-1.253,-1.2378,-1.2054,0.0,0.0,0.0,0.0,0.0,0.0,0.0,0.0,0.0,0.0,0.0,0.0,0.0,0.0,0.0,0.0,0.0,0.0,0.0,0.0,0.0,0.0,0.0,0.0,0.0,0.0,0.0,0.0,0.0,0.0,0.0,0.0,0.0,0.0,0.0,0.0,0.0,0.0,0.0,0.0,0.0,0.0,0.0,0.0,0.0,0.0,0.0,0.0,0.0,0.0,0.0,0.0,0.0,0.0,0.0,0.0,0.0,0.0,0.0,0.0,0.0,0.0,0.0,0.0,0.0,0.0,0.0,0.0,0.0,0.0,0.0,0.0,0.0,0.0,0.0,0.0,0.0,0.0,0.0,0.0,0.0,0.0,0.0,0.0,0.0,0.0,0.0,0.0,0.0,0.0,0.0,0.0,0.0,0.0,0.0,0.0,0.0,0.0,0.0,0.0,0.0,0.0,0.0,0.0,0.0,0.0,0.0,0.0,0.0,-1.3838,-1.374,-1.3839,-1.4072,-1.3839,-1.3411,-1.2567,0.0,0.0,0.0,0.0,0.0,0.0,0.0,0.0,0.0,0.0,0.0,0.0,0.0,0.0,0.0,0.0,0.0,0.0,0.0,0.0,0.0,0.0,0.0,0.0,0.0,0.0,0.0,0.0,0.0,0.0,0.0,0.0,0.0,0.0,0.0,0.0,0.0,0.0,0.0,0.0,0.0,0.0,0.0,0.0,0.0,0.0,0.0,0.0,0.0,0.0,0.0,0.0,0.0,0.0,0.0,0.0,0.0,0.0,0.0,0.0,0.0,0.0,0.0,0.0,0.0,0.0,0.0,0.0,0.0,0.0,0.0,0.0,0.0,0.0,0.0,0.0,0.0,0.0,0.0,0.0,0.0,0.0,0.0,0.0,0.0,0.0,0.0,0.0,0.0,0.0,0.0,0.0,0.0,0.0,0.0,0.0,0.0,0.0,0.0,0.0,0.0,0.0,0.0,0.0,0.0,0.0,0.0,0.0,-1.673,-1.6291,-1.6046,-1.5919,-1.5583,-1.4885,0.0,0.0,0.0,0.0,0.0,0.0,0.0,0.0,0.0,0.0,0.0,0.0,0.0,0.0,0.0,0.0,0.0,0.0,0.0,0.0,0.0,0.0,0.0,0.0,0.0,0.0,0.0,0.0,0.0,0.0,0.0,0.0,0.0,0.0,0.0,0.0,0.0,0.0,0.0,0.0,0.0,0.0,0.0,0.0,0.0,0.0,0.0,0.0,0.0,0.0,0.0,0.0,0.0,0.0,0.0,0.0,0.0,0.0,0.0,0.0,0.0,0.0,0.0,0.0,0.0,0.0,0.0,0.0,0.0,0.0,0.0,0.0,0.0,0.0,0.0,0.0,0.0,0.0,0.0,0.0,0.0,0.0,0.0,0.0,0.0,0.0,0.0,0.0,0.0,0.0,0.0,0.0,0.0,0.0,0.0,0.0,0.0,0.0,0.0,0.0,0.0,0.0,0.0,0.0,0.0,0.0,0.0,0.0,0.0,-1.8425,-1.8972,-1.8693,-1.7557,-1.6788,-1.6051,0.0,0.0,0.0,0.0,0.0,0.0,0.0,0.0,0.0,0.0,0.0,0.0,0.0,0.0,0.0,0.0,0.0,0.0,0.0,0.0,0.0,0.0,0.0,0.0,0.0,0.0,0.0,0.0,0.0,0.0,0.0,0.0,0.0,0.0,0.0,0.0,0.0,0.0,0.0,0.0,0.0,0.0,0.0,0.0,0.0,0.0,0.0,0.0,0.0,0.0,0.0,0.0,0.0,0.0,0.0,0.0,0.0,0.0,0.0,0.0,0.0,0.0,0.0,0.0,0.0,0.0,0.0,0.0,0.0,0.0,0.0,0.0,0.0,0.0,0.0,0.0,0.0,0.0,0.0,0.0,0.0,0.0,0.0,0.0,0.0,0.0,0.0,0.0,0.0,0.0,0.0,0.0,0.0,0.0,0.0,0.0,0.0,0.0,0.0,0.0,0.0,0.0,0.0,0.0,0.0,0.0,0.0,0.0,-1.8617,-1.998,-2.12,-2.1309,-2.0063,-1.8591,-1.7334,0.0,0.0,0.0,0.0,0.0,0.0,0.0,0.0,0.0,0.0,0.0,0.0,0.0,0.0,0.0,0.0,0.0,0.0,0.0,0.0,0.0,0.0,0.0,0.0,0.0,0.0,0.0,0.0,0.0,0.0,0.0,0.0,0.0,0.0,0.0,0.0,0.0,0.0,0.0,0.0,0.0,0.0,0.0,0.0,0.0,0.0,0.0,0.0,0.0,0.0,0.0,0.0,0.0,0.0,0.0,0.0,0.0,0.0,0.0,0.0,0.0,0.0,0.0,0.0,0.0,0.0,0.0,0.0,0.0,0.0,0.0,0.0,0.0,0.0,0.0,0.0,0.0,0.0,0.0,0.0,0.0,0.0,0.0,0.0,0.0,0.0,0.0,0.0,0.0,0.0,0.0,0.0,0.0,0.0,0.0,0.0,0.0,0.0,0.0,0.0,0.0,0.0,0.0,0.0,0.0,0.0,0.0,0.0,-2.0419,-2.1368,-2.2932,-2.3541,-2.2862,-2.0571,-1.8743,0.0,0.0,0.0,0.0,0.0,0.0,0.0,0.0,0.0,0.0,0.0,0.0,0.0,0.0,0.0,0.0,0.0,0.0,0.0,0.0,0.0,0.0,0.0,0.0,0.0,0.0,0.0,0.0,0.0,0.0,0.0,0.0,0.0,0.0,0.0,0.0,0.0,0.0,0.0,0.0,0.0,0.0,0.0,0.0,0.0,0.0,0.0,0.0,0.0,0.0,0.0,0.0,0.0,0.0,0.0,0.0,0.0,0.0,0.0,0.0,0.0,0.0,0.0,0.0,0.0,0.0,0.0,0.0,0.0,0.0,0.0,0.0,0.0,0.0,0.0,0.0,0.0,0.0,0.0,0.0,0.0,0.0,0.0,0.0,0.0,0.0,0.0,0.0,0.0,0.0,0.0,0.0,0.0,0.0,0.0,0.0,0.0,0.0,0.0,0.0,0.0,0.0,0.0,0.0,0.0,0.0,0.0,0.0,-2.1236,-2.2735,-2.3433,-2.3714,-2.3637,-2.1589,-1.9982,0.0,0.0,0.0,0.0,0.0,0.0,0.0,0.0,0.0,0.0,0.0,0.0,0.0,0.0,0.0,0.0,0.0,0.0,0.0,0.0,0.0,0.0,0.0,0.0,0.0,0.0,0.0,0.0,0.0,0.0,0.0,0.0,0.0,0.0,0.0,0.0,0.0,0.0,0.0,0.0,0.0,0.0,0.0,0.0,0.0,0.0,0.0,0.0,-1.2624,0.0,0.0,0.0,0.0,0.0,0.0,0.0,0.0,0.0,0.0,0.0,0.0,0.0,0.0,0.0,0.0,0.0,0.0,0.0,0.0,0.0,0.0,0.0,0.0,0.0,0.0,0.0,0.0,0.0,0.0,0.0,0.0,0.0,0.0,0.0,0.0,0.0,0.0,0.0,0.0,0.0,0.0,0.0,0.0,0.0,0.0,0.0,0.0,0.0,0.0,0.0,0.0,0.0,0.0,0.0,0.0,0.0,0.0,0.0,-2.2391,-2.3826,-2.4659,-2.5003,-2.4625,-2.3649,-2.2177,0.0,0.0,0.0,0.0,0.0,0.0,0.0,0.0,0.0,0.0,0.0,0.0,0.0,0.0,0.0,0.0,0.0,0.0,0.0,0.0,0.0,0.0,0.0,0.0,0.0,0.0,0.0,0.0,0.0,0.0,0.0,0.0,0.0,0.0,0.0,0.0,0.0,0.0,0.0,0.0,0.0,0.0,0.0,0.0,0.0,0.0,0.0,0.0,0.0,0.0,0.0,0.0,0.0,0.0,0.0,0.0,0.0,0.0,0.0,0.0,0.0,0.0,0.0,0.0,0.0,0.0,0.0,0.0,0.0,0.0,0.0,0.0,0.0,0.0,0.0,0.0,0.0,0.0,0.0,0.0,0.0,0.0,0.0,0.0,0.0,0.0,0.0,0.0,0.0,0.0,0.0,0.0,0.0,0.0,0.0,0.0,0.0,0.0,0.0,0.0,0.0,0.0,0.0,0.0,0.0,0.0,0.0,-2.2727,-2.3865,-2.5005,-2.614,-2.6455,-2.5834,-2.5672,-2.4344,-2.1558,0.0,0.0,0.0,0.0,0.0,0.0,0.0,0.0,0.0,0.0,0.0,0.0,0.0,0.0,0.0,0.0,0.0,0.0,0.0,0.0,0.0,0.0,0.0,0.0,0.0,0.0,0.0,0.0,0.0,0.0,0.0,0.0,0.0,0.0,0.0,0.0,0.0,0.0,-1.0465,-1.1055,0.0,0.0,0.0,0.0,0.0,0.0,0.0,0.0,-1.4967,0.0,0.0,0.0,0.0,0.0,0.0,0.0,0.0,0.0,0.0,0.0,0.0,0.0,0.0,0.0,0.0,0.0,0.0,0.0,0.0,0.0,0.0,0.0,0.0,0.0,0.0,0.0,0.0,0.0,0.0,0.0,0.0,0.0,0.0,0.0,0.0,0.0,0.0,0.0,0.0,0.0,0.0,0.0,0.0,0.0,0.0,0.0,0.0,0.0,0.0,0.0,0.0,0.0,0.0,0.0,0.0,-2.3433,-2.4409,-2.5573,-2.6846,-2.702,-2.7107,-2.7008,-2.5918,-2.4815,-2.3705,0.0,0.0,0.0,0.0,0.0,0.0,0.0,0.0,0.0,0.0,0.0,0.0,0.0,0.0,0.0,0.0,0.0,0.0,0.0,0.0,0.0,0.0,0.0,0.0,0.0,0.0,0.0,0.0,0.0,0.0,0.0,0.0,0.0,0.0,0.0,0.0,0.0,0.0,0.0,-1.3081,-1.33,0.0,0.0,0.0,0.0,0.0,0.0,0.0,0.0,-1.667,0.0,0.0,0.0,0.0,0.0,0.0,0.0,0.0,0.0,0.0,0.0,0.0,0.0,0.0,0.0,0.0,0.0,0.0,0.0,0.0,0.0,0.0,0.0,0.0,0.0,0.0,0.0,0.0,0.0,0.0,0.0,0.0,0.0,0.0,0.0,0.0,0.0,0.0,0.0,0.0,0.0,0.0,0.0,0.0,0.0,0.0,0.0,0.0,0.0,0.0,0.0,0.0,0.0,0.0,0.0,-2.4409,-2.5328,-2.6336,-2.7293,-2.7555,-2.7687,-2.7687,-2.6922,-2.5931,0.0,0.0,0.0,0.0,0.0,0.0,0.0,0.0,0.0,0.0,0.0,0.0,0.0,0.0,0.0,0.0,0.0,0.0,0.0,0.0,0.0,0.0,0.0,0.0,0.0,0.0,0.0,0.0,0.0,0.0,0.0,0.0,0.0,0.0,0.0,0.0,0.0,0.0,0.0,0.0,-1.4545,-1.4907,-1.6195,0.0,0.0,0.0,0.0,0.0,0.0,-1.8496,-1.8364,0.0,0.0,0.0,0.0,0.0,0.0,0.0,0.0,0.0,0.0,0.0,0.0,0.0,0.0,0.0,0.0,0.0,0.0,0.0,0.0,0.0,0.0,0.0,0.0,0.0,0.0,0.0,0.0,0.0,0.0,0.0,0.0,0.0,0.0,0.0,0.0,0.0,0.0,0.0,0.0,0.0,0.0,0.0,0.0,0.0,0.0,0.0,0.0,0.0,0.0,0.0,0.0,0.0,0.0,0.0,-2.5147,-2.6152,-2.6943,-2.7588,-2.7992,-2.8189,-2.8178,-2.7731,-2.6817,0.0,0.0,0.0,0.0,0.0,0.0,0.0,0.0,0.0,0.0,0.0,0.0,0.0,0.0,0.0,0.0,0.0,0.0,0.0,0.0,0.0,0.0,0.0,0.0,0.0,0.0,0.0,0.0,0.0,0.0,0.0,0.0,0.0,0.0,0.0,0.0,0.0,0.0,0.0,0.0,0.0,-1.6274,-1.8333,-1.6872,0.0,0.0,0.0,0.0,-2.037,-2.0264,0.0,0.0,0.0,0.0,0.0,0.0,0.0,0.0,0.0,0.0,0.0,0.0,0.0,0.0,0.0,0.0,0.0,0.0,0.0,0.0,0.0,0.0,0.0,0.0,0.0,0.0,0.0,0.0,0.0,0.0,0.0,0.0,0.0,0.0,0.0,0.0,0.0,0.0,0.0,0.0,0.0,0.0,0.0,0.0,0.0,0.0,0.0,0.0,0.0,0.0,0.0,0.0,0.0,0.0,0.0,0.0,-2.6152,-2.7225,-2.8112,-2.856,-2.8648,-2.8669,-2.8659,-2.7511,-2.6578,0.0,0.0,0.0,0.0,0.0,0.0,0.0,0.0,0.0,0.0,0.0,0.0,0.0,0.0,0.0,0.0,0.0,0.0,0.0,0.0,0.0,0.0,0.0,0.0,0.0,0.0,0.0,0.0,0.0,0.0,0.0,0.0,0.0,0.0,0.0,0.0,0.0,0.0,0.0,0.0,0.0,-1.7069,-2.0136,-1.8588,-1.7787,0.0,0.0,-2.2973,-2.2097,-2.2563,0.0,0.0,0.0,0.0,0.0,0.0,0.0,0.0,0.0,0.0,0.0,0.0,0.0,0.0,0.0,0.0,0.0,0.0,0.0,0.0,0.0,0.0,0.0,0.0,0.0,0.0,0.0,0.0,0.0,0.0,0.0,0.0,0.0,0.0,0.0,0.0,0.0,0.0,0.0,0.0,0.0,0.0,0.0,0.0,0.0,0.0,0.0,0.0,0.0,0.0,0.0,0.0,0.0,0.0,0.0,-2.5456,-2.6637,-2.7858,-2.8538,-2.8746,-2.885,-2.885,-2.885,-2.7388,-2.6536,0.0,0.0,0.0,0.0,0.0,0.0,0.0,0.0,0.0,0.0,0.0,0.0,0.0,0.0,0.0,0.0,0.0,0.0,0.0,0.0,0.0,0.0,0.0,0.0,0.0,0.0,0.0,0.0,0.0,0.0,0.0,0.0,0.0,0.0,0.0,0.0,0.0,0.0,0.0,0.0,0.0,0.0,-2.1058,-2.0219,0.0,0.0,0.0,-2.3898,-2.313,0.0,0.0,0.0,0.0,0.0,0.0,0.0,0.0,0.0,0.0,0.0,0.0,0.0,0.0,0.0,0.0,0.0,0.0,0.0,0.0,0.0,0.0,0.0,0.0,0.0,0.0,0.0,0.0,0.0,0.0,0.0,0.0,0.0,0.0,0.0,0.0,0.0,0.0,0.0,0.0,0.0,0.0,0.0,0.0,0.0,0.0,0.0,0.0,0.0,0.0,0.0,0.0,0.0,0.0,0.0,0.0,0.0,-2.705,-2.8174,-2.885,-2.885,-2.885,-2.8757,-2.8653,-2.7506,0.0,0.0,0.0,0.0,0.0,0.0,0.0,0.0,0.0,0.0,0.0,0.0,0.0,0.0,0.0,0.0,0.0,0.0,0.0,0.0,0.0,0.0,0.0,0.0,0.0,0.0,0.0,-1.3678,0.0,0.0,0.0,0.0,0.0,0.0,0.0,0.0,0.0,0.0,0.0,0.0,0.0,0.0,-1.9649,-2.1656,-2.2258,-2.2652,0.0,0.0,-2.4581,-2.4339,-2.4544,-2.4584,0.0,0.0,0.0,0.0,0.0,0.0,0.0,0.0,0.0,0.0,0.0,0.0,0.0,0.0,0.0,0.0,0.0,0.0,0.0,0.0,0.0,0.0,0.0,0.0,0.0,0.0,0.0,0.0,0.0,0.0,0.0,0.0,0.0,0.0,0.0,0.0,0.0,0.0,0.0,0.0,0.0,0.0,0.0,0.0,0.0,0.0,0.0,0.0,0.0,0.0,0.0,0.0,0.0,0.0,0.0,-2.7326,-2.8265,-2.885,-2.885,-2.885,-2.8664,-2.8384,-2.7693,-2.6858,0.0,0.0,0.0,0.0,0.0,0.0,0.0,0.0,0.0,0.0,0.0,0.0,0.0,0.0,0.0,0.0,0.0,0.0,0.0,0.0,0.0,0.0,0.0,0.0,0.0,0.0,0.0,0.0,0.0,0.0,0.0,0.0,0.0,0.0,0.0,0.0,0.0,0.0,0.0,0.0,0.0,-2.1366,-2.2105,-2.486,-2.6211,0.0,-2.4746,-2.5312,-2.5708,-2.6523,-2.6761,-2.5842,0.0,0.0,0.0,0.0,0.0,0.0,0.0,0.0,0.0,0.0,0.0,0.0,0.0,0.0,0.0,0.0,0.0,0.0,0.0,0.0,0.0,0.0,0.0,0.0,0.0,0.0,0.0,0.0,0.0,0.0,0.0,0.0,0.0,0.0,0.0,0.0,0.0,0.0,0.0,0.0,0.0,0.0,0.0,0.0,0.0,0.0,0.0,0.0,0.0,0.0,0.0,0.0,0.0,-2.6585,-2.7315,-2.8265,-2.885,-2.8757,-2.8675,-2.8488,-2.8405,-2.7562,-2.6957,0.0,0.0,0.0,0.0,0.0,0.0,0.0,0.0,0.0,0.0,0.0,0.0,0.0,0.0,0.0,0.0,0.0,0.0,0.0,0.0,0.0,0.0,0.0,0.0,0.0,0.0,0.0,0.0,-1.7777,-1.8596,-1.9177,0.0,0.0,0.0,0.0,0.0,0.0,0.0,0.0,0.0,0.0,-2.252,-2.4032,-2.6034,0.0,0.0,-2.6088,-2.6533,-2.65,-2.7174,-2.7517,-2.7054,-2.6688,0.0,0.0,0.0,0.0,0.0,0.0,0.0,0.0,0.0,0.0,0.0,0.0,0.0,0.0,0.0,0.0,0.0,0.0,0.0,0.0,0.0,0.0,0.0,0.0,0.0,0.0,0.0,0.0,0.0,0.0,0.0,0.0,0.0,0.0,0.0,0.0,0.0,0.0,0.0,0.0,0.0,0.0,0.0,0.0,0.0,0.0,0.0,0.0,0.0,0.0,0.0,0.0,-2.6791,-2.7304,-2.8265,-2.8757,-2.8571,-2.8488,-2.8301,-2.8207,-2.7514,-2.7106,0.0,0.0,0.0,0.0,0.0,0.0,0.0,0.0,0.0,0.0,0.0,0.0,0.0,0.0,0.0,0.0,0.0,0.0,0.0,0.0,0.0,0.0,0.0,0.0,0.0,0.0,0.0,0.0,-1.9146,-1.9892,-2.0565,0.0,0.0,0.0,0.0,0.0,0.0,0.0,0.0,0.0,0.0,-2.4015,-2.56,-2.6638,-2.717,-2.6914,-2.7365,-2.7658,-2.7441,-2.7816,-2.8084,-2.8119,0.0,0.0,0.0,0.0,0.0,0.0,0.0,0.0,0.0,0.0,0.0,0.0,0.0,0.0,0.0,0.0,0.0,0.0,0.0,0.0,0.0,0.0,0.0,0.0,0.0,0.0,0.0,0.0,0.0,0.0,-2.3105,0.0,0.0,0.0,0.0,0.0,0.0,0.0,0.0,0.0,0.0,0.0,0.0,0.0,0.0,0.0,0.0,0.0,0.0,0.0,0.0,0.0,0.0,-2.7117,-2.7326,-2.8265,-2.856,-2.8092,-2.829,-2.8113,-2.7641,-2.762,-2.7306,-2.6682,0.0,0.0,0.0,0.0,0.0,0.0,0.0,0.0,0.0,0.0,0.0,0.0,0.0,0.0,0.0,0.0,0.0,0.0,0.0,0.0,0.0,0.0,0.0,0.0,0.0,0.0,-1.9553,-2.0412,-2.1222,0.0,0.0,0.0,0.0,0.0,0.0,0.0,0.0,0.0,0.0,-2.4687,-2.5953,-2.6502,-2.7029,-2.7592,-2.8425,-2.8522,-2.8533,-2.8538,-2.8597,-2.8752,0.0,0.0,0.0,0.0,0.0,0.0,0.0,0.0,0.0,0.0,0.0,0.0,0.0,0.0,0.0,0.0,0.0,0.0,0.0,0.0,0.0,0.0,0.0,0.0,0.0,0.0,0.0,-2.4809,-2.4589,0.0,0.0,0.0,0.0,0.0,0.0,0.0,0.0,0.0,0.0,0.0,-2.6239,-2.6497,0.0,0.0,0.0,0.0,0.0,0.0,0.0,0.0,0.0,0.0,0.0,0.0,-2.7326,-2.7547,-2.8185,-2.8488,-2.829,-2.8008,-2.782,-2.7631,-2.7441,-2.7139,-2.6589,0.0,0.0,0.0,0.0,0.0,0.0,0.0,0.0,0.0,0.0,0.0,0.0,0.0,0.0,0.0,0.0,0.0,0.0,0.0,0.0,0.0,0.0,0.0,0.0,0.0,-2.005,0.0,0.0,0.0,0.0,0.0,0.0,0.0,0.0,0.0,0.0,0.0,-2.4736,-2.5312,-2.6325,-2.7258,-2.7795,-2.8041,-2.8428,0.0,0.0,0.0,0.0,0.0,0.0,0.0,0.0,0.0,0.0,0.0,0.0,0.0,0.0,-2.7744,-2.6575,-2.6774,-2.7182,-2.7282,0.0,0.0,0.0,0.0,0.0,0.0,0.0,0.0,0.0,0.0,0.0,0.0,0.0,0.0,-2.6042,0.0,-2.5837,0.0,0.0,0.0,0.0,0.0,0.0,0.0,0.0,-2.6743,-2.7079,-2.7209,-2.7477,-2.7566,0.0,-2.7392,-2.6988,0.0,0.0,0.0,0.0,0.0,0.0,0.0,0.0,-2.7392,-2.7688,-2.818,-2.8301,-2.8019,-2.7726,-2.7547,-2.7547,-2.7347,-2.7117,-2.6817,-2.5518,-2.4722,0.0,0.0,0.0,0.0,0.0,0.0,0.0,0.0,0.0,0.0,0.0,0.0,0.0,0.0,0.0,0.0,0.0,0.0,0.0,0.0,0.0,0.0,0.0,-2.0431,0.0,0.0,0.0,0.0,0.0,0.0,0.0,0.0,0.0,-2.3908,-2.503,-2.6144,-2.6733,-2.7729,-2.8504,-2.9015,0.0,0.0,0.0,0.0,0.0,0.0,0.0,-3.0359,-3.0504,-3.0683,-3.061,-3.0096,-2.9856,-2.9795,-2.9761,0.0,0.0,-2.8239,-2.8401,-2.8604,-2.8604,-2.8604,-2.8564,-2.8228,-2.765,-2.7419,0.0,0.0,0.0,0.0,0.0,0.0,0.0,0.0,-2.7326,-2.7315,0.0,-2.6856,0.0,0.0,0.0,0.0,0.0,-2.6864,0.0,0.0,-2.7363,-2.7607,-2.7683,-2.7956,-2.8069,-2.8036,-2.7599,-2.7469,-2.7646,-2.7458,0.0,0.0,0.0,0.0,0.0,0.0,-2.7377,-2.7629,-2.8136,-2.8008,-2.7357,-2.7452,-2.7536,-2.7367,-2.7357,-2.7262,-2.7241,-2.6525,-2.5521,-2.4374,-2.3815,0.0,0.0,0.0,0.0,0.0,0.0,0.0,0.0,0.0,0.0,0.0,0.0,0.0,0.0,0.0,0.0,0.0,0.0,0.0,0.0,-2.0729,0.0,0.0,0.0,0.0,0.0,0.0,0.0,0.0,0.0,0.0,-2.4636,-2.6104,-2.7388,-2.7409,0.0,0.0,0.0,0.0,-2.912,-3.0224,-3.0989,-3.1074,-3.0223,-3.0429,-3.0843,-3.1288,0.0,0.0,-3.0166,-3.0031,-3.0223,-3.079,-3.0852,-3.0457,-2.9792,-2.9805,-3.0036,-3.0036,-3.0036,-2.9879,-2.9316,-2.8921,-2.8995,-2.8403,0.0,0.0,0.0,0.0,-2.7119,-2.7392,-2.7839,-2.7839,-2.7829,-2.7829,-2.7898,0.0,0.0,0.0,0.0,0.0,0.0,-2.6846,-2.677,-2.7179,-2.7558,-2.7967,-2.8396,-2.8549,-2.8538,-2.8407,-2.8433,-2.8444,-2.8444,-2.8107,-2.7643,0.0,0.0,0.0,0.0,-2.7623,-2.7581,-2.7764,-2.7726,-2.7547,-2.7452,-2.7357,-2.7272,-2.7272,-2.7272,-2.7262,-2.5653,-2.4572,-2.4297,-2.2734,0.0,0.0,0.0,0.0,0.0,0.0,0.0,0.0,0.0,0.0,0.0,0.0,0.0,0.0,0.0,0.0,0.0,0.0,0.0,-2.1565,-2.1893,-2.179,0.0,0.0,0.0,0.0,0.0,0.0,0.0,0.0,0.0,-2.6884,-2.7671,-2.8443,0.0,0.0,-2.9961,-3.0716,-3.0442,-3.0539,-3.1459,-3.151,0.0,-3.1412,-3.1615,-3.1737,-3.1459,-3.1381,-3.1205,-3.0601,-3.0822,-3.1137,-3.1479,-3.1412,-3.1045,-3.0785,-3.0921,-3.0977,-3.0977,-3.0977,-3.0977,-3.0622,-3.0611,-3.0407,-2.9049,-2.8767,-2.8032,-2.7624,-2.7599,-2.7599,-2.7883,-2.8331,-2.832,-2.8222,-2.8047,-2.8138,-2.7865,-2.7228,-2.7203,0.0,0.0,0.0,-2.679,-2.6911,-2.7184,-2.7468,-2.7763,-2.8047,-2.8178,-2.8189,-2.8375,-2.8473,-2.8473,-2.8762,-2.8749,-2.8422,0.0,0.0,-2.7799,-2.7634,-2.7586,-2.7747,-2.7672,-2.7536,-2.7441,-2.7357,-2.7272,-2.7272,-2.7272,-2.7272,-2.7262,-2.5674,-2.4575,-2.4244,-2.253,-2.148,0.0,0.0,0.0,0.0,0.0,0.0,0.0,0.0,0.0,0.0,0.0,-2.0247,-1.991,0.0,0.0,0.0,-2.1024,-2.1561,-2.1968,-2.2261,0.0,0.0,0.0,0.0,0.0,0.0,0.0,-2.715,-2.8105,-2.8736,-2.8969,-2.9341,-2.9589,-2.9821,-3.037,-3.082,-3.123,0.0,-3.1579,-3.1704,-3.1485,-3.1339,-3.1215,-3.1479,-3.1587,-3.1459,-3.1381,-3.1278,-3.088,-3.1055,-3.1282,-3.1485,-3.1333,-3.1052,-3.0882,-3.0962,-3.1041,-3.1041,-3.1041,-3.1052,-3.1123,-3.1375,-3.1179,-2.9485,-2.9326,-2.8266,-2.7865,-2.7945,-2.8003,-2.8233,-2.8637,-2.8626,-2.8386,-2.7992,-2.7981,-2.7501,-2.6671,-2.6212,0.0,-2.6852,-2.6702,-2.6846,-2.7272,-2.7293,-2.7337,-2.737,-2.7403,-2.7325,-2.7446,-2.7883,-2.8091,-2.8123,-2.8734,-2.9035,-2.9013,-2.8126,-2.7828,-2.8,-2.7565,-2.7583,-2.7882,-2.7726,-2.7452,-2.7272,-2.7272,-2.7272,-2.7272,-2.7272,-2.7262,-2.7156,-2.6187,-2.5089,-2.398,-2.2867,-2.1807,-2.0899,0.0,0.0,0.0,0.0,0.0,0.0,0.0,0.0,0.0,0.0,0.0,0.0,0.0,0.0,0.0,-2.0662,0.0,-2.208,-2.2312,0.0,0.0,0.0,-2.5053,-2.8625,-2.777,-2.7521,-2.9147,0.0,0.0,-3.0599,-3.0787,-3.0727,-3.0639,-3.1527,-3.2002,-3.151,-3.2091,-3.2227,-3.1367,-3.1272,-3.1029,-3.0408,-3.0584,-3.1034,-3.1215,-3.1329,-3.1236,-3.0884,-3.0796,-3.0898,-3.1049,-3.073,-3.0339,-3.0209,-3.0169,-3.0369,-3.0319,-3.0419,-3.0611,-3.0933,-3.1316,-3.1234,-2.9301,-2.891,-2.8701,-2.8368,-2.8003,-2.7632,-2.7555,-2.7643,-2.7654,-2.7588,-2.7479,-2.749,-2.7359,-2.714,-2.7031,-2.6846,-2.6702,-2.6616,-2.6693,-2.6813,-2.7151,-2.7512,-2.7782,-2.7715,-2.798,-2.8418,-2.8538,-2.8582,-2.8582,-2.8795,-2.8861,-2.8839,-2.8254,-2.8025,-2.8326,-2.8025,-2.7704,-2.7441,-2.7441,-2.7357,-2.7357,-2.7272,-2.7272,-2.7272,-2.7272,-2.687,-2.6091,-2.5089,-2.3998,-2.2911,-2.1837,-2.1176,-2.1007,-2.0962,0.0,0.0,0.0,0.0,0.0,0.0,0.0,0.0,0.0,-2.0637,-2.0843,0.0,-2.1464,0.0,-2.0953,-2.1455,-2.2598,-2.2695,0.0,0.0,-2.5669,-2.6674,-2.8048,-2.8632,-2.9105,-2.9746,-3.0475,-3.0811,-3.0714,-3.1144,-3.1514,-3.1444,-3.1113,-3.0956,-3.1329,-3.15,-3.1682,-3.1584,-3.0853,-3.0425,-3.0581,-3.0972,-3.1091,-3.0884,-3.0853,-3.0719,-3.025,-3.0199,-3.0093,-2.9657,-2.9657,-2.955,-2.8937,-2.8917,-2.9045,-2.8967,-2.966,-3.048,-3.0298,-3.056,-3.059,-2.9209,-2.8735,-2.8528,-2.8276,-2.7945,-2.7971,-2.796,-2.7949,-2.796,-2.7839,-2.7621,-2.7413,-2.7315,-2.7315,-2.7315,-2.7173,-2.6933,-2.6933,-2.6933,-2.6955,-2.7195,-2.7457,-2.7719,-2.7601,-2.7731,-2.8123,-2.8331,-2.844,-2.8451,-2.8648,-2.8757,-2.8571,-2.829,-2.8102,-2.8008,-2.7809,-2.7631,-2.7452,-2.7357,-2.7272,-2.7272,-2.7272,-2.7262,-2.7071,-2.6976,-2.6582,-2.5887,-2.4707,-2.3818,-2.3029,-2.2021,-2.1432,-2.1344,-2.1428,-2.1425,0.0,0.0,0.0,0.0,0.0,0.0,0.0,0.0,0.0,0.0,0.0,-2.1941,-2.2012,-2.1691,-2.1861,-2.2897,-2.2921,-2.3327,-2.4476,-2.5729,-2.7017,-2.8662,-2.916,-2.952,-3.0188,-3.0629,-3.0964,-3.0967,-3.1324,-3.1459,-3.1131,-3.0611,-3.0501,-3.1081,-3.1262,-3.135,-3.1402,-3.0374,-2.9717,-3.0042,-3.0289,-3.0237,-3.0013,-2.9942,-2.985,-2.9605,-2.9469,-2.9373,-2.9192,-2.9056,-2.893,-2.8408,-2.8408,-2.8514,-2.8466,-2.8878,-2.9411,-2.9342,-2.9352,-2.9382,-2.9301,-2.8806,-2.8298,-2.8134,-2.8167,-2.8582,-2.8773,-2.8571,-2.8571,-2.8331,-2.7927,-2.7501,-2.7315,-2.7315,-2.7315,-2.7227,-2.7138,-2.7138,-2.716,-2.7125,-2.7225,-2.7258,-2.7301,-2.7412,-2.7401,-2.7334,-2.7746,-2.785,-2.7769,-2.8168,-2.8269,-2.7987,-2.7904,-2.762,-2.7241,-2.6965,-2.7061,-2.7347,-2.7251,-2.7167,-2.7061,-2.7061,-2.6976,-2.6805,-2.6506,-2.6197,-2.58,-2.4726,-2.3926,-2.3529,-2.2627,-2.192,-2.1717,-2.1887,-2.1954,0.0,-2.2223,0.0,0.0,0.0,0.0,0.0,0.0,0.0,0.0,-2.181,-2.2249,-2.2675,-2.2419,-2.246,-2.3071,-2.293,-2.3062,-2.3543,-2.47,-2.671,-2.9302,-2.9283,-2.9352,-3.0427,-3.0663,-3.0926,-3.1195,-3.1288,-3.1007,-3.0346,-3.016,-3.0166,-3.0544,-3.0884,-3.104,-3.077,-2.9712,-2.9053,-2.9136,-2.9172,-2.9172,-2.9152,-2.9162,-2.9132,-2.9142,-2.893,-2.8874,-2.9166,-2.8787,-2.8408,-2.8301,-2.8291,-2.8291,-2.8301,-2.834,-2.8369,-2.8359,-2.8447,-2.8339,-2.976,-2.9301,-2.8844,-2.8615,-2.8626,-2.8713,-2.8309,-2.7577,-2.7588,-2.7534,-2.7446,-2.7359,-2.7315,-2.7315,-2.7315,-2.6961,-2.6425,-2.6415,-2.6243,-2.6043,-2.67,-2.7175,-2.7596,-2.8185,-2.8185,-2.7617,-2.7609,-2.717,-2.6114,-2.6194,-2.6031,-2.5509,-2.5353,-2.5178,-2.508,0.0,0.0,0.0,-2.6486,-2.6294,-2.5684,-2.5887,-2.6091,-2.6197,-2.5994,0.0,-2.452,-2.4223,-2.3538,-2.2426,-2.2224,0.0,0.0,0.0,0.0,0.0,0.0,0.0,0.0,0.0,0.0,0.0,-2.1799,-2.1783,-2.2051,-2.2396,-2.2626,-2.251,-2.2272,-2.2434,-2.3007,-2.264,-2.2568,-2.3071,-2.4223,-2.5838,-2.7965,-2.8607,-2.9123,-2.9707,-3.0659,-3.1122,-3.0745,-3.0576,-3.0207,-2.9774,-2.9505,-2.9389,-2.948,-2.9962,-3.0292,-3.0116,-2.9212,-2.8658,-2.9016,-2.9132,-2.9026,-2.9132,-2.9132,-2.9132,-2.9026,-2.9026,-2.893,-2.8874,-2.8747,-2.8514,-2.8398,-2.8301,-2.8301,-2.8301,-2.8301,-2.8301,-2.8291,-2.8281,-2.8281,-2.9943,0.0,-2.9024,-2.885,0.0,-2.885,-2.8278,-2.7457,-2.7833,-2.8025,-2.8025,-2.8025,-2.7833,-2.7457,-2.7457,-2.7091,-2.6352,-2.6352,-2.6278,-2.6124,-2.6502,-2.6814,-2.7115,-2.7505,-2.741,-2.702,-2.702,-2.6628,-2.5751,-2.5654,-2.5344,-2.466,-2.4571,-2.4393,-2.4285,-2.4187,-2.4393,-2.4894,-2.5197,-2.5099,-2.4688,-2.4786,-2.4884,-2.4894,-2.4707,0.0,0.0,0.0,0.0,0.0,0.0,0.0,0.0,-2.1733,0.0,-2.1546,-2.1835,-2.1827,-2.1546,-2.1428,-2.1407,-2.1593,-2.1593,-2.1674,-2.2078,-2.2239,-2.2437,-2.2453,-2.2529,-2.2688,-2.2982,-2.2757,-2.2699,-2.3008,-2.416,-2.5086,-2.5216,-2.656,-2.7631,-2.7852,-2.832,-2.8799,-2.9269,-2.9132,-2.9053,-2.9182,-2.9046,-2.8824,-2.894,-2.9485,-2.9853,-2.9278,-2.8774,-2.8426,-2.8581,-2.8708,-2.8717,-2.8717,-2.8708,-2.8708,-2.8708,-2.8708,-2.8611,-2.8514,-2.8514,-2.8408,-2.8301,-2.8301,-2.8301,-2.8301,-2.8301,-2.8301,-2.8301,-2.8301,-2.8301,-2.9727,-2.9442,-2.8718,-2.844,-2.844,-2.8337,-2.79,-2.7264,0.0,0.0,0.0,-2.856,-2.8175,-2.74,-2.74,-2.702,-2.6254,-2.6264,-2.6254,-2.6071,-2.6264,-2.6254,-2.6264,-2.6456,-2.6456,-2.6264,-2.6254,-2.5858,-2.5168,-2.5158,-2.4669,-2.389,-2.389,-2.38,-2.3493,-2.3493,-2.3502,-2.3592,-2.38,-2.3899,-2.38,-2.3791,-2.3692,-2.3592,-2.332,-2.3029,-2.2828,-2.2619,-2.2325,-2.2123,-2.2123,-2.1928,-2.1632,-2.1919,-2.2092,-2.21,-2.2363,-2.229,-2.1804,-2.1555,-2.125,-2.0933,-2.1296,-2.1632,-2.1851,-2.2047,-2.2174,-2.2466,-2.2702,-2.2914,-2.3109,-2.2988,-2.2977,-2.3129,-2.4032,-2.3861,-2.2374,-2.4215,-2.5834,-2.5661,-2.5954,-2.6254,-2.7286,-2.7403,-2.7501,-2.795,-2.7843,-2.8233,-2.8623,-2.9333,-2.9495,-2.8591,-2.8359,-2.8291,-2.8291,-2.8291,-2.8301,-2.8291,-2.8291,-2.8301,-2.8301,-2.8301,-2.8301,-2.8291,-2.8291,-2.8291,-2.8291,-2.8301,-2.8301,-2.8301,-2.8301,-2.8301,-2.8301,-2.8301,-2.8301,-2.9083,-2.9306,-2.7758,-2.7207,-2.7197,-2.6558,-2.6053,-2.5778,-2.717,-2.74,-2.6839,-2.7494,-2.7315,-2.6638,-2.6638,-2.6264,-2.5489,-2.5489,-2.5099,-2.4538,-2.5197,-2.5489,-2.5489,-2.6167,-2.6167,-2.5479,-2.5489,-2.4599,-2.3111,-2.3011,-2.2417,-2.1514,-2.142,-2.142,-2.1318,-2.1318,-2.1318,-2.142,-2.2719,-2.302,-2.2426,-2.2619,-2.2828,-2.302,-2.2728,-2.2619,-2.2518,-2.2526,-2.2333,-2.2123,-2.2123,-2.1928,-2.1428,-2.1374,-2.1304,-2.1099,-2.1139,-2.1147,-2.1004,-2.0996,-2.1004,-2.0973,-2.1542,-2.1892,-2.2018,-2.2206,-2.2498,-2.2581,-2.2513,-2.2721,-2.3221,-2.2821,-2.2852,-2.3709,-2.3324,-2.2464,-2.1563,-2.2998,-2.4169,-2.4214,-2.5058,-2.5581,-2.5809,-2.5717,-2.5626,-2.5626,-2.5836,-2.608,-2.7948,-2.8839,-2.8943,-2.8417,-2.8291,-2.8301,-2.8067,-2.8281,-2.8067,-2.8301,-2.8184,-2.8087,-2.796,-2.8087,-2.8087,-2.8291,-2.8184,-2.8184,-2.8291,-2.8301,-2.8301,-2.8301,-2.8301,-2.8301,-2.8301,-2.8301,-2.8301,-2.8653,-2.8309,-2.7072,-2.6368,-2.6013,-2.5265,-2.4795,-2.474,-2.5385,-2.5742,-2.5865,-2.6464,-2.6293,-2.5553,-2.5779,-2.5392,-2.4726,-2.4726,-2.4529,-2.4251,-2.4538,-2.4726,-2.4726,-2.5118,-2.4913,-2.4214,-2.4214,-2.3511,-2.2131,-2.203,-2.1632,-2.0917,-2.0925,-2.0925,-2.0925,-2.0925,-2.0925,-2.0925,-2.1623,-2.1827,-2.142,-2.1522,-2.1725,-2.1818,-2.1725,-2.1623,-2.1623,-2.1623,-2.1623,-2.1428,-2.142,-2.1326,-2.1121,-2.0704,-2.0403,-2.0308,-2.0477,-2.0473,-2.0473,-2.095,-2.1313,-2.1557,-2.1641,-2.18,-2.1872,-2.1992,-2.2173,-2.2328,-2.2124,-2.22,-2.2681,-2.2429,-2.2444,-2.3119,-2.2588,-2.1873,-2.1358,-2.1836,-2.2441,-2.2659,-2.2958,-2.3487,-2.4275,-2.43,-2.4411,-2.4735,-2.4727,-2.5675,-2.7816,-2.7287,-2.6654,-2.64,-2.6391,-2.6391,-2.6391,-2.6391,-2.6391,-2.64,-2.6691,-2.6809,-2.6536,-2.6673,-2.7036,-2.7314,-2.7295,-2.7628,-2.8077,-2.8301,-2.8301,-2.8301,-2.8301,-2.8301,-2.8301,-2.8301,-2.8301,-2.7618,-2.7097,-2.6046,-2.5259,-2.4532,-2.3804,-2.3591,-2.3591,-2.3582,-2.3948,-2.4564,-2.5142,-2.5006,-2.4383,-2.4592,-2.4491,-2.4104,-2.4015,-2.407,-2.4152,-2.4161,-2.4161,-2.4161,-2.4161,-2.3845,-2.3329,-2.3329,-2.2736,-2.1827,-2.1725,-2.142,-2.0917,-2.0925,-2.0925,-2.0925,-2.0925,-2.0925,-2.0925,-2.0925,-2.0925,-2.0925,-2.0925,-2.0925,-2.0925,-2.0925,-2.0925,-2.0925,-2.0712,-2.0617,-2.0617,-2.0403,-2.03,-2.03,-1.9851,-1.9471,-1.9501,-1.978,-1.9957,-1.9864,-2.0461,-2.0861,-2.0989,-2.0869,-2.0911,-2.1152,-2.1196,-2.1425,-2.1881,-2.1789,-2.1789,-2.2131,-2.201,-2.2131,-2.226,-2.1911,-2.166,-2.1281,-2.1189,-2.1325,-2.1546,-2.1288,-2.1722,-2.2523,-2.2869,-2.3087,-2.3631,-2.4181,-2.5112,-2.6163,-2.5301,-2.471,-2.4053,-2.3875,-2.4285,-2.4454,-2.4829,-2.4829,-2.4718,-2.511,-2.5221,-2.4956,-2.5247,-2.5494,-2.5963,-2.6073,-2.6409,-2.7286,-2.7394,-2.7286,-2.7168,-2.7168,-2.7286,-2.7286,-2.7286,-2.7736,-2.5379,-2.5434,-2.4257,-2.3195,-2.2611,-2.2196,-2.1968,-2.1968,-2.1949,-2.194,-2.232,-2.3572,-2.3822,-2.3109,-2.3155,-2.3281,-2.3584,-2.3602,-2.3785,-2.4115,-2.4152,-2.4161,-2.4152,-2.4161,-2.3845,-2.3329,-2.3229,-2.2728,-2.1725,-2.1623,-2.142,-2.0925,-2.0925,-2.0925,-2.0925,-2.0925,-2.0925,-2.0925,-2.0925,-2.0925,-2.0925,-2.0925,-2.0925,-2.0925,-2.0925,-2.0925,-2.0917,-2.0197,-1.9783,-1.9783,-1.9049,-1.8632,-1.866,-1.878,-1.8835,-1.8842,-1.9115,-1.9064,-1.8644,-1.8783,-1.8844,-1.7957,-1.8186,-1.868,-1.9435,-1.9557,-2.0141,-2.1196,-2.1668,-2.1774,-2.2002,-2.1888,-2.1789,-2.1797,-2.1782,-2.1554,-2.1318,-2.1203,-2.1211,-2.1211,-2.1203,-2.1318,-2.1539,-2.1539,-2.1539,-2.1873,-2.2644,-2.2998,-2.2753,-2.3723,-2.369,-2.2176,-2.1579,-2.2506,-2.3953,-2.4718,-2.4394,-2.4497,-2.408,-2.3978,-2.4139,-2.3986,-2.403,-2.4735,-2.4837,-2.4956,-2.5168,-2.5049,-2.516,-2.5498,-2.5498,-2.516,-2.5058,-2.5278,-2.5945,-2.4677,-2.44,-2.3477,-2.2598,-2.1942,-2.1796,-2.1731,-2.1731,-2.1731,-2.1731,-2.1768,-2.2451,-2.263,-2.2593,-2.2747,-2.2957,-2.3094,-2.3189,-2.3409,-2.3767,-2.3794,-2.3923,-2.4143,-2.4161,-2.3746,-2.2929,-2.2828,-2.2325,-2.142,-2.1216,-2.1121,-2.0917,-2.0925,-2.0925,-2.0925,-2.0925,-2.0925,-2.0925,-2.0925,-2.0719,-2.03,-2.0609,-2.0925,-2.0925,-2.0925,-2.0925,-2.0822,-2.0094,-1.968,-1.968,-1.884,-1.8506,-1.8575,-1.8279,-1.8103,-1.827,-1.8557,-1.8784,-1.8931,-1.883,-1.8436,-1.7737,-1.7603,-1.7793,-1.8144,-1.815,-1.85,-1.9203,-2.05,-2.1432,-2.1546,-2.1432,-2.1439,-2.1447,-2.1439,-2.1325,-2.1211,-2.1211,-2.1211,-2.1211,-2.1211,-2.1211,-2.1211,-2.1211,-2.1211,-2.1211,-2.1645,-2.1653,-2.1325,-2.2055,-2.2177,-2.1439,-2.1171,-2.1587,-2.2492,-2.2644,-2.2644,-2.2628,-2.2379,-2.2371,-2.2492,-2.2492,-2.2469,-2.3511,-2.3623,-2.3958,-2.4727,-2.4718,-2.4718,-2.4608,-2.4608,-2.4718,-2.4718,-2.4718,-2.5278,-2.381,-2.329,-2.2696,-2.2185,-2.1741,-2.1731,-2.1731,-2.1731,-2.1731,-2.1731,-2.1731,-2.1731,-2.1896,-2.2181,-2.24,-2.2667,-2.2777,-2.2786,-2.3006,-2.3363,-2.3483,-2.3703,-2.3969,-2.4106,-2.3637,-2.2627,-2.2526,-2.1928,-2.1027,-2.0925,-2.0822,-2.0609,-2.0617,-2.0411,-2.0197,-2.0189,-2.0197,-2.0197,-2.0189,-1.9887,-1.9465,-1.9879,-2.0189,-2.0189,-2.0189,-2.0197,-2.0189,-1.9465,-1.9049,-1.8945,-1.8213,-1.7815,-1.8104,-1.7668,-1.7436,-1.7766,-1.7875,-1.8071,-1.8248,-1.7904,-1.7436,-1.685,-1.6503,-1.6503,-1.6856,-1.6862,-1.7091,-1.756,-1.9087,-2.0155,-2.063,-2.0981,-2.1211,-2.1211,-2.1211,-2.1211,-2.1211,-2.1211,-2.1211,-2.1211,-2.1211,-2.1211,-2.1211,-2.1211,-2.1211,-2.1211,-2.1211,-2.1211,-2.1211,-2.1211,-2.1211,-2.1211,-2.1203,-2.1203,-2.1211,-2.1432,-2.1211,-2.1211,-2.131,-2.1303,-2.1211,-2.1203,-2.1318,-2.2418,-2.2418,-2.2644,-2.3079,-2.3519,-2.3735,-2.3735,-2.3735,-2.3735,-2.3407,-2.3623,-2.3838,-2.2353,-2.2176,-2.1909,-2.1731,-2.1731,-2.1731,-2.1731,-2.1731,-2.1731,-2.1731,-2.1731,-2.1731,-2.175,-2.1786,-2.1851,-2.2006,-2.2327,-2.2263,-2.2491,-2.2893,-2.3231,-2.3441,-2.3593,-2.396,-2.3538,-2.2316,-2.2215,-2.1717,-2.0814,-2.0814,-2.0506,-1.9783,-1.9783,-1.9361,-1.8736,-1.8736,-1.8527,-1.8736,-1.8736,-1.8527,-1.8527,-1.852,-1.8527,-1.852,-1.8527,-1.8632,-1.8527,-1.7779,-1.7358,-1.7351,-1.6624,-1.6221,-1.6484,-1.6648,-1.7019,-1.7468,-1.6968,-1.6397,-1.5941,-1.5343,-1.4743,-1.4162,-1.4157,-1.4396,-1.5575,-1.5688,-1.6037,-1.7208,-1.7449,-1.815,-1.921,-2.0148,-2.0859,-2.1089,-2.1089,-2.1089,-2.1211,-2.1211,-2.1211,-2.1211,-2.1211,-2.1211,-2.1211,-2.1211,-2.1211,-2.1211,-2.1211,-2.1211,-2.1211,-2.1211,-2.1211,-2.1211,-2.1211,-2.1211,-2.1211,-2.1211,-2.1211,-2.1211,-2.1211,-2.1211,-2.1211,-2.1211,-2.1325,-2.1325,-2.1539,-2.1539,-2.1432,-2.1539,-2.1759,-2.1759,-2.1866,-2.1873,-2.2199,-2.1653,-2.1866,-2.2176,-2.182,-2.1741,-2.1731,-2.1731,-2.1731,-2.1731,-2.1731,-2.1731,-2.1731,-2.1731,-2.1731,-2.1731,-2.1731,-2.1731,-2.1814,-2.1843,-2.1292,-2.1597,-2.2251,-2.1457,-2.1482,-2.2336,-2.1883,-2.1268,-2.0743,-2.0459,-2.0063,-1.9361,-1.9257,-1.9146,-1.8945,-1.884,-1.8736,-1.8422,-1.8422,-1.8422,-1.8422,-1.8422,-1.8206,-1.7681,-1.7674,-1.7358,-1.6942,-1.7891,-1.8422,-1.8422,-1.7674,-1.7252,-1.7147,-1.6411,-1.6012,-1.6284,-1.6706,-1.7105,-1.7424,-1.6891,-1.6183,-1.5596,-1.4992,-1.4396,-1.3808,-1.3688,-1.3808,-1.4277,-1.4396,-1.4629,-1.51,-1.5806,-1.6509,-1.6979,-1.8033,-1.9087,-1.9795,-2.0033,-2.027,-2.0974,-2.1211,-2.1211,-2.1211,-2.1211,-2.1211,-2.1211,-2.1211,-2.1211,-2.1211,-2.1211,-2.1211,-2.1211,-2.1211,-2.1211,-2.1211,-2.1211,-2.1211,-2.1211,-2.1211,-2.1211,-2.1211,-2.1211,-2.1211,-2.1211,-2.1211,-2.1325,-2.1325,-2.1211,-2.1211,-2.1318,-2.1318,-2.1211,-2.1211,-2.1211,-2.1211,-2.1211,-2.1211,-2.1432,-2.1998,-2.1731,-2.1731,-2.1463,-2.1275,-2.1275,-2.1087,-2.0817,-2.0727,-2.0718,-2.0727,-2.0727,-2.0718,-2.0727,-2.0718,-2.0817,-2.0718,-2.0439,-2.0759,-2.147,-2.0094,-2.0028,-2.0759,-2.0325,-1.9752,-1.9463,-1.9088,-1.8729,-1.8422,-1.8422,-1.8318,-1.7996,-1.7996,-1.7898,-1.7687,-1.7575,-1.7582,-1.7582,-1.7582,-1.7259,-1.6836,-1.673,-1.6518,-1.6205,-1.7047,-1.7575,-1.7575,-1.7041,-1.6723,-1.6723,-1.6199,-1.6012,-1.629,-1.6565,-1.6819,-1.6984,-1.6256,-1.5704,-1.5235,-1.4634,-1.4162,-1.3808,-1.3688,-1.3688,-1.3688,-1.3688,-1.3688,-1.3923,-1.4396,-1.4986,-1.51,-1.5682,-1.6856,-1.8267,-1.8732,-1.8971,-1.9917,-2.0665,-2.114,-2.1218,-2.1211,-2.1211,-2.1211,-2.1211,-2.1211,-2.1211,-2.1211,-2.1211,-2.1211,-2.1211,-2.1211,-2.1211,-2.1211,-2.1211,-2.1211,-2.1211,-2.1211,-2.1211,-2.1211,-2.1211,-2.1211,-2.1211,-2.1211,-2.1211,-2.1211,-2.1211,-2.1211,-2.1211,-2.1211,-2.1211,-2.1211,-2.1211,-2.1211,-2.1211,-2.1318,-2.1741,-2.1642,-2.1731,-2.1186,-2.0439,-2.0339,-1.9712,-1.9063,-1.898,-1.9063,-1.9163,-1.8972,-1.9155,-1.898,-1.9163,-1.8972,-1.9155,-1.9704,-2.0085,-2.0244,-1.9495,-1.9194,-1.9423,-1.9465,-1.9283,-1.8803,-1.8587,-1.8311,-1.8213,-1.8108,-1.7786,-1.7259,-1.7147,-1.6836,-1.5992,-1.6205,-1.6099,-1.6099,-1.6205,-1.6099,-1.5885,-1.5992,-1.5992,-1.5885,-1.6099,-1.6099,-1.5992,-1.5998,-1.5992,-1.5992,-1.5891,-1.6012,-1.6192,-1.6066,-1.6034,-1.598,-1.5215,-1.4728,-1.4629,-1.4157,-1.3808,-1.3688,-1.3688,-1.3688,-1.3688,-1.3688,-1.3688,-1.3688,-1.3808,-1.3808,-1.3808,-1.4043,-1.4981,-1.6856,-1.7443,-1.7443,-1.8052,-1.9802,-2.1133,-2.1125,-2.1096,-2.1218,-2.1211,-2.1211,-2.1211,-2.1211,-2.1174,-2.1145,-2.1115,-2.1207,-2.1152,-2.1181,-2.1145,-2.1229,-2.1167,-2.1211,-2.1211,-2.1211,-2.1211,-2.1211,-2.1211,-2.1211,-2.1211,-2.1211,-2.1211,-2.1211,-2.1211,-2.1211,-2.1211,-2.1211,-2.1211,-2.1211,-2.1211,-2.1211,-2.1211,-2.1731,-2.1642,-2.0988,-2.0619,-2.0249,-1.9613,-1.9063,-1.8796,-1.8796,-1.8796,-1.8796,-1.8796,-1.8796,-1.8796,-1.8796,-1.8796,-1.8796,-1.8519,-1.8603,-1.8904,-1.7507,-1.7296,-1.7794,-1.7107,-1.6627,-1.6703,-1.6701,-1.6736,-1.6736,-1.6736,-1.6518,-1.6311,-1.6305,-1.6205,-1.5891,-1.5885,-1.5885,-1.5885,-1.5885,-1.5885,-1.5885,-1.5885,-1.5885,-1.5885,-1.5885,-1.5885,-1.5885,-1.5885,-1.5885,-1.5885,-1.5891,-1.5797,-1.5609,-1.5327,-1.523,-1.5423,-1.4829,-1.4488,-1.449,-1.4038,-1.3688,-1.3688,-1.3688,-1.3688,-1.3688,-1.3688,-1.3688,-1.3688,-1.3688,-1.3688,-1.3688,-1.3688,-1.4396,-1.5924,-1.6161,-1.6514,-1.7349,-1.9506,-2.035,-1.9822,-2.0449,-2.1068,-2.1111,-2.1081,-2.0938,-2.1016,-2.1141,-2.1144,-2.0979,-2.0974,-2.1063,-2.095,-2.1001,-2.1082,-2.0998,-2.1028,-2.105,-2.1115,-2.1167,-2.1203,-2.1211,-2.1211,-2.1211,-2.1211,-2.1211,-2.1211,-2.1211,-2.1211,-2.1211,-2.1211,-2.1211,-2.1211,-2.1211,-2.1211,-2.1211,-2.0628,-2.0538,-1.9985,-1.9521,-1.9163,-1.8519,-1.8056,-1.7684,-1.7684,-1.7684,-1.7684,-1.7677,-1.7684,-1.7677,-1.7684,-1.7684,-1.7584,-1.7037,-1.7131,-1.7498,-1.6379,-1.6027,-1.658,-1.5635,-1.5281,-1.5433,-1.5668,-1.5795,-1.5885,-1.5885,-1.5885,-1.5885,-1.5885,-1.5885,-1.5885,-1.5885,-1.5885,-1.5885,-1.5885,-1.5885,-1.5885,-1.5885,-1.5885,-1.5885,-1.5885,-1.5885,-1.5885,-1.5885,-1.5885,-1.5891,-1.5678,-1.5331,-1.4931,-1.4476,-1.4319,-1.4458,-1.4225,-1.403,-1.4153,-1.388,-1.3688,-1.3688,-1.3688,-1.3688,-1.3688,-1.3688,-1.3688,-1.3688,-1.3688,-1.3688,-1.3688,-1.3688,-1.4162,-1.4748,-1.4867,-1.5461,-1.6773,-1.7781,-1.825,-1.7886,-1.8622,-1.9305,-1.9557,-1.9731,-1.9911,-2.0047,-2.0623,-2.0848,-2.0648,-2.0501,-2.0435,-2.0494,-2.0656,-2.0647,-2.0779,-2.0837,-2.0874,-2.0991,-2.1108,-2.1167,-2.1211,-2.1211,-2.1211,-2.1211,-2.1211,-2.1211,-2.1211,-2.1211,-2.1211,-2.1211,-2.1211,-2.1211,-2.1211,-2.1211,-2.1211,-1.8796,-1.8796,-1.8696,-1.8249,-1.7512,-1.7333,-1.6763,-1.6015,-1.592,-1.6008,-1.6015,-1.6103,-1.6015,-1.592,-1.6103,-1.6103,-1.5825,-1.6015,-1.6015,-1.6015,-1.5737,-1.5757,-1.5517,-1.5174,-1.5169,-1.5384,-1.5499,-1.5656,-1.5879,-1.5885,-1.5885,-1.5885,-1.5885,-1.5885,-1.5885,-1.5885,-1.5885,-1.5885,-1.5885,-1.5885,-1.5885,-1.5885,-1.5885,-1.5885,-1.5885,-1.5885,-1.5885,-1.5785,-1.5785,-1.5785,-1.5143,-1.4617,-1.4218,-1.3727,-1.3502,-1.3588,-1.349,-1.3413,-1.34,-1.3495,-1.3594,-1.3584,-1.3589,-1.3665,-1.3636,-1.3632,-1.3651,-1.3684,-1.3688,-1.3688,-1.3688,-1.3688,-1.3808,-1.3688,-1.3928,-1.4525,-1.5601,-1.494,-1.5001,-1.5909,-1.6132,-1.6431,-1.7399,-1.747,-1.7817,-1.8479,-1.9472,-1.9768,-1.9676,-1.9467,-1.959,-1.9735,-1.9888,-2.0355,-2.0383,-2.0545,-2.0589,-2.0669,-2.0845,-2.0984,-2.1152,-2.1203,-2.1211,-2.1211,-2.1211,-2.1211,-2.1211,-2.1211,-2.1211,-2.1211,-2.1211,-2.1211,-2.1211,-2.1211,-2.1211,-1.8796,-1.8703,-1.7971,-1.7512,-1.7138,-1.6581,-1.6109,-1.5825,-1.5825,-1.5825,-1.5825,-1.5825,-1.5825,-1.5825,-1.5825,-1.5825,-1.5825,-1.5825,-1.5825,-1.5832,-1.5642,-1.5356,-1.5032,-1.4875,-1.4983,-1.5203,-1.5403,-1.5638,-1.5873,-1.5885,-1.5885,-1.5885,-1.5885,-1.5885,-1.5885,-1.5885,-1.5885,-1.5885,-1.5885,-1.5885,-1.5885,-1.5885,-1.5885,-1.5885,-1.5885,-1.5891,-1.5891,-1.5464,-1.525,-1.5143,-1.4283,-1.3748,-1.3537,-1.3049,-1.2812,-1.2966,-1.2969,-1.3008,-1.3131,-1.3211,-1.324,-1.323,-1.3277,-1.3301,-1.3457,-1.3471,-1.3542,-1.3636,-1.3688,-1.3688,-1.3688,-1.3688,-1.3688,-1.3688,-1.3674,-1.3913,-1.4272,-1.4023,-1.3812,-1.4088,-1.5146,-1.5983,-1.6386,-1.6636,-1.6824,-1.7179,-1.7754,-1.8237,-1.8028,-1.8523,-1.884,-1.8773,-1.8937,-1.9628,-2.0077,-2.0135,-2.0296,-2.034,-2.0383,-2.0587,-2.0834,-2.1189,-2.1203,-2.1211,-2.1211,-2.1211,-2.1211,-2.1211,-2.1211,-2.1211,-2.1211,-2.1211,-2.1211,-2.1211,-2.1211,-1.7498,-1.7498,-1.6951,-1.6676,-1.6581,-1.6015,-1.5825,-1.5825,-1.5825,-1.5825,-1.5825,-1.5825,-1.5825,-1.5825,-1.5825,-1.5825,-1.5825,-1.5825,-1.5825,-1.573,-1.5452,-1.5077,-1.4731,-1.4588,-1.4739,-1.5089,-1.5258,-1.5535,-1.5825,-1.5885,-1.5885,-1.5885,-1.5885,-1.5885,-1.5885,-1.5885,-1.5885,-1.5885,-1.5885,-1.5885,-1.5885,-1.5885,-1.5885,-1.5885,-1.5885,-1.5785,-1.5464,-1.4928,-1.4713,-1.4498,-1.3856,-1.3207,-1.2876,-1.2659,-1.2498,-1.263,-1.271,-1.2828,-1.2928,-1.3013,-1.3065,-1.3069,-1.3065,-1.3178,-1.3339,-1.3395,-1.3471,-1.3651,-1.3684,-1.3688,-1.3688,-1.3688,-1.3688,-1.3679,-1.3613,-1.357,-1.3689,-1.367,-1.3438,-1.3505,-1.4014,-1.4781,-1.5087,-1.5166,-1.5327,-1.5562,-1.5884,-1.6151,-1.6414,-1.7255,-1.7909,-1.7642,-1.7434,-1.7734,-1.8117,-1.8266,-1.8503,-1.8782,-1.9105,-1.9403,-2.0355,-2.0793,-2.0902,-2.0909,-2.106,-2.1196,-2.1052,-2.1052,-2.1211,-2.1211,-2.1211,-2.1211,-2.1211,-2.1211,-2.1211,-1.5825,-1.5825,-1.5825,-1.5825,-1.5825,-1.5825,-1.5825,-1.5825,-1.5825,-1.5825,-1.5825,-1.5825,-1.5825,-1.5825,-1.554,-1.5635,-1.5825,-1.554,-1.5445,-1.5255,-1.4873,-1.4298,-1.4004,-1.4322,-1.4606,-1.498,-1.5077,-1.539,-1.5716,-1.5849,-1.5885,-1.5885,-1.5885,-1.5885,-1.5885,-1.5885,-1.5885,-1.5885,-1.5885,-1.5885,-1.5885,-1.5885,-1.5885,-1.5885,-1.5885,-1.5571,-1.5143,-1.46,-1.4169,-1.4169,-1.3527,-1.2985,-1.2441,-1.2436,-1.2446,-1.2479,-1.2611,-1.271,-1.2748,-1.2866,-1.297,-1.2947,-1.2961,-1.3117,-1.3258,-1.332,-1.3419,-1.367,-1.3688,-1.3688,-1.3688,-1.3688,-1.3688,-1.3665,-1.3523,-1.3527,-1.3484,-1.3479,-1.3273,-1.3074,-1.3036,-1.2937,-1.2805,-1.2826,-1.3106,-1.4155,-1.4283,-1.4483,-1.4667,-1.5194,-1.5725,-1.594,-1.5815,-1.566,-1.5903,-1.6236,-1.6491,-1.6838,-1.7308,-1.7851,-1.9292,-1.9907,-2.0238,-2.0323,-1.967,-1.9932,-2.0587,-2.0737,-2.0795,-2.1211,-2.1211,-2.1211,-2.1211,-2.1211,-2.1211,-1.5825,-1.5825,-1.5825,-1.5825,-1.5825,-1.5825,-1.5825,-1.5825,-1.5825,-1.5825,-1.573,-1.5825,-1.5737,-1.5635,-1.4962,-1.5064,-1.5445,-1.4962,-1.4388,-1.3896,-1.3022,-1.2441,-1.2436,-1.3414,-1.4388,-1.46,-1.4921,-1.5173,-1.5455,-1.5577,-1.5885,-1.5779,-1.5559,-1.5885,-1.5779,-1.5559,-1.5885,-1.5885,-1.5779,-1.5672,-1.5672,-1.5672,-1.5672,-1.5672,-1.5666,-1.5464,-1.5041,-1.4493,-1.3954,-1.3527,-1.2985,-1.2545,-1.2436,-1.2436,-1.2436,-1.245,-1.2474,-1.2517,-1.2526,-1.2573,-1.2583,-1.2616,-1.2649,-1.2734,-1.3093,-1.315,-1.3325,-1.3584,-1.3688,-1.3688,-1.3688,-1.3688,-1.3674,-1.3627,-1.3485,-1.318,-1.2813,-1.3011,-1.2927,-1.2772,-1.2707,-1.2753,-1.2554,-1.2535,-1.2711,-1.2767,-1.2871,-1.298,-1.3192,-1.3506,-1.3938,-1.4476,-1.4239,-1.4228,-1.4781,-1.5007,-1.5064,-1.5144,-1.5551,-1.58,-1.7202,-1.7896,-1.794,-1.7949,-1.7793,-1.8311,-1.9312,-1.959,-1.9523,-2.0415,-2.1038,-2.0994,-2.0844,-2.1016,-2.0673,-1.5825,-1.5825,-1.5825,-1.5825,-1.5825,-1.5825,-1.5825,-1.5825,-1.5825,-1.554,-1.5159,-1.5064,-1.4867,-1.4376,-1.38,-1.3896,-1.4088,-1.3698,-1.3119,-1.2732,-1.215,-1.1658,-1.137,-1.2165,-1.2959,-1.3198,-1.3436,-1.3675,-1.3908,-1.4226,-1.4153,-1.4261,-1.4363,-1.4148,-1.4261,-1.4369,-1.4148,-1.4148,-1.4261,-1.4261,-1.4261,-1.4261,-1.4148,-1.404,-1.3922,-1.3599,-1.296,-1.3073,-1.2753,-1.2436,-1.2332,-1.2327,-1.2436,-1.2436,-1.2436,-1.2436,-1.2436,-1.2436,-1.2441,-1.2436,-1.245,-1.2436,-1.2436,-1.2682,-1.2942,-1.3065,-1.3273,-1.3566,-1.3688,-1.3688,-1.3688,-1.3688,-1.366,-1.3523,-1.3362,-1.303,-1.2743,-1.2805,-1.2843,-1.2557,-1.2496,-1.2559,-1.2474,-1.2446,-1.2436,-1.2654,-1.2654,-1.2654,-1.2654,-1.2866,-1.2866,-1.3186,-1.2837,-1.2935,-1.3712,-1.3938,-1.383,-1.3769,-1.3832,-1.4009,-1.4631,-1.4944,-1.5138,-1.5518,-1.6263,-1.7135,-1.7911,-1.8077,-1.8255,-1.8518,-1.8978,-1.9779,-2.009,-1.9728,-1.928,-1.5825,-1.5825,-1.5825,-1.5825,-1.5825,-1.5825,-1.5635,-1.554,-1.5737,-1.5153,-1.4292,-1.4196,-1.3902,-1.2926,-1.2533,-1.2436,-1.2436,-1.2242,-1.195,-1.1663,-1.1077,-1.0681,-1.0489,-1.06,-1.0852,-1.1048,-1.1782,-1.2096,-1.2375,-1.2285,-1.2847,-1.2526,-1.2526,-1.2738,-1.2526,-1.2417,-1.2743,-1.2743,-1.2743,-1.2743,-1.2743,-1.2635,-1.2521,-1.2304,-1.2073,-1.1633,-1.1433,-1.1546,-1.1551,-1.1013,-1.1559,-1.1891,-1.211,-1.2327,-1.2436,-1.2436,-1.2436,-1.2436,-1.2436,-1.2436,-1.2436,-1.2436,-1.2436,-1.2616,-1.2904,-1.306,-1.3258,-1.3485,-1.3651,-1.3688,-1.3688,-1.3688,-1.3589,-1.3419,-1.3202,-1.2989,-1.2931,-1.2748,-1.2621,-1.2517,-1.2384,-1.2469,-1.2455,-1.2436,-1.2436,-1.2436,-1.2436,-1.2436,-1.2436,-1.2436,-1.255,-1.255,-1.2417,-1.2408,-1.3073,-1.3295,-1.3083,-1.3088,-1.2777,-1.2896,-1.291,-1.3302,-1.3857,-1.443,-1.5238,-1.5758,-1.6175,-1.6399,-1.6405,-1.6528,-1.7154,-1.811,-1.8413,-1.822,-1.778,-1.5825,-1.5825,-1.5825,-1.5825,-1.5825,-1.5825,-1.5255,-1.4777,-1.535,-1.4663,-1.3216,-1.3806,-1.3516,-1.2635,-1.1755,-1.1468,-1.1365,-1.1072,-1.0877,-1.0489,-0.9706,-0.9019,-0.892,-0.892,-0.8847,-0.9234,-1.0357,-1.1488,-1.1736,-1.2205,-1.1946,-1.2191,-1.22,-1.22,-1.2091,-1.2309,-1.2091,-1.1873,-1.1982,-1.1982,-1.1982,-1.1869,-1.176,-1.1542,-1.1093,-1.0874,-1.0668,-1.0672,-1.0672,-1.0127,-1.0127,-1.0237,-1.0676,-1.1555,-1.211,-1.2327,-1.2219,-1.2219,-1.2327,-1.2436,-1.2436,-1.2436,-1.2436,-1.2545,-1.2786,-1.2975,-1.3169,-1.3395,-1.3594,-1.3674,-1.3688,-1.3655,-1.3575,-1.3395,-1.3173,-1.3079,-1.2893,-1.2625,-1.2517,-1.245,-1.2436,-1.2436,-1.2436,-1.2436,-1.2436,-1.2436,-1.2436,-1.2436,-1.2436,-1.2436,-1.2436,-1.2436,-1.2436,-1.2432,-1.2545,-1.2654,-1.2545,-1.2654,-1.255,-1.2555,-1.2559,-1.2446,-1.285,-1.3512,-1.3699,-1.375,-1.4155,-1.4564,-1.5155,-1.5572,-1.6092,-1.6622,-1.6392,-1.6169,-1.634,-1.4675,-1.4178,-1.4184,-1.4178,-1.4178,-1.4184,-1.3896,-1.3607,-1.3986,-1.3403,-1.2436,-1.2441,-1.2052,-1.1179,-1.0694,-1.0301,-1.0105,-0.9706,-0.9509,-0.9118,-0.8528,-0.8137,-0.8038,-0.8038,-0.8038,-0.8296,-0.9372,-1.0063,-1.016,-1.0297,-1.0691,-1.0558,-1.057,-1.057,-1.0574,-1.046,-1.068,-1.068,-1.068,-1.0566,-1.0453,-1.0233,-0.9904,-0.9684,-0.9567,-0.9127,-0.9023,-0.9471,-0.9471,-0.9251,-0.9578,-0.9794,-1.0014,-1.0457,-1.1232,-1.1559,-1.1673,-1.2001,-1.2327,-1.2436,-1.2436,-1.2436,-1.2436,-1.2545,-1.2715,-1.288,-1.306,-1.3441,-1.3565,-1.3656,-1.3523,-1.3409,-1.3259,-1.3131,-1.2975,-1.2833,-1.2644,-1.2507,-1.246,-1.2436,-1.2436,-1.2436,-1.2436,-1.2436,-1.2436,-1.2436,-1.2436,-1.2436,-1.2436,-1.2436,-1.2436,-1.2436,-1.2436,-1.2436,-1.2436,-1.2436,-1.2436,-1.2436,-1.2436,-1.2436,-1.2436,-1.2436,-1.2436,-1.2707,-1.254,-1.2602,-1.2702,-1.3407,-1.4014,-1.4509,-1.4492,-1.4377,-1.4167,-1.4188,-1.4489,-1.3511,-1.2732,-1.2732,-1.2732,-1.2732,-1.2732,-1.2635,-1.2436,-1.2732,-1.2047,-1.0979,-1.1077,-1.069,-0.9817,-0.9628,-0.9529,-0.9137,-0.8733,-0.8627,-0.8432,-0.8237,-0.8038,-0.8038,-0.8038,-0.8038,-0.8058,-0.8247,-0.8316,-0.8797,-0.8969,-0.89,-0.9113,-0.9047,-0.8937,-0.9044,-0.9261,-0.8937,-0.8937,-0.8937,-0.8712,-0.8488,-0.8048,-0.7607,-0.7607,-0.7379,-0.7374,-0.7595,-0.8039,-0.826,-0.8371,-0.8809,-0.9251,-0.9247,-0.9247,-0.9691,-1.0464,-1.0684,-1.1345,-1.1891,-1.211,-1.211,-1.2332,-1.2436,-1.254,-1.2649,-1.2767,-1.3046,-1.3476,-1.3693,-1.3567,-1.332,-1.3077,-1.2906,-1.2913,-1.2791,-1.2701,-1.2545,-1.2446,-1.245,-1.2436,-1.2436,-1.2436,-1.2436,-1.2436,-1.2436,-1.2436,-1.2436,-1.2436,-1.2436,-1.2436,-1.2436,-1.2436,-1.2436,-1.2436,-1.2436,-1.2436,-1.2436,-1.2436,-1.2436,-1.2436,-1.2436,-1.2436,-1.2436,-1.2436,-1.245,-1.2498,-1.245,-1.2436,-1.2964,-1.3212,-1.2692,-1.2583,-1.2993,-1.3152,-1.3312,-1.2823,-1.2635,-1.2635,-1.2732,-1.2635,-1.2538,-1.215,-1.1463,-1.2145,-1.1565,-1.001,-1.0694,-1.0498,-0.9821,-0.9529,-0.9434,-0.9133,-0.8829,-0.8528,-0.8333,-0.8137,-0.8038,-0.8038,-0.8038,-0.8038,-0.8041,-0.8069,-0.8235,-0.8448,-0.8628,-0.8784,-0.8903,-0.8937,-0.8937,-0.8937,-0.8937,-0.8937,-0.8937,-0.8937,-0.8712,-0.8484,-0.8045,-0.7826,-0.7604,-0.7379,-0.7154,-0.7154,-0.7487,-0.7487,-0.7487,-0.7487,-0.7598,-0.7487,-0.7485,-0.7931,-0.8702,-0.9475,-1.0351,-1.1017,-1.1236,-1.1564,-1.2001,-1.2327,-1.2346,-1.2535,-1.2663,-1.2828,-1.2936,-1.3346,-1.3466,-1.2983,-1.2735,-1.2611,-1.2721,-1.2715,-1.2625,-1.2488,-1.2436,-1.2436,-1.2436,-1.2436,-1.2436,-1.2436,-1.2436,-1.2436,-1.2436,-1.2436,-1.2436,-1.2436,-1.2436,-1.2436,-1.2436,-1.2436,-1.2436,-1.2436,-1.2436,-1.2436,-1.2436,-1.2436,-1.2436,-1.2436,-1.2436,-1.2436,-1.2436,-1.2436,-1.2436,-1.2436,-1.2436,-1.2436,-1.2436,-1.2436,-1.2436,-1.245,-1.2484,-1.2526,-1.0988,-1.0984,-1.0988,-1.0988,-1.0984,-1.0984,-1.0694,-1.0498,-1.0694,-1.0498,-0.9821,-1.0015,-1.0015,-0.9628,-0.9327,-0.9126,-0.8928,-0.8531,-0.8333,-0.8237,-0.8038,-0.8038,-0.8038,-0.8038,-0.8038,-0.8038,-0.8069,-0.8214,-0.8418,-0.856,-0.8689,-0.8913,-0.8937,-0.8937,-0.8937,-0.8937,-0.8937,-0.8826,-0.8602,-0.8377,-0.8156,-0.782,-0.7487,-0.7382,-0.7268,-0.7265,-0.7154,-0.7154,-0.7154,-0.7154,-0.7154,-0.7154,-0.7154,-0.7265,-0.7487,-0.7709,-0.8036,-0.8916,-1.0131,-1.0351,-1.0899,-1.145,-1.1673,-1.19,-1.2242,-1.2531,-1.2677,-1.2876,-1.2895,-1.2895,-1.2777,-1.2537,-1.253,-1.2548,-1.2616,-1.2564,-1.2479,-1.246,-1.2436,-1.2436,-1.2436,-1.2436,-1.2436,-1.2436,-1.2436,-1.2436,-1.2436,-1.2436,-1.2436,-1.2436,-1.2436,-1.2436,-1.2436,-1.2436,-1.2436,-1.2436,-1.2436,-1.2436,-1.2436,-1.2436,-1.2436,-1.2436,-1.2436,-1.2436,-1.2436,-1.2436,-1.2436,-1.2436,-1.2436,-1.2436,-1.2436,-1.2436,-1.2436,-1.2441,-1.2474,-0.9624,-0.9624,-0.9624,-0.9624,-0.9624,-0.9624,-0.9624,-0.9628,-0.9723,-0.9624,-0.9624,-0.9628,-0.9628,-0.9525,-0.9126,-0.8928,-0.8726,-0.8336,-0.8038,-0.8038,-0.8038,-0.8038,-0.8038,-0.8038,-0.8038,-0.8038,-0.8038,-0.8208,-0.8394,-0.852,-0.8648,-0.8923,-0.8937,-0.8937,-0.8937,-0.8937,-0.8937,-0.8826,-0.8488,-0.8156,-0.7931,-0.7601,-0.7379,-0.7268,-0.7154,-0.7154,-0.7154,-0.7154,-0.7154,-0.7154,-0.7154,-0.7154,-0.7154,-0.7265,-0.7265,-0.7376,-0.7485,-0.7817,-0.8806,-0.9357,-0.9908,-1.046,-1.1126,-1.1564,-1.2223,-1.2441,-1.2479,-1.2677,-1.2566,-1.2566,-1.2571,-1.2451,-1.2496,-1.2412,-1.2465,-1.2446,-1.2436,-1.2436,-1.2436,-1.2436,-1.2436,-1.2436,-1.2436,-1.2436,-1.2436,-1.2436,-1.2436,-1.2436,-1.2436,-1.2436,-1.2436,-1.2436,-1.2436,-1.2436,-1.2436,-1.2436,-1.2436,-1.2436,-1.2436,-1.2436,-1.2436,-1.2436,-1.2436,-1.2436,-1.2436,-1.2436,-1.2436,-1.2436,-1.2436,-1.2436,-1.2436,-1.2436,-1.2436,-1.2436,-1.2436,-0.9624,-0.9624,-0.9624,-0.9624,-0.9624,-0.9624,-0.9624,-0.9624,-0.9624,-0.9624,-0.9624,-0.9624,-0.9624,-0.9529,-0.9232,-0.8931,-0.8726,-0.8531,-0.8237,-0.8038,-0.8038,-0.8038,-0.8038,-0.8038,-0.8038,-0.8038,-0.8045,-0.8204,-0.8414,-0.8482,-0.8665,-0.8896,-0.8933,-0.8937,-0.8937,-0.8937,-0.8937,-0.8826,-0.8491,-0.8263,-0.7934,-0.7715,-0.7382,-0.7268,-0.7154,-0.7154,-0.7154,-0.7154,-0.7154,-0.7154,-0.7154,-0.7154,-0.7154,-0.7154,-0.7154,-0.7154,-0.7154,-0.7487,-0.7817,-0.8367,-0.903,-0.9801,-1.0684,-1.1345,-1.2005,-1.2327,-1.2465,-1.2493,-1.2412,-1.2393,-1.2488,-1.246,-1.237,-1.2356,-1.2436,-1.2436,-1.2436,-1.2436,-1.2436,-1.2436,-1.2436,-1.2436,-1.2436,-1.2436,-1.2436,-1.2436,-1.2436,-1.2436,-1.2436,-1.2436,-1.2436,-1.2436,-1.2436,-1.2436,-1.2436,-1.2436,-1.2436,-1.2436,-1.2436,-1.2436,-1.2436,-1.2436,-1.2436,-1.2436,-1.2436,-1.2436,-1.2436,-1.2436,-1.2436,-1.2436,-1.2436,-1.2436,-1.2436,-1.2436,-1.2436,-0.9624,-0.9624,-0.9624,-0.9624,-0.9624,-0.9624,-0.9624,-0.9624,-0.9624,-0.9624,-0.9624,-0.9624,-0.9624,-0.9529,-0.913,-0.8928,-0.873,-0.8333,-0.8137,-0.8038,-0.8038,-0.8038,-0.8038,-0.8038,-0.8038,-0.8038,-0.8055,-0.8194,-0.8452,-0.8479,-0.8672,-0.8845,-0.8933,-0.8937,-0.8937,-0.8937,-0.8826,-0.8712,-0.8491,-0.8156,-0.7934,-0.7601,-0.7268,-0.7265,-0.7154,-0.7154,-0.7154,-0.7154,-0.7154,-0.7154,-0.7154,-0.7154,-0.7154,-0.7154,-0.7154,-0.7154,-0.7154,-0.7154,-0.7154,-0.7598,-0.8039,-0.9034,-1.0249,-1.124,-1.1673,-1.2001,-1.2327,-1.2441,-1.2436,-1.2436,-1.2441,-1.2441,-1.2337,-1.2441,-1.2436,-1.2436,-1.2436,-1.2436,-1.2436,-1.2436,-1.2436,-1.2436,-1.2436,-1.2436,-1.2436,-1.2436,-1.2436,-1.2436,-1.2436,-1.2436,-1.2436,-1.2436,-1.2436,-1.2436,-1.2436,-1.2436,-1.2436,-1.2436,-1.2436,-1.2436,-1.2436,-1.2436,-1.2436,-1.2436,-1.2436,-1.2436,-1.2436,-1.2436,-1.2436,-1.2436,-1.2436,-1.2436,-1.2436,-1.2436,-1.2436,-0.9624,-0.9624,-0.9624,-0.9624,-0.9624,-0.9624,-0.9624,-0.9624,-0.9624,-0.9624,-0.9628,-0.9529,-0.943,-0.9331,-0.8928,-0.8726,-0.8528,-0.8237,-0.8038,-0.8038,-0.8038,-0.8038,-0.8038,-0.8038,-0.8038,-0.8038,-0.8065,-0.8194,-0.8472,-0.8479,-0.8665,-0.8849,-0.8937,-0.8937,-0.8937,-0.8823,-0.8712,-0.8491,-0.8159,-0.7937,-0.7823,-0.749,-0.7265,-0.7154,-0.7154,-0.7154,-0.7154,-0.7154,-0.7154,-0.7154,-0.7154,-0.7154,-0.7154,-0.7154,-0.7154,-0.7154,-0.7154,-0.7154,-0.7154,-0.7265,-0.7598,-0.8595,-0.9364,-1.0355,-1.1122,-1.1673,-1.1891,-1.2436,-1.2436,-1.2436,-1.2436,-1.2436,-1.2436,-1.2436,-1.2436,-1.2436,-1.2436,-1.2436,-1.2436,-1.2436,-1.2436,-1.2436,-1.2436,-1.2436,-1.2436,-1.2436,-1.2436,-1.2436,-1.2436,-1.2436,-1.2436,-1.2436,-1.2436,-1.2436,-1.2436,-1.2436,-1.2436,-1.2436,-1.2436,-1.2436,-1.2436,-1.2436,-1.2436,-1.2436,-1.2436,-1.2436,-1.2436,-1.2436,-1.2436,-1.2436,-1.2436,-1.2436,-1.2436,-1.2436,-1.2436,-0.9624,-0.9624,-0.9624,-0.9624,-0.9624,-0.9624,-0.9624,-0.9624,-0.9624,-0.9624,-0.9624,-0.9331,-0.9232,-0.9133,-0.8733,-0.8528,-0.8432,-0.8137,-0.8038,-0.8038,-0.8038,-0.8038,-0.8038,-0.8038,-0.8038,-0.8038,-0.8065,-0.8194,-0.8482,-0.8482,-0.8659,-0.8852,-0.8937,-0.8937,-0.8826,-0.8598,-0.8374,-0.8045,-0.7826,-0.7715,-0.7604,-0.7382,-0.7265,-0.7154,-0.7154,-0.7154,-0.7154,-0.7154,-0.7154,-0.7154,-0.7154,-0.7154,-0.7154,-0.7154,-0.7154,-0.7154,-0.7154,-0.7154,-0.7154,-0.7154,-0.7598,-0.8152,-0.8813,-0.9475,-1.0574,-1.1236,-1.1459,-1.2001,-1.2327,-1.2327,-1.2436,-1.2436,-1.2436,-1.2436,-1.2436,-1.2436,-1.2436,-1.2436,-1.2436,-1.2436,-1.2436,-1.2436,-1.2436,-1.2436,-1.2436,-1.2436,-1.2436,-1.2436,-1.2436,-1.2436,-1.2436,-1.2436,-1.2436,-1.2436,-1.2436,-1.2436,-1.2436,-1.2436,-1.2436,-1.2436,-1.2436,-1.2436,-1.2436,-1.2436,-1.2436,-1.2436,-1.2436,-1.2436,-1.2436,-1.2436,-1.2436,-1.2436,-1.2436,-1.2436,-1.2436,-0.9624,-0.9624,-0.9624,-0.9624,-0.9624,-0.9624,-0.9624,-0.9624,-0.9624,-0.9624,-0.9624,-0.9529,-0.9335,-0.9133,-0.8829,-0.8528,-0.8333,-0.8137,-0.8038,-0.8038,-0.8038,-0.8038,-0.8038,-0.8038,-0.8038,-0.8038,-0.8062,-0.8194,-0.8482,-0.8482,-0.8659,-0.8862,-0.8826,-0.8823,-0.8709,-0.8484,-0.8374,-0.8045,-0.7715,-0.7607,-0.7607,-0.7379,-0.7154,-0.7154,-0.7154,-0.7154,-0.7154,-0.7154,-0.7154,-0.7154,-0.7154,-0.7154,-0.7154,-0.7154,-0.7154,-0.7154,-0.7154,-0.7154,-0.7154,-0.7265,-0.7265,-0.7709,-0.8152,-0.8702,-0.9364,-1.0574,-1.1126,-1.1568,-1.2114,-1.2223,-1.2436,-1.2436,-1.2436,-1.2436,-1.2436,-1.2436,-1.2436,-1.2436,-1.2436,-1.2436,-1.2436,-1.2436,-1.2436,-1.2436,-1.2436,-1.2436,-1.2436,-1.2436,-1.2436,-1.2436,-1.2436,-1.2436,-1.2436,-1.2436,-1.2436,-1.2436,-1.2436,-1.2436,-1.2436,-1.2436,-1.2436,-1.2436,-1.2436,-1.2436,-1.2436,-1.2436,-1.2436,-1.2436,-1.2436,-1.2436,-1.2436,-1.2436,-1.2436,-1.2436,-1.2436,-0.9624,-0.9624,-0.9624,-0.9624,-0.9624,-0.9624,-0.9624,-0.9624,-0.9624,-0.9624,-0.9525,-0.9426,-0.9229,-0.8928,-0.873,-0.8432,-0.8233,-0.8137,-0.8038,-0.8038,-0.8038,-0.8038,-0.8038,-0.8038,-0.8038,-0.8038,-0.8069,-0.8191,-0.8469,-0.8482,-0.8545,-0.8752,-0.8712,-0.8488,-0.8374,-0.8156,-0.8042,-0.7712,-0.749,-0.7493,-0.7382,-0.7268,-0.7154,-0.7154,-0.7154,-0.7154,-0.7154,-0.7154,-0.7154,-0.7154,-0.7154,-0.7154,-0.7154,-0.7154,-0.7154,-0.7154,-0.7154,-0.7154,-0.7154,-0.7154,-0.7265,-0.7265,-0.7817,-0.8149,-0.8484,-0.9475,-1.0704,-1.1371,-1.1791,-1.2123,-1.2346,-1.2346,-1.2327,-1.2327,-1.2436,-1.2436,-1.2436,-1.2436,-1.2436,-1.2436,-1.2436,-1.2436,-1.2436,-1.2436,-1.2436,-1.2436,-1.2436,-1.2436,-1.2436,-1.2436,-1.2436,-1.2436,-1.2436,-1.2436,-1.2436,-1.2436,-1.2436,-1.2436,-1.2436,-1.2436,-1.2436,-1.2436,-1.2436,-1.2436,-1.2436,-1.2436,-1.2436,-1.2436,-1.2436,-1.2436,-1.2436,-1.2436,-1.2436,-1.2436,-1.2436,-0.9624,-0.9624,-0.9624,-0.9624,-0.9624,-0.9624,-0.9624,-0.9628,-0.9628,-0.9529,-0.9529,-0.9027,-0.8825,-0.8726,-0.8237,-0.8041,-0.8041,-0.8038,-0.8038,-0.8038,-0.8038,-0.8038,-0.8038,-0.8038,-0.8038,-0.8038,-0.8069,-0.817,-0.8445,-0.8526,-0.8575,-0.8536,-0.8595,-0.8266,-0.7937,-0.7823,-0.7712,-0.749,-0.7265,-0.7268,-0.7268,-0.7268,-0.7154,-0.7154,-0.7154,-0.7154,-0.7154,-0.7154,-0.7154,-0.7154,-0.7154,-0.7154,-0.7154,-0.7154,-0.7154,-0.7154,-0.7154,-0.7154,-0.7154,-0.7154,-0.7154,-0.7154,-0.7265,-0.7709,-0.8263,-0.8706,-0.9713,-1.0716,-1.1257,-1.1713,-1.216,-1.2242,-1.2219,-1.2327,-1.2327,-1.2436,-1.2436,-1.2436,-1.2436,-1.2436,-1.2436,-1.2436,-1.2436,-1.2436,-1.2436,-1.2436,-1.2436,-1.2436,-1.2436,-1.2436,-1.2436,-1.2436,-1.2436,-1.2436,-1.2436,-1.2436,-1.2436,-1.2436,-1.2436,-1.2436,-1.2436,-1.2436,-1.2436,-1.2436,-1.2436,-1.2436,-1.2436,-1.2436,-1.2436,-1.2436,-1.2436,-1.2436,-1.2436,-1.2436,-1.2436,-0.9624,-0.9624,-0.9624,-0.9624,-0.9624,-0.9624,-0.9529,-0.9335,-0.9335,-0.9229,-0.9027,-0.8829,-0.8726,-0.8528,-0.8333,-0.8137,-0.8038,-0.8038,-0.8038,-0.8038,-0.8038,-0.8038,-0.8038,-0.8038,-0.8038,-0.8038,-0.8069,-0.8143,-0.835,-0.8496,-0.8605,-0.8566,-0.8481,-0.8048,-0.7826,-0.7715,-0.7493,-0.7268,-0.7154,-0.7154,-0.7154,-0.7154,-0.7154,-0.7154,-0.7154,-0.7154,-0.7154,-0.7154,-0.7154,-0.7154,-0.7154,-0.7154,-0.7154,-0.7154,-0.7154,-0.7154,-0.7154,-0.7154,-0.7154,-0.7154,-0.7154,-0.7154,-0.7154,-0.7265,-0.7709,-0.8156,-0.8937,-0.9603,-1.0484,-1.1038,-1.1709,-1.1914,-1.2114,-1.2327,-1.2332,-1.2436,-1.2436,-1.2436,-1.2436,-1.2436,-1.2436,-1.2436,-1.2436,-1.2436,-1.2436,-1.2436,-1.2436,-1.2436,-1.2436,-1.2436,-1.2436,-1.2436,-1.2436,-1.2436,-1.2436,-1.2436,-1.2436,-1.2436,-1.2436,-1.2436,-1.2436,-1.2436,-1.2436,-1.2436,-1.2436,-1.2436,-1.2436,-1.2436,-1.2436,-1.2436,-1.2436,-1.2436,-1.2436,-1.2436,-1.2436,-0.9624,-0.9624,-0.9624,-0.9624,-0.9624,-0.9624,-0.9426,-0.9133,-0.9137,-0.9034,-0.8825,-0.873,-0.8528,-0.8432,-0.8237,-0.8137,-0.8038,-0.8038,-0.8038,-0.8038,-0.8038,-0.8038,-0.8038,-0.8038,-0.8038,-0.8038,-0.8062,-0.8126,-0.8313,-0.8554,-0.8563,-0.8254,-0.8263,-0.7931,-0.7601,-0.7382,-0.7379,-0.7268,-0.7154,-0.7154,-0.7154,-0.7154,-0.7154,-0.7154,-0.7154,-0.7154,-0.7154,-0.7154,-0.7154,-0.7154,-0.7154,-0.7154,-0.7154,-0.7154,-0.7154,-0.7154,-0.7154,-0.7154,-0.7154,-0.7154,-0.7154,-0.7154,-0.7154,-0.7265,-0.7376,-0.7712,-0.8045,-0.8377,-0.9364,-1.0245,-1.1025,-1.1695,-1.2014,-1.2332,-1.2332,-1.2436,-1.2436,-1.2436,-1.2436,-1.2436,-1.2436,-1.2436,-1.2436,-1.2436,-1.2436,-1.2436,-1.2436,-1.2436,-1.2436,-1.2436,-1.2436,-1.2436,-1.2436,-1.2436,-1.245,-1.2479,-1.2493,-1.2484,-1.2436,-1.2436,-1.2441,-1.2446,-1.245,-1.2446,-1.2436,-1.2436,-1.2436,-1.2436,-1.2436,-1.2436,-1.2436,-1.2436,-1.2436,-1.2436,-1.2436,-0.9612,-0.9624,-0.9624,-0.9628,-0.9529,-0.9529,-0.9229,-0.8829,-0.8931,-0.8931,-0.8726,-0.8531,-0.8333,-0.8233,-0.8137,-0.8038,-0.8038,-0.8038,-0.8038,-0.8038,-0.8038,-0.8038,-0.8038,-0.8038,-0.8038,-0.8038,-0.8069,-0.814,-0.8326,-0.8537,-0.8409,-0.8033,-0.8045,-0.7823,-0.7379,-0.7268,-0.7268,-0.7265,-0.7154,-0.7154,-0.7154,-0.7154,-0.7154,-0.7154,-0.7154,-0.7154,-0.7154,-0.7154,-0.7154,-0.7154,-0.7154,-0.7154,-0.7154,-0.7154,-0.7154,-0.7154,-0.7154,-0.7154,-0.7154,-0.7154,-0.7154,-0.7154,-0.7154,-0.7154,-0.7265,-0.7376,-0.7487,-0.7709,-0.8589,-0.9364,-1.0147,-1.0582,-1.1017,-1.1564,-1.1891,-1.211,-1.2327,-1.2327,-1.2436,-1.2436,-1.2436,-1.2436,-1.2436,-1.2436,-1.2436,-1.2436,-1.2436,-1.2436,-1.2436,-1.2436,-1.245,-1.2455,-1.2521,-1.2545,-1.2564,-1.2587,-1.2578,-1.255,-1.2535,-1.2569,-1.2663,-1.2587,-1.2469,-1.2455,-1.2436,-1.2436,-1.2436,-1.2436,-1.2436,-1.2436,-1.2436,-1.2436,-1.2436,-1.2436,-1.2436,-0.9502,-0.9624,-0.9624,-0.9529,-0.9335,-0.9331,-0.9031,-0.8531,-0.8531,-0.8432,-0.8233,-0.8134,-0.8137,-0.8137,-0.8038,-0.8038,-0.8038,-0.8038,-0.8038,-0.8038,-0.8038,-0.8038,-0.8038,-0.8038,-0.8038,-0.8038,-0.8075,-0.8163,-0.8367,-0.8414,-0.835,-0.8014,-0.7931,-0.7712,-0.7268,-0.7154,-0.7154,-0.7154,-0.7154,-0.7154,-0.7154,-0.7154,-0.7154,-0.7154,-0.7154,-0.7154,-0.7154,-0.7154,-0.7154,-0.7154,-0.7154,-0.7154,-0.7154,-0.7154,-0.7154,-0.7154,-0.7154,-0.7154,-0.7154,-0.7154,-0.7154,-0.7154,-0.7154,-0.7154,-0.7154,-0.7154,-0.7265,-0.7374,-0.7817,-0.8595,-0.9147,-0.9585,-1.0131,-1.0903,-1.1564,-1.2001,-1.2327,-1.2327,-1.2436,-1.2436,-1.2436,-1.2436,-1.2436,-1.2436,-1.2436,-1.2436,-1.2436,-1.2436,-1.2436,-1.2441,-1.2479,-1.2512,-1.288,-1.2923,-1.2822,-1.2739,-1.2753,-1.281,-1.2833,-1.2866,-1.2885,-1.2781,-1.2658,-1.2502,-1.2436,-1.2479,-1.2488,-1.2436,-1.2436,-1.2436,-1.2327,-1.2327,-1.2327,-1.2327,-1.2327,-0.9417,-0.951,-0.9596,-0.943,-0.9236,-0.9137,-0.8935,-0.8432,-0.8432,-0.8233,-0.8038,-0.8038,-0.8038,-0.8038,-0.8038,-0.8038,-0.8038,-0.8038,-0.8038,-0.8038,-0.8038,-0.8038,-0.8038,-0.8038,-0.8038,-0.8038,-0.8055,-0.816,-0.837,-0.8482,-0.8298,-0.8053,-0.7886,-0.7712,-0.7265,-0.7154,-0.7154,-0.7154,-0.7154,-0.7154,-0.7154,-0.7154,-0.7154,-0.7154,-0.7154,-0.7154,-0.7154,-0.7154,-0.7154,-0.7154,-0.7154,-0.7154,-0.7154,-0.7154,-0.7154,-0.7154,-0.7154,-0.7154,-0.7154,-0.7154,-0.7154,-0.7154,-0.7154,-0.7154,-0.7154,-0.7154,-0.7154,-0.7376,-0.7931,-0.8709,-0.8806,-0.913,-1.0241,-1.1126,-1.1673,-1.2223,-1.2327,-1.2436,-1.2436,-1.2436,-1.2436,-1.2436,-1.2436,-1.2436,-1.2436,-1.2436,-1.2436,-1.2436,-1.2436,-1.2384,-1.2517,-1.2602,-1.2995,-1.3101,-1.3017,-1.2942,-1.2975,-1.3041,-1.3117,-1.3041,-1.2994,-1.2942,-1.2852,-1.2724,-1.263,-1.2606,-1.2592,-1.2526,-1.245,-1.2436,-1.2327,-1.2327,-1.2327,-1.2219,-1.211,-0.9307,-0.9376,-0.9555,-0.943,-0.9133,-0.9137,-0.8832,-0.8432,-0.8333,-0.8237,-0.8038,-0.8038,-0.8038,-0.8038,-0.8038,-0.8038,-0.8038,-0.8038,-0.8038,-0.8038,-0.8038,-0.8038,-0.8038,-0.8038,-0.8038,-0.8038,-0.8045,-0.8143,-0.8292,-0.8314,-0.8136,-0.7951,-0.7731,-0.7712,-0.7376,-0.7154,-0.7154,-0.7154,-0.7154,-0.7154,-0.7154,-0.7154,-0.7154,-0.7154,-0.7154,-0.7154,-0.7154,-0.7154,-0.7154,-0.7154,-0.7154,-0.7154,-0.7154,-0.7154,-0.7154,-0.7154,-0.7154,-0.7154,-0.7154,-0.7154,-0.7154,-0.7154,-0.7154,-0.7154,-0.7154,-0.7154,-0.7154,-0.7487,-0.8042,-0.826,-0.8361,-0.8689,-0.9798,-1.0907,-1.1455,-1.2223,-1.2332,-1.2327,-1.2327,-1.2327,-1.2327,-1.2327,-1.2327,-1.2327,-1.2327,-1.2327,-1.2436,-1.2436,-1.2356,-1.2459,-1.2529,-1.2772,-1.3173,-1.3146,-1.3098,-1.3178,-1.3114,-1.3268,-1.3315,-1.3202,-1.3117,-1.3112,-1.3079,-1.2994,-1.2913,-1.2814,-1.2706,-1.2625,-1.255,-1.236,-1.2327,-1.2327,-1.1669,-1.1669,-1.1669,-0.9096,-0.9368,-0.9551,-0.9324,-0.8928,-0.8928,-0.8531,-0.8137,-0.8137,-0.8038,-0.8038,-0.8038,-0.8038,-0.8038,-0.8038,-0.8038,-0.8038,-0.8038,-0.8038,-0.8038,-0.8038,-0.8038,-0.8038,-0.8038,-0.8038,-0.7939,-0.7955,-0.8133,-0.8143,-0.8086,-0.8024,-0.7825,-0.7648,-0.7487,-0.7265,-0.7154,-0.7154,-0.7154,-0.7154,-0.7154,-0.7154,-0.7154,-0.7154,-0.7154,-0.7154,-0.7154,-0.7154,-0.7154,-0.7154,-0.7154,-0.7154,-0.7154,-0.7154,-0.7154,-0.7154,-0.7154,-0.7154,-0.7154,-0.7154,-0.7154,-0.7154,-0.7154,-0.7154,-0.7154,-0.7154,-0.7154,-0.7154,-0.7154,-0.7598,-0.7598,-0.7703,-0.7814,-0.8592,-0.9695,-1.0468,-1.1455,-1.2005,-1.211,-1.2219,-1.2219,-1.2219,-1.2219,-1.2219,-1.2219,-1.2327,-1.2327,-1.2436,-1.2332,-1.2237,-1.2372,-1.2409,-1.2692,-1.2978,-1.3355,-1.3334,-1.3212,-1.3277,-1.3419,-1.34,-1.3062,-1.2998,-1.3329,-1.3282,-1.2984,-1.2978,-1.2975,-1.2866,-1.2455,-1.2409,-1.222,-1.236,-1.2219,-1.145,-1.1008,-1.1008]},{"header":{"parameterUnit":"m.s-1","parameterCategory":1,"la1":31.0,"la2":29.5877,"lo1":-88.7671,"lo2":-86.6584,"dy":0.0162,"dx":0.0185,"nx":115,"ny":88,"refTime":"2023-07-17T12:00:00:Z","depth":0,"parameterNumber":3,"parameterNumberName":"V-component_of_WINDS"},"data":[0.0,0.0,0.0,0.0,0.0,0.0,0.0,0.0,0.0,0.0,0.0,0.0,0.0,0.0,0.0,0.0,0.0,0.0,0.0,0.0,0.0,0.0,0.0,0.0,0.0,0.0,0.0,0.0,0.0,0.0,0.0,0.0,0.0,0.0,0.0,0.0,0.0,0.0,0.0,0.0,0.0,0.0,0.0,0.0,0.0,0.0,0.0,0.0,0.0,0.0,0.0,0.0,0.0,0.0,0.0,0.0,0.0,0.0,0.0,0.0,0.0,0.0,0.0,0.0,0.0,0.0,0.0,0.0,0.0,0.0,0.0,0.0,0.0,0.0,0.0,0.0,0.0,0.0,0.0,0.0,0.0,0.0,0.0,0.0,0.0,0.0,0.0,0.0,0.0,0.0,0.0,0.0,0.0,0.0,0.0,0.0,0.0,0.0,0.0,0.0,0.0,0.0,0.0,0.0,0.0,0.0,0.0,0.0,0.0,0.0,0.0,0.0,0.0,0.0,0.0,0.0,0.0,0.0,0.0,0.0,0.0,0.0,0.0,0.0,0.0,0.0,0.0,0.0,0.0,0.0,0.0,0.0,0.0,0.0,0.0,0.0,0.0,0.0,0.0,0.0,0.0,0.0,0.0,0.0,0.0,0.0,0.0,0.0,0.0,0.0,0.0,0.0,0.0,0.0,0.0,0.0,0.0,0.0,0.0,0.0,0.0,0.0,0.0,0.0,0.0,0.0,0.0,0.0,0.0,0.0,0.0,0.0,0.0,0.0,0.0,0.0,0.0,0.0,0.0,0.0,0.0,0.0,0.0,0.0,0.0,0.0,0.0,0.0,0.0,0.0,0.0,0.0,0.0,0.0,0.0,0.0,0.0,0.0,0.0,0.0,0.0,0.0,0.0,0.0,0.0,0.0,0.0,0.0,0.0,0.0,0.0,0.0,0.0,0.0,0.0,0.0,0.0,0.0,0.0,0.0,0.0,0.0,0.0,0.0,0.0,0.0,0.0,0.0,0.0,0.0,0.0,0.0,0.0,0.0,0.0,0.0,0.0,0.0,0.0,0.0,0.0,0.0,0.0,0.0,0.0,0.0,0.0,0.0,0.0,0.0,0.0,0.0,0.0,0.0,0.0,0.0,0.0,0.0,0.0,0.0,0.0,0.0,0.0,0.0,0.0,0.0,0.0,0.0,0.0,0.0,0.0,0.0,0.0,0.0,0.0,0.0,0.0,0.0,0.0,0.0,0.0,0.0,0.0,0.0,0.0,0.0,0.0,0.0,0.0,0.0,0.0,0.0,0.0,0.0,0.0,0.0,0.0,0.0,0.0,0.0,0.0,0.0,0.0,0.0,0.0,0.0,0.0,0.0,0.0,0.0,0.0,0.0,0.0,0.0,0.0,0.0,0.0,0.0,0.0,0.0,0.0,0.0,0.0,0.0,0.0,0.0,0.0,0.0,0.0,0.0,0.0,0.0,0.0,0.0,0.0,0.0,0.0,0.0,0.0,0.0,0.0,0.0,0.0,0.0,0.0,0.0,0.0,0.0,0.0,0.0,0.0,0.0,0.0,0.0,0.0,0.0,0.0,0.0,0.0,0.0,0.0,0.0,0.0,0.0,0.0,0.0,0.0,0.0,0.0,0.0,0.0,0.0,0.0,0.0,0.0,0.0,0.0,0.0,0.0,0.0,0.0,0.0,0.0,0.0,0.0,0.0,0.0,0.0,0.0,0.0,0.0,0.0,0.0,0.0,0.0,0.0,0.0,0.0,0.0,0.0,0.0,0.0,0.0,0.0,0.0,0.0,0.0,0.0,0.0,0.0,0.0,0.0,0.0,0.0,0.0,0.0,0.0,0.0,0.0,0.0,0.0,0.0,0.0,0.0,0.0,0.0,0.0,0.0,0.0,0.0,0.0,0.0,0.0,0.0,0.0,0.0,0.0,0.0,0.0,0.0,0.0,0.0,0.0,0.0,0.0,0.0,0.0,0.0,0.0,0.0,0.0,0.0,0.0,0.0,0.0,0.0,0.0,0.0,0.0,0.0,0.0,0.0,0.0,0.0,0.0,0.0,0.0,0.0,0.0,0.0,0.0,0.0,0.0,0.0,0.0,0.0,0.0,0.0,0.0,0.0,0.0,0.0,0.0,0.0,0.0,0.0,0.0,0.0,0.0,0.0,0.0,0.0,0.0,0.0,0.0,0.0,0.0,0.0,0.0,0.0,0.0,0.0,0.0,0.0,0.0,0.0,0.0,0.0,0.0,0.0,0.0,0.0,0.0,0.0,0.0,0.0,0.0,0.0,0.0,0.0,0.0,0.0,0.0,0.0,0.0,0.0,0.0,0.0,0.0,0.0,0.0,0.0,0.0,0.0,0.0,0.0,0.0,0.0,0.0,0.0,0.0,0.0,0.0,0.0,0.0,0.0,0.0,0.0,0.0,0.0,0.0,0.0,0.0,0.0,0.0,0.0,0.0,0.0,0.0,0.0,0.0,0.0,0.0,0.0,0.0,0.0,0.0,0.0,0.0,0.0,0.0,0.0,0.0,0.0,0.0,0.0,0.0,0.0,0.0,0.0,0.0,0.0,0.0,0.0,0.0,0.0,0.0,0.0,0.0,0.0,0.0,0.0,0.0,0.0,0.0,0.0,0.0,0.0,0.0,0.0,0.0,0.0,0.0,0.0,0.0,0.0,0.0,0.0,0.0,0.0,0.0,0.0,0.0,0.0,0.0,0.0,0.0,0.0,0.0,0.0,0.0,0.0,0.0,0.0,0.0,0.0,0.0,0.0,0.0,0.0,0.0,0.0,0.0,0.0,0.0,0.0,0.0,0.0,0.0,0.0,0.0,0.0,0.0,0.0,0.0,0.0,0.0,0.0,0.0,0.0,0.0,0.0,0.0,0.0,0.0,0.0,0.0,0.0,0.0,0.0,0.0,0.0,0.0,0.0,0.0,0.0,0.0,0.0,0.0,0.0,0.0,0.0,0.0,0.0,0.0,0.0,0.0,0.0,0.0,0.0,0.0,0.0,0.0,0.0,0.0,0.0,0.0,0.0,0.0,0.0,0.0,0.0,0.0,0.0,0.0,0.0,0.0,0.0,0.0,0.0,0.0,0.0,0.0,0.0,0.0,0.0,0.0,0.0,0.0,0.0,0.0,0.0,0.0,0.0,0.0,0.0,0.0,0.0,0.0,0.0,0.0,0.0,0.0,0.0,0.0,0.0,0.0,0.0,0.0,0.0,0.0,0.0,0.0,0.0,0.0,0.0,0.0,0.0,0.0,0.0,0.0,0.0,0.0,0.0,0.0,0.0,0.0,0.0,0.0,0.0,0.0,0.0,0.0,0.0,0.0,0.0,0.0,0.0,0.0,0.0,0.0,0.0,0.0,0.0,0.0,0.0,0.0,0.0,0.0,0.0,0.0,0.0,0.0,0.0,0.0,0.0,0.0,0.0,0.0,0.0,0.0,0.0,0.0,0.0,0.0,0.0,0.0,0.0,0.0,0.0,0.0,0.0,0.0,0.0,0.0,0.0,0.0,0.0,0.0,0.0,0.0,0.0,0.0,0.0,0.0,0.0,0.0,0.0,0.0,0.0,0.0,0.0,0.0,0.0,0.0,0.0,0.0,0.0,0.0,0.0,0.0,0.0,0.0,0.0,0.0,0.0,0.0,0.0,0.0,0.0,0.0,0.0,0.0,0.0,0.0,0.0,0.0,0.0,0.0,0.0,0.0,0.0,0.0,0.0,0.0,0.0,0.0,0.0,0.0,0.0,0.0,0.0,0.0,0.0,0.0,0.0,0.0,0.0,0.0,0.0,0.0,0.0,0.0,0.0,0.0,0.0,0.0,0.0,0.0,0.0,0.0,0.0,0.0,0.0,0.0,0.0,0.0,0.0,0.0,0.0,0.0,0.0,0.0,0.0,0.0,0.0,0.0,0.0,0.0,0.0,0.0,0.0,0.0,0.0,0.0,0.0,0.0,0.0,0.0,0.0,0.0,0.0,0.0,0.0,0.0,0.0,0.0,0.0,0.0,0.0,0.0,0.0,0.0,0.0,0.0,0.0,0.0,0.0,0.0,0.0,0.0,0.0,0.0,0.0,0.0,0.0,0.0,0.0,0.0,0.0,0.0,0.0,0.0,0.0,0.0,0.0,0.0,0.0,0.0,0.0,0.0,0.0,0.0,0.0,0.0,0.0,0.0,0.0,0.0,0.0,0.0,0.0,0.0,0.0,0.0,0.0,0.0,0.0,0.0,0.0,0.0,0.0,0.0,0.0,0.0,0.0,-3.4467,0.0,0.0,0.0,0.0,0.0,0.0,0.0,0.0,0.0,0.0,0.0,0.0,0.0,0.0,0.0,0.0,0.0,0.0,0.0,0.0,0.0,0.0,0.0,0.0,0.0,0.0,0.0,0.0,0.0,0.0,0.0,0.0,0.0,0.0,0.0,0.0,0.0,0.0,0.0,0.0,0.0,0.0,0.0,0.0,0.0,0.0,0.0,0.0,0.0,0.0,0.0,0.0,0.0,0.0,0.0,0.0,0.0,0.0,0.0,0.0,0.0,0.0,0.0,0.0,0.0,0.0,0.0,0.0,0.0,0.0,0.0,0.0,0.0,0.0,0.0,0.0,0.0,0.0,0.0,0.0,0.0,0.0,0.0,0.0,0.0,0.0,0.0,0.0,0.0,0.0,0.0,0.0,0.0,0.0,0.0,0.0,0.0,0.0,0.0,0.0,0.0,0.0,0.0,0.0,0.0,0.0,0.0,0.0,0.0,0.0,-3.584,-3.5852,-3.5811,-3.5609,-3.5212,0.0,0.0,0.0,0.0,0.0,0.0,0.0,0.0,0.0,0.0,0.0,0.0,0.0,0.0,0.0,0.0,0.0,0.0,0.0,0.0,0.0,0.0,0.0,0.0,0.0,0.0,0.0,0.0,0.0,0.0,0.0,0.0,0.0,0.0,0.0,0.0,0.0,0.0,0.0,0.0,0.0,0.0,0.0,0.0,0.0,0.0,0.0,0.0,0.0,0.0,0.0,0.0,0.0,0.0,0.0,0.0,0.0,0.0,0.0,0.0,0.0,0.0,0.0,0.0,0.0,0.0,0.0,0.0,0.0,0.0,0.0,0.0,0.0,0.0,0.0,0.0,0.0,0.0,0.0,0.0,0.0,0.0,0.0,0.0,0.0,0.0,0.0,0.0,0.0,0.0,0.0,0.0,0.0,0.0,0.0,0.0,0.0,0.0,0.0,0.0,0.0,0.0,0.0,0.0,0.0,0.0,0.0,0.0,0.0,0.0,0.0,0.0,-3.5689,-3.5649,-3.5649,0.0,0.0,0.0,0.0,0.0,0.0,0.0,0.0,0.0,0.0,0.0,0.0,0.0,0.0,0.0,0.0,0.0,0.0,0.0,0.0,0.0,0.0,0.0,0.0,0.0,0.0,0.0,0.0,0.0,0.0,0.0,0.0,0.0,0.0,0.0,0.0,0.0,0.0,0.0,0.0,0.0,0.0,0.0,0.0,0.0,0.0,0.0,0.0,0.0,0.0,0.0,0.0,0.0,0.0,0.0,0.0,0.0,0.0,0.0,0.0,0.0,0.0,0.0,0.0,0.0,0.0,0.0,0.0,0.0,0.0,0.0,0.0,0.0,0.0,0.0,0.0,0.0,0.0,0.0,0.0,0.0,0.0,0.0,0.0,0.0,0.0,0.0,0.0,0.0,0.0,0.0,0.0,0.0,0.0,0.0,0.0,0.0,0.0,0.0,0.0,0.0,0.0,0.0,0.0,0.0,0.0,0.0,0.0,0.0,0.0,-3.5596,-3.5531,-3.5519,0.0,-3.5519,0.0,0.0,0.0,0.0,0.0,0.0,0.0,0.0,0.0,0.0,0.0,0.0,0.0,0.0,0.0,0.0,0.0,0.0,0.0,0.0,0.0,0.0,0.0,0.0,0.0,0.0,0.0,0.0,0.0,0.0,0.0,0.0,0.0,0.0,0.0,0.0,0.0,0.0,0.0,0.0,0.0,0.0,0.0,0.0,0.0,0.0,0.0,0.0,0.0,0.0,0.0,0.0,0.0,0.0,0.0,0.0,0.0,0.0,0.0,0.0,0.0,0.0,0.0,0.0,0.0,0.0,0.0,0.0,0.0,0.0,0.0,0.0,0.0,0.0,0.0,0.0,0.0,0.0,0.0,0.0,0.0,0.0,0.0,0.0,0.0,0.0,0.0,0.0,0.0,0.0,0.0,0.0,0.0,0.0,0.0,0.0,0.0,0.0,0.0,0.0,0.0,0.0,0.0,0.0,0.0,0.0,0.0,0.0,0.0,0.0,-3.5411,-3.5383,-3.534,-3.5311,0.0,0.0,0.0,0.0,0.0,0.0,0.0,0.0,0.0,0.0,0.0,0.0,0.0,0.0,0.0,0.0,0.0,0.0,0.0,0.0,0.0,0.0,0.0,0.0,0.0,0.0,0.0,0.0,0.0,0.0,0.0,0.0,0.0,0.0,0.0,0.0,0.0,0.0,0.0,0.0,0.0,0.0,0.0,0.0,0.0,0.0,0.0,0.0,0.0,0.0,0.0,0.0,0.0,0.0,0.0,0.0,0.0,0.0,0.0,0.0,0.0,0.0,0.0,0.0,0.0,0.0,0.0,0.0,0.0,0.0,0.0,0.0,0.0,0.0,0.0,0.0,0.0,0.0,0.0,0.0,0.0,0.0,0.0,0.0,0.0,0.0,0.0,0.0,0.0,0.0,0.0,0.0,0.0,0.0,0.0,0.0,0.0,0.0,0.0,0.0,0.0,0.0,0.0,0.0,0.0,0.0,0.0,0.0,0.0,0.0,-3.53,-3.5203,-3.5152,-3.5141,-3.5107,-3.5034,0.0,0.0,0.0,0.0,0.0,0.0,0.0,0.0,0.0,0.0,0.0,0.0,0.0,0.0,0.0,0.0,0.0,0.0,0.0,0.0,0.0,0.0,0.0,0.0,0.0,0.0,0.0,0.0,0.0,0.0,0.0,0.0,0.0,0.0,0.0,0.0,0.0,0.0,0.0,0.0,0.0,0.0,0.0,0.0,0.0,0.0,0.0,0.0,0.0,0.0,0.0,0.0,0.0,0.0,0.0,0.0,0.0,0.0,0.0,0.0,0.0,0.0,0.0,0.0,0.0,0.0,0.0,0.0,0.0,0.0,0.0,0.0,0.0,0.0,0.0,0.0,0.0,0.0,0.0,0.0,0.0,0.0,0.0,0.0,0.0,0.0,0.0,0.0,0.0,0.0,0.0,0.0,0.0,0.0,0.0,0.0,0.0,0.0,0.0,0.0,0.0,0.0,0.0,0.0,0.0,0.0,0.0,0.0,-3.5207,-3.5143,-3.502,-3.4851,-3.487,-3.4908,0.0,0.0,0.0,0.0,0.0,0.0,0.0,0.0,0.0,0.0,0.0,0.0,0.0,0.0,0.0,0.0,0.0,0.0,0.0,0.0,0.0,0.0,0.0,0.0,0.0,0.0,0.0,0.0,0.0,0.0,0.0,0.0,0.0,0.0,0.0,0.0,0.0,0.0,0.0,0.0,0.0,0.0,0.0,0.0,0.0,0.0,0.0,0.0,0.0,0.0,0.0,0.0,0.0,0.0,0.0,0.0,0.0,0.0,0.0,0.0,0.0,0.0,0.0,0.0,0.0,0.0,0.0,0.0,0.0,0.0,0.0,0.0,0.0,0.0,0.0,0.0,0.0,0.0,0.0,0.0,0.0,0.0,0.0,0.0,0.0,0.0,0.0,0.0,0.0,0.0,0.0,0.0,0.0,0.0,0.0,0.0,0.0,0.0,0.0,0.0,0.0,0.0,0.0,0.0,0.0,0.0,0.0,0.0,0.0,-3.5073,-3.4965,-3.479,-3.4564,-3.4649,-3.4689,0.0,0.0,0.0,0.0,0.0,0.0,0.0,0.0,0.0,0.0,0.0,0.0,0.0,0.0,0.0,0.0,0.0,0.0,0.0,0.0,0.0,0.0,0.0,0.0,0.0,0.0,0.0,0.0,0.0,0.0,0.0,0.0,0.0,0.0,0.0,0.0,0.0,0.0,0.0,0.0,0.0,0.0,0.0,0.0,0.0,0.0,0.0,0.0,0.0,0.0,0.0,0.0,0.0,0.0,0.0,0.0,0.0,0.0,0.0,0.0,0.0,0.0,0.0,0.0,0.0,0.0,0.0,0.0,0.0,0.0,0.0,0.0,0.0,0.0,0.0,0.0,0.0,0.0,0.0,0.0,0.0,0.0,0.0,0.0,0.0,0.0,0.0,0.0,0.0,0.0,0.0,0.0,0.0,0.0,0.0,0.0,0.0,0.0,0.0,0.0,0.0,0.0,0.0,0.0,0.0,0.0,0.0,0.0,0.0,-3.4811,0.0,-3.4539,-3.4316,-3.4427,-3.445,0.0,0.0,0.0,0.0,0.0,0.0,0.0,0.0,0.0,0.0,0.0,0.0,0.0,0.0,0.0,0.0,0.0,0.0,0.0,0.0,0.0,0.0,0.0,0.0,0.0,0.0,0.0,0.0,0.0,0.0,0.0,0.0,0.0,0.0,0.0,0.0,0.0,0.0,0.0,0.0,0.0,0.0,0.0,0.0,0.0,0.0,0.0,0.0,0.0,0.0,0.0,0.0,0.0,0.0,0.0,0.0,0.0,0.0,0.0,0.0,0.0,0.0,0.0,0.0,0.0,0.0,0.0,0.0,0.0,0.0,0.0,0.0,0.0,0.0,0.0,0.0,0.0,0.0,0.0,0.0,0.0,0.0,0.0,0.0,0.0,0.0,0.0,0.0,0.0,0.0,0.0,0.0,0.0,0.0,0.0,0.0,0.0,0.0,0.0,0.0,0.0,0.0,0.0,0.0,0.0,0.0,0.0,0.0,-3.4703,-3.4446,-3.4377,-3.432,-3.4136,-3.4185,-3.424,0.0,0.0,0.0,0.0,0.0,0.0,0.0,0.0,0.0,0.0,0.0,0.0,0.0,0.0,0.0,0.0,0.0,0.0,0.0,0.0,0.0,0.0,0.0,0.0,0.0,0.0,0.0,0.0,0.0,0.0,0.0,0.0,0.0,0.0,0.0,0.0,0.0,0.0,0.0,0.0,0.0,0.0,0.0,0.0,0.0,0.0,0.0,0.0,0.0,0.0,0.0,0.0,0.0,0.0,0.0,0.0,0.0,0.0,0.0,0.0,0.0,0.0,0.0,0.0,0.0,0.0,0.0,0.0,0.0,0.0,0.0,0.0,0.0,0.0,0.0,0.0,0.0,0.0,0.0,0.0,0.0,0.0,0.0,0.0,0.0,0.0,0.0,0.0,0.0,0.0,0.0,0.0,0.0,0.0,0.0,0.0,0.0,0.0,0.0,0.0,0.0,0.0,0.0,0.0,0.0,0.0,0.0,0.0,0.0,-3.4951,-3.4899,-3.4795,-3.466,-3.4714,-3.4518,0.0,0.0,0.0,0.0,0.0,0.0,0.0,0.0,0.0,0.0,0.0,0.0,0.0,0.0,0.0,0.0,0.0,0.0,0.0,0.0,0.0,0.0,0.0,0.0,0.0,0.0,0.0,0.0,0.0,0.0,0.0,0.0,0.0,0.0,0.0,0.0,0.0,0.0,0.0,0.0,0.0,0.0,0.0,0.0,0.0,0.0,0.0,0.0,0.0,0.0,0.0,0.0,0.0,0.0,0.0,0.0,0.0,0.0,0.0,0.0,0.0,0.0,0.0,0.0,0.0,0.0,0.0,0.0,0.0,0.0,0.0,0.0,0.0,0.0,0.0,0.0,0.0,0.0,0.0,0.0,0.0,0.0,0.0,0.0,0.0,0.0,0.0,0.0,0.0,0.0,0.0,0.0,0.0,0.0,0.0,0.0,0.0,0.0,0.0,0.0,0.0,0.0,0.0,0.0,0.0,0.0,0.0,0.0,0.0,-3.6049,-3.5793,-3.5587,-3.5496,-3.5587,-3.5166,-3.4293,0.0,0.0,0.0,0.0,0.0,0.0,0.0,0.0,0.0,0.0,0.0,0.0,0.0,0.0,0.0,0.0,0.0,0.0,0.0,0.0,0.0,0.0,0.0,0.0,0.0,0.0,0.0,0.0,0.0,0.0,0.0,0.0,0.0,0.0,0.0,0.0,0.0,0.0,0.0,0.0,0.0,0.0,0.0,0.0,0.0,0.0,0.0,0.0,0.0,0.0,0.0,0.0,0.0,0.0,0.0,0.0,0.0,0.0,0.0,0.0,0.0,0.0,0.0,0.0,0.0,0.0,0.0,0.0,0.0,0.0,0.0,0.0,0.0,0.0,0.0,0.0,0.0,0.0,0.0,0.0,0.0,0.0,0.0,0.0,0.0,0.0,0.0,0.0,0.0,0.0,0.0,0.0,0.0,0.0,0.0,0.0,0.0,0.0,0.0,0.0,0.0,0.0,0.0,0.0,0.0,0.0,0.0,0.0,-3.7577,-3.7024,-3.6683,-3.6611,-3.6712,-3.6158,0.0,0.0,0.0,0.0,0.0,0.0,0.0,0.0,0.0,0.0,0.0,0.0,0.0,0.0,0.0,0.0,0.0,0.0,0.0,0.0,0.0,0.0,0.0,0.0,0.0,0.0,0.0,0.0,0.0,0.0,0.0,0.0,0.0,0.0,0.0,0.0,0.0,0.0,0.0,0.0,0.0,0.0,0.0,0.0,0.0,0.0,0.0,0.0,0.0,0.0,0.0,0.0,0.0,0.0,0.0,0.0,0.0,0.0,0.0,0.0,0.0,0.0,0.0,0.0,0.0,0.0,0.0,0.0,0.0,0.0,0.0,0.0,0.0,0.0,0.0,0.0,0.0,0.0,0.0,0.0,0.0,0.0,0.0,0.0,0.0,0.0,0.0,0.0,0.0,0.0,0.0,0.0,0.0,0.0,0.0,0.0,0.0,0.0,0.0,0.0,0.0,0.0,0.0,0.0,0.0,0.0,0.0,0.0,0.0,-3.7777,-3.8684,-3.8755,-3.7866,-3.7487,-3.6915,0.0,0.0,0.0,0.0,0.0,0.0,0.0,0.0,0.0,0.0,0.0,0.0,0.0,0.0,0.0,0.0,0.0,0.0,0.0,0.0,0.0,0.0,0.0,0.0,0.0,0.0,0.0,0.0,0.0,0.0,0.0,0.0,0.0,0.0,0.0,0.0,0.0,0.0,0.0,0.0,0.0,0.0,0.0,0.0,0.0,0.0,0.0,0.0,0.0,0.0,0.0,0.0,0.0,0.0,0.0,0.0,0.0,0.0,0.0,0.0,0.0,0.0,0.0,0.0,0.0,0.0,0.0,0.0,0.0,0.0,0.0,0.0,0.0,0.0,0.0,0.0,0.0,0.0,0.0,0.0,0.0,0.0,0.0,0.0,0.0,0.0,0.0,0.0,0.0,0.0,0.0,0.0,0.0,0.0,0.0,0.0,0.0,0.0,0.0,0.0,0.0,0.0,0.0,0.0,0.0,0.0,0.0,0.0,-3.7138,-3.7975,-3.925,-3.9657,-3.9164,-3.8543,-3.7818,0.0,0.0,0.0,0.0,0.0,0.0,0.0,0.0,0.0,0.0,0.0,0.0,0.0,0.0,0.0,0.0,0.0,0.0,0.0,0.0,0.0,0.0,0.0,0.0,0.0,0.0,0.0,0.0,0.0,0.0,0.0,0.0,0.0,0.0,0.0,0.0,0.0,0.0,0.0,0.0,0.0,0.0,0.0,0.0,0.0,0.0,0.0,0.0,0.0,0.0,0.0,0.0,0.0,0.0,0.0,0.0,0.0,0.0,0.0,0.0,0.0,0.0,0.0,0.0,0.0,0.0,0.0,0.0,0.0,0.0,0.0,0.0,0.0,0.0,0.0,0.0,0.0,0.0,0.0,0.0,0.0,0.0,0.0,0.0,0.0,0.0,0.0,0.0,0.0,0.0,0.0,0.0,0.0,0.0,0.0,0.0,0.0,0.0,0.0,0.0,0.0,0.0,0.0,0.0,0.0,0.0,0.0,0.0,-3.7607,-3.8155,-3.9126,-3.9765,-4.0204,-3.9517,-3.8643,0.0,0.0,0.0,0.0,0.0,0.0,0.0,0.0,0.0,0.0,0.0,0.0,0.0,0.0,0.0,0.0,0.0,0.0,0.0,0.0,0.0,0.0,0.0,0.0,0.0,0.0,0.0,0.0,0.0,0.0,0.0,0.0,0.0,0.0,0.0,0.0,0.0,0.0,0.0,0.0,0.0,0.0,0.0,0.0,0.0,0.0,0.0,0.0,0.0,0.0,0.0,0.0,0.0,0.0,0.0,0.0,0.0,0.0,0.0,0.0,0.0,0.0,0.0,0.0,0.0,0.0,0.0,0.0,0.0,0.0,0.0,0.0,0.0,0.0,0.0,0.0,0.0,0.0,0.0,0.0,0.0,0.0,0.0,0.0,0.0,0.0,0.0,0.0,0.0,0.0,0.0,0.0,0.0,0.0,0.0,0.0,0.0,0.0,0.0,0.0,0.0,0.0,0.0,0.0,0.0,0.0,0.0,0.0,-3.7534,-3.8404,-3.9193,-3.9662,-3.9731,-3.8948,-3.859,0.0,0.0,0.0,0.0,0.0,0.0,0.0,0.0,0.0,0.0,0.0,0.0,0.0,0.0,0.0,0.0,0.0,0.0,0.0,0.0,0.0,0.0,0.0,0.0,0.0,0.0,0.0,0.0,0.0,0.0,0.0,0.0,0.0,0.0,0.0,0.0,0.0,0.0,0.0,0.0,0.0,0.0,0.0,0.0,0.0,0.0,0.0,0.0,-4.097,0.0,0.0,0.0,0.0,0.0,0.0,0.0,0.0,0.0,0.0,0.0,0.0,0.0,0.0,0.0,0.0,0.0,0.0,0.0,0.0,0.0,0.0,0.0,0.0,0.0,0.0,0.0,0.0,0.0,0.0,0.0,0.0,0.0,0.0,0.0,0.0,0.0,0.0,0.0,0.0,0.0,0.0,0.0,0.0,0.0,0.0,0.0,0.0,0.0,0.0,0.0,0.0,0.0,0.0,0.0,0.0,0.0,0.0,0.0,-3.7449,-3.8129,-3.9082,-3.9627,-3.9794,-3.9359,-3.8999,0.0,0.0,0.0,0.0,0.0,0.0,0.0,0.0,0.0,0.0,0.0,0.0,0.0,0.0,0.0,0.0,0.0,0.0,0.0,0.0,0.0,0.0,0.0,0.0,0.0,0.0,0.0,0.0,0.0,0.0,0.0,0.0,0.0,0.0,0.0,0.0,0.0,0.0,0.0,0.0,0.0,0.0,0.0,0.0,0.0,0.0,0.0,0.0,0.0,0.0,0.0,0.0,0.0,0.0,0.0,0.0,0.0,0.0,0.0,0.0,0.0,0.0,0.0,0.0,0.0,0.0,0.0,0.0,0.0,0.0,0.0,0.0,0.0,0.0,0.0,0.0,0.0,0.0,0.0,0.0,0.0,0.0,0.0,0.0,0.0,0.0,0.0,0.0,0.0,0.0,0.0,0.0,0.0,0.0,0.0,0.0,0.0,0.0,0.0,0.0,0.0,0.0,0.0,0.0,0.0,0.0,0.0,-3.7269,-3.7642,-3.8139,-3.9121,-3.978,-4.0163,-4.0104,-3.9531,-3.8495,0.0,0.0,0.0,0.0,0.0,0.0,0.0,0.0,0.0,0.0,0.0,0.0,0.0,0.0,0.0,0.0,0.0,0.0,0.0,0.0,0.0,0.0,0.0,0.0,0.0,0.0,0.0,0.0,0.0,0.0,0.0,0.0,0.0,0.0,0.0,0.0,0.0,0.0,-4.0102,-3.9863,0.0,0.0,0.0,0.0,0.0,0.0,0.0,0.0,-4.1401,0.0,0.0,0.0,0.0,0.0,0.0,0.0,0.0,0.0,0.0,0.0,0.0,0.0,0.0,0.0,0.0,0.0,0.0,0.0,0.0,0.0,0.0,0.0,0.0,0.0,0.0,0.0,0.0,0.0,0.0,0.0,0.0,0.0,0.0,0.0,0.0,0.0,0.0,0.0,0.0,0.0,0.0,0.0,0.0,0.0,0.0,0.0,0.0,0.0,0.0,0.0,0.0,0.0,0.0,0.0,0.0,-3.7867,-3.8315,-3.9005,-3.9988,-4.0248,-4.0378,-4.042,-4.0294,-3.9906,-3.9257,0.0,0.0,0.0,0.0,0.0,0.0,0.0,0.0,0.0,0.0,0.0,0.0,0.0,0.0,0.0,0.0,0.0,0.0,0.0,0.0,0.0,0.0,0.0,0.0,0.0,0.0,0.0,0.0,0.0,0.0,0.0,0.0,0.0,0.0,0.0,0.0,0.0,0.0,0.0,-4.056,-4.0632,0.0,0.0,0.0,0.0,0.0,0.0,0.0,0.0,-4.205,0.0,0.0,0.0,0.0,0.0,0.0,0.0,0.0,0.0,0.0,0.0,0.0,0.0,0.0,0.0,0.0,0.0,0.0,0.0,0.0,0.0,0.0,0.0,0.0,0.0,0.0,0.0,0.0,0.0,0.0,0.0,0.0,0.0,0.0,0.0,0.0,0.0,0.0,0.0,0.0,0.0,0.0,0.0,0.0,0.0,0.0,0.0,0.0,0.0,0.0,0.0,0.0,0.0,0.0,0.0,-3.85,-3.9001,-3.9601,-4.0464,-4.0853,-4.1047,-4.1047,-4.1063,-4.0703,0.0,0.0,0.0,0.0,0.0,0.0,0.0,0.0,0.0,0.0,0.0,0.0,0.0,0.0,0.0,0.0,0.0,0.0,0.0,0.0,0.0,0.0,0.0,0.0,0.0,0.0,0.0,0.0,0.0,0.0,0.0,0.0,0.0,0.0,0.0,0.0,0.0,0.0,0.0,0.0,-4.1075,-4.1236,-4.303,0.0,0.0,0.0,0.0,0.0,0.0,-4.305,-4.3001,0.0,0.0,0.0,0.0,0.0,0.0,0.0,0.0,0.0,0.0,0.0,0.0,0.0,0.0,0.0,0.0,0.0,0.0,0.0,0.0,0.0,0.0,0.0,0.0,0.0,0.0,0.0,0.0,0.0,0.0,0.0,0.0,0.0,0.0,0.0,0.0,0.0,0.0,0.0,0.0,0.0,0.0,0.0,0.0,0.0,0.0,0.0,0.0,0.0,0.0,0.0,0.0,0.0,0.0,0.0,-3.9095,-3.9699,-4.0323,-4.0901,-4.15,-4.1792,-4.1776,-4.1699,-4.1295,0.0,0.0,0.0,0.0,0.0,0.0,0.0,0.0,0.0,0.0,0.0,0.0,0.0,0.0,0.0,0.0,0.0,0.0,0.0,0.0,0.0,0.0,0.0,0.0,0.0,0.0,0.0,0.0,0.0,0.0,0.0,0.0,0.0,0.0,0.0,0.0,0.0,0.0,0.0,0.0,0.0,-4.1849,-4.3989,-4.2832,0.0,0.0,0.0,0.0,-4.3191,-4.3457,0.0,0.0,0.0,0.0,0.0,0.0,0.0,0.0,0.0,0.0,0.0,0.0,0.0,0.0,0.0,0.0,0.0,0.0,0.0,0.0,0.0,0.0,0.0,0.0,0.0,0.0,0.0,0.0,0.0,0.0,0.0,0.0,0.0,0.0,0.0,0.0,0.0,0.0,0.0,0.0,0.0,0.0,0.0,0.0,0.0,0.0,0.0,0.0,0.0,0.0,0.0,0.0,0.0,0.0,0.0,0.0,-3.9512,-4.0745,-4.1678,-4.2342,-4.2472,-4.2504,-4.2488,-4.1564,-4.1123,0.0,0.0,0.0,0.0,0.0,0.0,0.0,0.0,0.0,0.0,0.0,0.0,0.0,0.0,0.0,0.0,0.0,0.0,0.0,0.0,0.0,0.0,0.0,0.0,0.0,0.0,0.0,0.0,0.0,0.0,0.0,0.0,0.0,0.0,0.0,0.0,0.0,0.0,0.0,0.0,0.0,-4.2248,-4.444,-4.3266,-4.2418,0.0,0.0,-4.2754,-4.3367,-4.3808,0.0,0.0,0.0,0.0,0.0,0.0,0.0,0.0,0.0,0.0,0.0,0.0,0.0,0.0,0.0,0.0,0.0,0.0,0.0,0.0,0.0,0.0,0.0,0.0,0.0,0.0,0.0,0.0,0.0,0.0,0.0,0.0,0.0,0.0,0.0,0.0,0.0,0.0,0.0,0.0,0.0,0.0,0.0,0.0,0.0,0.0,0.0,0.0,0.0,0.0,0.0,0.0,0.0,0.0,0.0,-3.9011,-4.0245,-4.1496,-4.231,-4.2618,-4.2571,-4.2571,-4.2571,-4.1575,-4.1058,0.0,0.0,0.0,0.0,0.0,0.0,0.0,0.0,0.0,0.0,0.0,0.0,0.0,0.0,0.0,0.0,0.0,0.0,0.0,0.0,0.0,0.0,0.0,0.0,0.0,0.0,0.0,0.0,0.0,0.0,0.0,0.0,0.0,0.0,0.0,0.0,0.0,0.0,0.0,0.0,0.0,0.0,-4.3902,-4.3607,0.0,0.0,0.0,-4.2893,-4.3047,0.0,0.0,0.0,0.0,0.0,0.0,0.0,0.0,0.0,0.0,0.0,0.0,0.0,0.0,0.0,0.0,0.0,0.0,0.0,0.0,0.0,0.0,0.0,0.0,0.0,0.0,0.0,0.0,0.0,0.0,0.0,0.0,0.0,0.0,0.0,0.0,0.0,0.0,0.0,0.0,0.0,0.0,0.0,0.0,0.0,0.0,0.0,0.0,0.0,0.0,0.0,0.0,0.0,0.0,0.0,0.0,0.0,-4.0674,-4.1967,-4.2571,-4.2571,-4.2571,-4.2634,-4.268,-4.1754,0.0,0.0,0.0,0.0,0.0,0.0,0.0,0.0,0.0,0.0,0.0,0.0,0.0,0.0,0.0,0.0,0.0,0.0,0.0,0.0,0.0,0.0,0.0,0.0,0.0,0.0,0.0,-3.9723,0.0,0.0,0.0,0.0,0.0,0.0,0.0,0.0,0.0,0.0,0.0,0.0,0.0,0.0,-4.2622,-4.3436,-4.392,-4.3982,0.0,0.0,-4.3226,-4.2802,-4.3382,-4.3673,0.0,0.0,0.0,0.0,0.0,0.0,0.0,0.0,0.0,0.0,0.0,0.0,0.0,0.0,0.0,0.0,0.0,0.0,0.0,0.0,0.0,0.0,0.0,0.0,0.0,0.0,0.0,0.0,0.0,0.0,0.0,0.0,0.0,0.0,0.0,0.0,0.0,0.0,0.0,0.0,0.0,0.0,0.0,0.0,0.0,0.0,0.0,0.0,0.0,0.0,0.0,0.0,0.0,0.0,0.0,-4.0513,-4.1905,-4.2571,-4.2571,-4.2571,-4.2696,-4.2883,-4.2239,-4.1756,0.0,0.0,0.0,0.0,0.0,0.0,0.0,0.0,0.0,0.0,0.0,0.0,0.0,0.0,0.0,0.0,0.0,0.0,0.0,0.0,0.0,0.0,0.0,0.0,0.0,0.0,0.0,0.0,0.0,0.0,0.0,0.0,0.0,0.0,0.0,0.0,0.0,0.0,0.0,0.0,0.0,-4.262,-4.3384,-4.4392,-4.4721,0.0,-4.3963,-4.3842,-4.2998,-4.3281,-4.3456,-4.3009,0.0,0.0,0.0,0.0,0.0,0.0,0.0,0.0,0.0,0.0,0.0,0.0,0.0,0.0,0.0,0.0,0.0,0.0,0.0,0.0,0.0,0.0,0.0,0.0,0.0,0.0,0.0,0.0,0.0,0.0,0.0,0.0,0.0,0.0,0.0,0.0,0.0,0.0,0.0,0.0,0.0,0.0,0.0,0.0,0.0,0.0,0.0,0.0,0.0,0.0,0.0,0.0,0.0,-3.9975,-4.0496,-4.1905,-4.2571,-4.2634,-4.2713,-4.2837,-4.2916,-4.2441,-4.2111,0.0,0.0,0.0,0.0,0.0,0.0,0.0,0.0,0.0,0.0,0.0,0.0,0.0,0.0,0.0,0.0,0.0,0.0,0.0,0.0,0.0,0.0,0.0,0.0,0.0,0.0,0.0,0.0,-4.3183,-4.3284,-4.3072,0.0,0.0,0.0,0.0,0.0,0.0,0.0,0.0,0.0,0.0,-4.2354,-4.3132,-4.3759,0.0,0.0,-4.3203,-4.3298,-4.3456,-4.3913,-4.4251,-4.4147,-4.3981,0.0,0.0,0.0,0.0,0.0,0.0,0.0,0.0,0.0,0.0,0.0,0.0,0.0,0.0,0.0,0.0,0.0,0.0,0.0,0.0,0.0,0.0,0.0,0.0,0.0,0.0,0.0,0.0,0.0,0.0,0.0,0.0,0.0,0.0,0.0,0.0,0.0,0.0,0.0,0.0,0.0,0.0,0.0,0.0,0.0,0.0,0.0,0.0,0.0,0.0,0.0,0.0,-4.0096,-4.048,-4.1905,-4.2634,-4.2759,-4.2837,-4.2961,-4.3023,-4.2775,-4.2548,0.0,0.0,0.0,0.0,0.0,0.0,0.0,0.0,0.0,0.0,0.0,0.0,0.0,0.0,0.0,0.0,0.0,0.0,0.0,0.0,0.0,0.0,0.0,0.0,0.0,0.0,0.0,0.0,-4.3513,-4.365,-4.3358,0.0,0.0,0.0,0.0,0.0,0.0,0.0,0.0,0.0,0.0,-4.2447,-4.3244,-4.3898,-4.4121,-4.3706,-4.3794,-4.4048,-4.4344,-4.4732,-4.5164,-4.5441,0.0,0.0,0.0,0.0,0.0,0.0,0.0,0.0,0.0,0.0,0.0,0.0,0.0,0.0,0.0,0.0,0.0,0.0,0.0,0.0,0.0,0.0,0.0,0.0,0.0,0.0,0.0,0.0,0.0,0.0,-3.5578,0.0,0.0,0.0,0.0,0.0,0.0,0.0,0.0,0.0,0.0,0.0,0.0,0.0,0.0,0.0,0.0,0.0,0.0,0.0,0.0,0.0,0.0,-4.0583,-4.0513,-4.1905,-4.2743,-4.3052,-4.2945,-4.3084,-4.3388,-4.3355,-4.3069,-4.2493,0.0,0.0,0.0,0.0,0.0,0.0,0.0,0.0,0.0,0.0,0.0,0.0,0.0,0.0,0.0,0.0,0.0,0.0,0.0,0.0,0.0,0.0,0.0,0.0,0.0,0.0,-4.2172,-4.3279,-4.3997,0.0,0.0,0.0,0.0,0.0,0.0,0.0,0.0,0.0,0.0,-4.2331,-4.3193,-4.3889,-4.4984,-4.5694,-4.5711,-4.6317,-4.6562,-4.5893,-4.5765,-4.6013,0.0,0.0,0.0,0.0,0.0,0.0,0.0,0.0,0.0,0.0,0.0,0.0,0.0,0.0,0.0,0.0,0.0,0.0,0.0,0.0,0.0,0.0,0.0,0.0,0.0,0.0,0.0,-3.766,-3.715,0.0,0.0,0.0,0.0,0.0,0.0,0.0,0.0,0.0,0.0,0.0,-3.9642,-3.9469,0.0,0.0,0.0,0.0,0.0,0.0,0.0,0.0,0.0,0.0,0.0,0.0,-4.0513,-4.0458,-4.1983,-4.2837,-4.2945,-4.3129,-4.3251,-4.3372,-4.3492,-4.3221,-4.2551,0.0,0.0,0.0,0.0,0.0,0.0,0.0,0.0,0.0,0.0,0.0,0.0,0.0,0.0,0.0,0.0,0.0,0.0,0.0,0.0,0.0,0.0,0.0,0.0,0.0,-4.2996,0.0,0.0,0.0,0.0,0.0,0.0,0.0,0.0,0.0,0.0,0.0,-4.2844,-4.3187,-4.3813,-4.448,-4.5136,-4.5535,-4.5939,0.0,0.0,0.0,0.0,0.0,0.0,0.0,0.0,0.0,0.0,0.0,0.0,0.0,0.0,-4.6173,-4.4891,-4.5228,-4.5689,-4.563,0.0,0.0,0.0,0.0,0.0,0.0,0.0,0.0,0.0,0.0,0.0,0.0,0.0,0.0,-3.8975,0.0,-3.8125,0.0,0.0,0.0,0.0,0.0,0.0,0.0,0.0,-4.0596,-4.0912,-4.1108,-4.0929,-4.0869,0.0,-4.061,-4.0011,0.0,0.0,0.0,0.0,0.0,0.0,0.0,0.0,-4.061,-4.0857,-4.2174,-4.2961,-4.3146,-4.3312,-4.3449,-4.3449,-4.3552,-4.3396,-4.2916,-4.268,-4.2605,0.0,0.0,0.0,0.0,0.0,0.0,0.0,0.0,0.0,0.0,0.0,0.0,0.0,0.0,0.0,0.0,0.0,0.0,0.0,0.0,0.0,0.0,0.0,-4.3076,0.0,0.0,0.0,0.0,0.0,0.0,0.0,0.0,0.0,-4.1202,-4.2492,-4.3511,-4.3839,-4.4809,-4.5616,-4.5986,0.0,0.0,0.0,0.0,0.0,0.0,0.0,-4.7655,-4.858,-4.8629,-4.8514,-4.8398,-4.8247,-4.8148,-4.8329,0.0,0.0,-4.6536,-4.6574,-4.6908,-4.6908,-4.6908,-4.6841,-4.6748,-4.6707,-4.6548,0.0,0.0,0.0,0.0,0.0,0.0,0.0,0.0,-4.0513,-4.0496,0.0,-3.9816,0.0,0.0,0.0,0.0,0.0,-4.1171,0.0,0.0,-4.2337,-4.2714,-4.1824,-4.1642,-4.1614,-4.1565,-4.0917,-4.0534,-4.0414,-4.0518,0.0,0.0,0.0,0.0,0.0,0.0,-4.0973,-4.1743,-4.2509,-4.3129,-4.3568,-4.3509,-4.3432,-4.3585,-4.3568,-4.3628,-4.3595,-4.3074,-4.311,-4.3746,-4.3185,0.0,0.0,0.0,0.0,0.0,0.0,0.0,0.0,0.0,0.0,0.0,0.0,0.0,0.0,0.0,0.0,0.0,0.0,0.0,0.0,-4.2977,0.0,0.0,0.0,0.0,0.0,0.0,0.0,0.0,0.0,0.0,-4.1409,-4.2599,-4.3618,-4.3651,0.0,0.0,0.0,0.0,-4.7988,-4.7902,-4.7947,-4.8078,-4.8134,-4.8696,-4.9359,-5.0071,0.0,0.0,-4.9227,-4.853,-4.8134,-4.8098,-4.8661,-4.8978,-4.8379,-4.8164,-4.8067,-4.8067,-4.8067,-4.8049,-4.8075,-4.8132,-4.8018,-4.0005,0.0,0.0,0.0,0.0,-4.0205,-4.061,-4.1274,-4.1274,-4.1257,-4.1257,-4.0974,0.0,0.0,0.0,0.0,0.0,0.0,-3.9988,-3.9875,-4.087,-4.1439,-4.1659,-4.2099,-4.2326,-4.231,-4.2116,-4.1957,-4.1973,-4.1973,-4.1281,-3.9847,0.0,0.0,0.0,0.0,-4.1536,-4.1868,-4.2752,-4.3312,-4.3449,-4.3509,-4.3568,-4.3645,-4.3645,-4.3645,-4.3628,-4.4209,-4.4329,-4.3833,-4.4379,0.0,0.0,0.0,0.0,0.0,0.0,0.0,0.0,0.0,0.0,0.0,0.0,0.0,0.0,0.0,0.0,0.0,0.0,0.0,-4.446,-4.4887,-4.5176,0.0,0.0,0.0,0.0,0.0,0.0,0.0,0.0,0.0,-4.3656,-4.3856,-4.422,0.0,0.0,-4.7029,-4.7983,-4.8481,-4.9111,-5.0102,-4.97,0.0,-5.027,-4.9865,-4.9579,-5.0102,-5.022,-4.9939,-4.921,-4.9326,-4.9589,-4.9651,-4.9786,-4.9924,-4.9992,-4.9725,-4.9574,-4.9574,-4.9574,-4.9574,-4.9726,-4.9709,-4.9377,-4.1103,-4.0704,-4.0408,-4.0571,-4.0917,-4.0917,-4.1338,-4.2002,-4.1986,-4.184,-4.1581,-4.152,-4.0926,-3.9989,-3.958,0.0,0.0,0.0,-3.9531,-3.9897,-4.0302,-4.0723,-4.116,-4.1581,-4.1776,-4.1792,-4.2067,-4.2213,-4.2213,-4.2442,-4.2026,-4.097,0.0,0.0,-4.0829,-4.1553,-4.2076,-4.2321,-4.3021,-4.3432,-4.3492,-4.3568,-4.3645,-4.3645,-4.3645,-4.3645,-4.3628,-4.4468,-4.4795,-4.442,-4.4942,-4.4783,0.0,0.0,0.0,0.0,0.0,0.0,0.0,0.0,0.0,0.0,0.0,-4.4947,-4.4199,0.0,0.0,0.0,-4.5344,-4.5458,-4.5545,-4.5642,0.0,0.0,0.0,0.0,0.0,0.0,0.0,-4.303,-4.3904,-4.4891,-4.5692,-4.5616,-4.5782,-4.6585,-4.7671,-4.8612,-4.9022,0.0,-5.005,-5.0248,-4.9901,-4.967,-4.9955,-4.9651,-4.9582,-5.0102,-5.022,-5.0055,-4.9658,-4.994,-5.0305,-5.0386,-5.0388,-5.0425,-5.0643,-5.0525,-5.0408,-5.0408,-5.0408,-5.0425,-5.0541,-5.0454,-5.0139,-4.2109,-4.2078,-4.0935,-4.0926,-4.1626,-4.1517,-4.1857,-4.2456,-4.2439,-4.2083,-4.15,-4.1484,-4.0772,-3.9541,-3.8861,0.0,-3.9253,-3.9402,-3.98,-4.0432,-4.0464,-4.0529,-4.0577,-4.0626,-4.0702,-4.0691,-4.1338,-4.1646,-4.1695,-4.2201,-4.2445,-4.2412,-4.2093,-4.1845,-4.1707,-4.2043,-4.2474,-4.3141,-4.3312,-4.3509,-4.3645,-4.3645,-4.3645,-4.3645,-4.3645,-4.3628,-4.3671,-4.4236,-4.4801,-4.5338,-4.5122,-4.5211,-4.5595,0.0,0.0,0.0,0.0,0.0,0.0,0.0,0.0,0.0,0.0,0.0,0.0,0.0,0.0,0.0,-4.5338,0.0,-4.6552,-4.5747,0.0,0.0,0.0,-4.4507,-4.3869,-4.4876,-4.5577,-4.5532,0.0,0.0,-4.7571,-4.7636,-4.8,-4.8795,-4.9967,-5.0476,-4.97,-5.0373,-5.0587,-4.9236,-4.9088,-4.8942,-4.8663,-4.8945,-4.9424,-4.9955,-5.0137,-4.9988,-4.9908,-5.0009,-5.0175,-5.0174,-5.0393,-5.0492,-5.0525,-5.0458,-5.0543,-5.0459,-5.0626,-5.0694,-5.0726,-5.0606,-5.0473,-4.2238,-4.2459,-4.2153,-4.186,-4.1517,-4.0966,-4.0853,-4.0982,-4.0998,-4.0901,-4.0739,-4.0756,-4.0561,-4.0237,-4.0075,-3.98,-3.9402,-3.946,-3.9573,-3.9752,-4.0254,-4.0788,-4.1383,-4.1873,-4.2073,-4.2132,-4.231,-4.2375,-4.2375,-4.249,-4.2587,-4.2555,-4.2688,-4.2745,-4.2593,-4.2745,-4.307,-4.3492,-4.3492,-4.3568,-4.3568,-4.3645,-4.3645,-4.3645,-4.3645,-4.3848,-4.4293,-4.4801,-4.5372,-4.5953,-4.63,-4.6198,-4.5567,-4.4445,0.0,0.0,0.0,0.0,0.0,0.0,0.0,0.0,0.0,-4.5285,-4.4954,0.0,-4.7097,0.0,-4.6514,-4.708,-4.8187,-4.812,0.0,0.0,-4.8532,-4.8121,-4.7379,-4.7417,-4.7495,-4.7373,-4.7836,-4.8363,-4.8679,-4.9123,-4.9467,-4.9835,-4.9074,-4.8826,-4.9653,-4.9684,-4.973,-4.9816,-4.9858,-4.9893,-4.966,-4.9808,-4.9756,-4.9425,-4.9375,-4.916,-4.8647,-4.8564,-4.8629,-4.8873,-4.8873,-4.8938,-4.9371,-4.9338,-4.9308,-4.9422,-5.0102,-5.0727,-5.0926,-5.0861,-5.066,-4.2302,-4.2601,-4.2294,-4.1921,-4.1626,-4.1468,-4.1452,-4.1436,-4.1452,-4.1274,-4.095,-4.0642,-4.0496,-4.0496,-4.0496,-4.0286,-3.993,-3.993,-3.993,-3.9962,-4.0318,-4.0707,-4.1096,-4.1504,-4.1699,-4.1695,-4.2002,-4.2164,-4.218,-4.2472,-4.2634,-4.2759,-4.2945,-4.3068,-4.3129,-4.3235,-4.3372,-4.3509,-4.3568,-4.3645,-4.3645,-4.3645,-4.3628,-4.3747,-4.3805,-4.4023,-4.439,-4.5035,-4.5511,-4.5938,-4.6429,-4.6489,-4.6035,-4.5435,-4.4918,0.0,0.0,0.0,0.0,0.0,0.0,0.0,0.0,0.0,0.0,0.0,-4.7867,-4.7748,-4.7874,-4.8247,-4.8823,-4.8876,-4.9182,-4.9907,-4.9955,-4.9759,-4.9147,-4.9013,-4.8888,-4.8547,-4.8779,-4.9075,-4.9558,-4.9887,-5.0102,-5.0307,-4.9227,-4.8812,-4.974,-4.9788,-4.9686,-4.9769,-4.9809,-4.9704,-4.9508,-4.9426,-4.9343,-4.8977,-4.886,-4.871,-4.8311,-4.8325,-4.8406,-4.8584,-4.8597,-4.8627,-4.8956,-4.8956,-4.8894,-4.9058,-4.9519,-4.9931,-5.0062,-5.0079,-4.988,-4.2238,-4.2506,-4.1954,-4.1711,-4.1759,-4.2375,-4.2458,-4.2359,-4.2359,-4.2002,-4.1403,-4.0772,-4.0496,-4.0496,-4.0496,-4.0556,-4.0615,-4.0615,-4.0648,-4.0788,-4.0745,-4.0794,-4.0859,-4.0832,-4.0815,-4.0908,-4.1525,-4.1878,-4.1955,-4.2557,-4.2912,-4.3096,-4.3174,-4.3355,-4.3595,-4.3789,-4.373,-4.3552,-4.3611,-4.3687,-4.373,-4.373,-4.3805,-4.3956,-4.4114,-4.4253,-4.4463,-4.5069,-4.5477,-4.5684,-4.6137,-4.6477,-4.6572,-4.6406,-4.6288,0.0,-4.6073,0.0,0.0,0.0,0.0,0.0,0.0,0.0,0.0,-4.7583,-4.8263,-4.8905,-4.9195,-4.9284,-4.9195,-4.9174,-4.9457,-5.0203,-5.0363,-5.0235,-4.9995,-4.9961,-4.983,-4.941,-4.931,-4.9491,-4.9922,-5.0071,-5.0108,-5.0009,-4.9459,-4.9227,-4.9843,-4.9908,-4.9674,-4.9243,-4.9206,-4.9076,-4.8731,-4.855,-4.855,-4.8517,-4.8534,-4.8483,-4.85,-4.8627,-4.8774,-4.8782,-4.887,-4.8956,-4.9018,-4.9001,-4.9001,-4.9018,-4.9086,-4.9137,-4.912,-4.9024,-4.8838,-4.1916,-4.2238,-4.2363,-4.2423,-4.2439,-4.2569,-4.197,-4.0885,-4.0901,-4.082,-4.0691,-4.0561,-4.0496,-4.0496,-4.0496,-4.0733,-4.1083,-4.1066,-4.1593,-4.2499,-4.2113,-4.2249,-4.2698,-4.2382,-4.2382,-4.2731,-4.2922,-4.3271,-4.3893,-4.4028,-4.4192,-4.4406,-4.4584,-4.4729,-4.4783,0.0,0.0,0.0,-4.408,-4.4196,-4.4485,-4.439,-4.4293,-4.4253,-4.435,0.0,-4.5159,-4.5319,-4.5701,-4.6235,-4.6332,0.0,0.0,0.0,0.0,0.0,0.0,0.0,0.0,0.0,0.0,0.0,-4.6749,-4.6714,-4.7558,-4.8303,-4.8799,-4.911,-4.9733,-5.0388,-5.1073,-5.1151,-5.129,-5.1515,-5.107,-5.0711,-5.071,-5.0306,-5.019,-5.0686,-5.0276,-4.9806,-4.9443,-4.941,-4.9293,-4.8825,-4.8623,-4.8671,-4.8821,-4.8893,-4.8713,-4.8431,-4.8617,-4.8652,-4.853,-4.8483,-4.8547,-4.8483,-4.8483,-4.8483,-4.8547,-4.8547,-4.8627,-4.8774,-4.8803,-4.8894,-4.894,-4.9018,-4.9018,-4.9018,-4.9018,-4.9018,-4.9001,-4.8984,-4.8984,-4.1785,0.0,-4.2429,-4.2571,0.0,-4.2571,-4.232,-4.188,-4.1655,-4.1549,-4.1549,-4.1549,-4.1655,-4.188,-4.188,-4.2118,-4.2584,-4.2584,-4.2882,-4.3478,-4.3248,-4.3331,-4.3604,-4.3383,-4.3443,-4.3663,-4.3663,-4.3881,-4.4378,-4.4434,-4.4567,-4.4949,-4.502,-4.5161,-4.5197,-4.525,-4.5161,-4.491,-4.4763,-4.4818,-4.5001,-4.4947,-4.4892,-4.491,-4.5035,0.0,0.0,0.0,0.0,0.0,0.0,0.0,0.0,-4.6607,0.0,-4.6737,-4.656,-4.6542,-4.6737,-4.6749,-4.6973,-4.7382,-4.7382,-4.756,-4.789,-4.9083,-4.9808,-4.9844,-5.0602,-5.1258,-5.1619,-5.1719,-5.1893,-5.2291,-5.1812,-5.1435,-5.1415,-5.102,-5.0626,-5.0505,-5.0311,-4.9881,-4.9198,-4.9211,-4.9076,-4.8567,-4.858,-4.869,-4.8644,-4.859,-4.8479,-4.8487,-4.8606,-4.8742,-4.8765,-4.8736,-4.8753,-4.8753,-4.8736,-4.8736,-4.8736,-4.8736,-4.8815,-4.8894,-4.8894,-4.8956,-4.9018,-4.9018,-4.9018,-4.9018,-4.9018,-4.9018,-4.9018,-4.9018,-4.9018,-4.1484,-4.1853,-4.2377,-4.2564,-4.2564,-4.261,-4.2757,-4.3003,0.0,0.0,0.0,-4.2743,-4.2974,-4.3426,-4.3426,-4.3663,-4.4128,-4.4145,-4.4128,-4.4259,-4.4145,-4.4128,-4.4145,-4.403,-4.403,-4.4145,-4.4128,-4.4339,-4.4712,-4.4695,-4.4966,-4.5407,-4.5407,-4.5477,-4.5614,-4.5614,-4.5631,-4.5563,-4.5477,-4.5425,-4.5477,-4.5459,-4.5511,-4.5563,-4.5768,-4.5938,-4.6038,-4.6119,-4.6284,-4.6381,-4.6381,-4.6495,-4.6655,-4.7275,-4.7647,-4.7665,-4.8232,-4.8351,-4.7844,-4.785,-4.7729,-4.7293,-4.8115,-4.8586,-4.8508,-4.9811,-5.0694,-5.0758,-5.1593,-5.2076,-5.1904,-5.1937,-5.2219,-5.2878,-5.243,-5.2057,-5.2077,-5.1635,-5.0976,-5.0363,-5.0124,-4.9901,-4.9479,-4.9436,-4.9359,-4.9152,-4.9212,-4.9148,-4.908,-4.8818,-4.8606,-4.8781,-4.8872,-4.9001,-4.9001,-4.9001,-4.9018,-4.9001,-4.9001,-4.9018,-4.9018,-4.9018,-4.9018,-4.9001,-4.9001,-4.9001,-4.9001,-4.9018,-4.9018,-4.9018,-4.9018,-4.9018,-4.9018,-4.9018,-4.9018,-4.0214,-4.0896,-4.1938,-4.2298,-4.2282,-4.2709,-4.2515,-4.2066,-4.2855,-4.3426,-4.3798,-4.3366,-4.3502,-4.3898,-4.3898,-4.4145,-4.4597,-4.4597,-4.4818,-4.5194,-4.4763,-4.4597,-4.4597,-4.4202,-4.4202,-4.458,-4.4597,-4.5072,-4.5852,-4.5903,-4.6217,-4.6666,-4.6731,-4.6731,-4.6778,-4.6778,-4.6778,-4.6731,-4.607,-4.592,-4.6235,-4.6119,-4.6038,-4.592,-4.6087,-4.6119,-4.6168,-4.6186,-4.6301,-4.6381,-4.6381,-4.6495,-4.6749,-4.6902,-4.702,-4.7112,-4.7201,-4.7219,-4.7176,-4.7158,-4.7454,-4.8235,-4.9543,-5.0349,-5.0337,-5.0467,-5.0829,-5.1625,-5.24,-5.2884,-5.2773,-5.2799,-5.287,-5.2941,-5.2386,-5.1974,-5.2058,-5.1654,-5.1246,-5.1052,-5.0535,-5.0206,-5.0111,-5.0202,-5.0293,-5.0293,-5.0163,-5.0367,-5.0161,-4.9451,-4.8892,-4.8973,-4.9001,-4.9018,-4.9107,-4.8984,-4.9107,-4.9018,-4.9063,-4.9141,-4.9168,-4.9141,-4.9141,-4.9001,-4.9063,-4.9063,-4.9001,-4.9018,-4.9018,-4.9018,-4.9018,-4.9018,-4.9018,-4.9018,-4.9018,-3.9802,-4.043,-4.1292,-4.1791,-4.2036,-4.2467,-4.2517,-4.221,-4.2668,-4.2842,-4.2835,-4.2974,-4.333,-4.3816,-4.4204,-4.4652,-4.5069,-4.5069,-4.5177,-4.5371,-4.5194,-4.5069,-4.5069,-4.4852,-4.4944,-4.5302,-4.5302,-4.5649,-4.6398,-4.6447,-4.6655,-4.698,-4.6998,-4.6998,-4.6998,-4.6998,-4.6998,-4.6998,-4.6637,-4.6542,-4.6731,-4.6684,-4.659,-4.6525,-4.659,-4.6637,-4.6637,-4.6637,-4.6637,-4.6749,-4.6731,-4.6795,-4.6888,-4.7053,-4.7205,-4.7267,-4.7662,-4.794,-4.794,-4.8181,-4.8726,-4.9578,-5.0372,-5.1048,-5.1527,-5.1497,-5.161,-5.1969,-5.2438,-5.2618,-5.2476,-5.2521,-5.2556,-5.2541,-5.2261,-5.2162,-5.2206,-5.2072,-5.192,-5.1804,-5.1565,-5.1241,-5.0894,-5.0947,-5.0893,-5.0715,-5.0697,-5.0662,-5.0703,-5.0257,-4.9866,-4.9913,-4.9896,-4.9896,-4.9896,-4.9896,-4.9896,-4.9913,-4.9935,-4.9894,-4.9907,-4.9901,-4.9794,-4.953,-4.9496,-4.9333,-4.9124,-4.9018,-4.9018,-4.9018,-4.9018,-4.9018,-4.9018,-4.9018,-4.9018,-3.9626,-4.0173,-4.0885,-4.1421,-4.1856,-4.2073,-4.2125,-4.2125,-4.2108,-4.1901,-4.1701,-4.2471,-4.3094,-4.3539,-4.4139,-4.4641,-4.5095,-4.5165,-4.5268,-4.5423,-4.5441,-4.5441,-4.5441,-4.5441,-4.5563,-4.5786,-4.5786,-4.6105,-4.6542,-4.659,-4.6731,-4.698,-4.6998,-4.6998,-4.6998,-4.6998,-4.6998,-4.6998,-4.6998,-4.6998,-4.6998,-4.6998,-4.6998,-4.6998,-4.6998,-4.6998,-4.6998,-4.707,-4.7133,-4.7133,-4.7205,-4.7249,-4.7249,-4.763,-4.7892,-4.7965,-4.8652,-4.9086,-4.9166,-4.9703,-5.0362,-5.0985,-5.133,-5.1756,-5.2353,-5.2462,-5.2369,-5.218,-5.2282,-5.2282,-5.2138,-5.2168,-5.2138,-5.2125,-5.2252,-5.2293,-5.2343,-5.2444,-5.2452,-5.234,-5.2361,-5.2119,-5.1799,-5.1669,-5.1551,-5.126,-5.0982,-5.0922,-5.1071,-5.1025,-5.0945,-5.0999,-5.091,-5.0629,-5.0699,-5.0626,-5.0626,-5.068,-5.064,-5.0585,-5.0607,-5.0637,-5.0579,-5.0142,-5.0085,-4.993,-4.9479,-4.9419,-4.9479,-4.9521,-4.9521,-4.9479,-4.9479,-4.9479,-4.9273,-3.9456,-4.0117,-4.0975,-4.163,-4.1862,-4.1309,-4.1099,-4.1099,-4.1064,-4.1047,-4.1109,-4.2091,-4.2757,-4.3235,-4.3321,-4.3785,-4.4354,-4.4389,-4.4734,-4.5354,-4.5423,-4.5441,-4.5423,-4.5441,-4.5563,-4.5786,-4.5837,-4.6087,-4.659,-4.6637,-4.6731,-4.6998,-4.6998,-4.6998,-4.6998,-4.6998,-4.6998,-4.6998,-4.6998,-4.6998,-4.6998,-4.6998,-4.6998,-4.6998,-4.6998,-4.6998,-4.698,-4.7294,-4.7468,-4.7468,-4.7747,-4.7911,-4.7984,-4.8607,-4.9068,-4.9086,-4.9797,-5.0318,-5.0538,-5.1257,-5.1775,-5.2151,-5.2816,-5.312,-5.3036,-5.3011,-5.2813,-5.2462,-5.2311,-5.2246,-5.215,-5.2198,-5.2282,-5.23,-5.2264,-5.2358,-5.2434,-5.248,-5.2498,-5.2498,-5.248,-5.2434,-5.2322,-5.2322,-5.2322,-5.2162,-5.1768,-5.1654,-5.2019,-5.1756,-5.1685,-5.1928,-5.1459,-5.0847,-5.0787,-5.068,-5.0858,-5.0787,-5.077,-5.084,-5.0894,-5.0858,-5.0664,-5.0715,-5.0643,-5.0607,-5.048,-5.0517,-5.0462,-5.0314,-5.0314,-5.0462,-5.0535,-5.0425,-5.0107,-3.9301,-3.9818,-4.0459,-4.0979,-4.1267,-4.0991,-4.0871,-4.0871,-4.0871,-4.0871,-4.094,-4.1349,-4.1896,-4.2492,-4.3007,-4.3404,-4.3663,-4.3613,-4.4027,-4.4699,-4.4751,-4.4992,-4.5406,-4.5441,-4.5615,-4.5988,-4.6038,-4.6284,-4.6731,-4.6824,-4.6888,-4.698,-4.6998,-4.6998,-4.6998,-4.6998,-4.6998,-4.6998,-4.6998,-4.7088,-4.7249,-4.7116,-4.6998,-4.6998,-4.6998,-4.6998,-4.7043,-4.7338,-4.7511,-4.7511,-4.7829,-4.8211,-4.8707,-4.9215,-4.9738,-5.0196,-5.0986,-5.161,-5.2013,-5.2445,-5.2791,-5.301,-5.3383,-5.3567,-5.345,-5.3468,-5.3348,-5.312,-5.2717,-5.2387,-5.234,-5.2387,-5.2405,-5.2423,-5.2405,-5.2452,-5.2498,-5.2498,-5.2498,-5.2498,-5.2498,-5.2498,-5.2498,-5.2498,-5.2498,-5.2498,-5.2257,-5.2275,-5.2452,-5.2276,-5.2246,-5.2405,-5.2072,-5.1795,-5.1728,-5.1768,-5.1768,-5.1732,-5.1777,-5.1759,-5.1728,-5.1728,-5.1674,-5.1294,-5.1243,-5.1087,-5.0697,-5.068,-5.068,-5.0734,-5.0734,-5.068,-5.068,-5.068,-5.0425,-3.9627,-3.9935,-4.032,-4.0648,-4.0888,-4.0871,-4.0871,-4.0871,-4.0871,-4.0871,-4.0871,-4.0871,-4.1181,-4.1716,-4.2351,-4.263,-4.2837,-4.2854,-4.3268,-4.394,-4.4165,-4.4578,-4.5079,-4.5337,-4.5649,-4.6137,-4.6186,-4.6495,-4.6952,-4.6998,-4.7043,-4.7116,-4.7133,-4.7223,-4.7294,-4.7276,-4.7294,-4.7294,-4.7276,-4.7425,-4.7578,-4.7407,-4.7276,-4.7276,-4.7276,-4.7294,-4.7276,-4.7578,-4.7747,-4.7788,-4.8072,-4.8616,-4.9404,-4.9894,-5.0637,-5.1597,-5.2283,-5.2856,-5.3373,-5.351,-5.3664,-5.3851,-5.3979,-5.3979,-5.387,-5.3888,-5.3796,-5.3644,-5.3162,-5.285,-5.2708,-5.259,-5.2498,-5.2498,-5.2498,-5.2498,-5.2498,-5.2498,-5.2498,-5.2498,-5.2498,-5.2498,-5.2498,-5.2498,-5.2498,-5.2498,-5.2498,-5.2498,-5.2498,-5.2498,-5.2498,-5.2498,-5.248,-5.248,-5.2498,-5.2387,-5.2498,-5.2498,-5.2415,-5.2397,-5.2498,-5.248,-5.2434,-5.1866,-5.1866,-5.1768,-5.1533,-5.1312,-5.1191,-5.1191,-5.1191,-5.1191,-5.1363,-5.1243,-5.1121,-4.0534,-4.0631,-4.0776,-4.0871,-4.0871,-4.0871,-4.0871,-4.0871,-4.0871,-4.0871,-4.0871,-4.0871,-4.0905,-4.0974,-4.1095,-4.1388,-4.1992,-4.2092,-4.2524,-4.3283,-4.3922,-4.4319,-4.4371,-4.5061,-4.5701,-4.6266,-4.6315,-4.6572,-4.7025,-4.7025,-4.716,-4.7468,-4.7468,-4.7621,-4.787,-4.787,-4.7951,-4.787,-4.787,-4.7951,-4.7951,-4.7933,-4.7951,-4.7933,-4.7951,-4.7911,-4.7951,-4.8192,-4.8345,-4.8327,-4.8623,-4.9191,-4.9989,-5.086,-5.1992,-5.3366,-5.3814,-5.4052,-5.4249,-5.4401,-5.4546,-5.4761,-5.4742,-5.468,-5.4315,-5.4262,-5.4139,-5.3758,-5.3701,-5.3468,-5.3138,-5.2831,-5.2618,-5.2526,-5.2526,-5.2526,-5.2498,-5.2498,-5.2498,-5.2498,-5.2498,-5.2498,-5.2498,-5.2498,-5.2498,-5.2498,-5.2498,-5.2498,-5.2498,-5.2498,-5.2498,-5.2498,-5.2498,-5.2498,-5.2498,-5.2498,-5.2498,-5.2498,-5.2498,-5.2498,-5.2498,-5.2498,-5.2452,-5.2452,-5.2322,-5.2322,-5.2387,-5.2322,-5.2209,-5.2209,-5.2144,-5.2162,-5.1982,-5.2275,-5.2144,-4.0631,-4.0823,-4.0888,-4.0871,-4.0871,-4.0871,-4.0871,-4.0871,-4.0871,-4.0871,-4.0871,-4.0871,-4.0871,-4.0871,-4.0871,-4.1026,-4.1298,-4.1563,-4.1933,-4.2518,-4.3273,-4.4044,-4.4799,-4.5369,-4.6134,-4.6864,-4.7053,-4.7266,-4.7621,-4.7663,-4.7687,-4.7788,-4.7829,-4.787,-4.7992,-4.7992,-4.7992,-4.7992,-4.7992,-4.8053,-4.8249,-4.8231,-4.8345,-4.8514,-4.8172,-4.7992,-4.7992,-4.8231,-4.8383,-4.8421,-4.8695,-4.928,-5.0116,-5.1416,-5.2642,-5.3627,-5.3981,-5.4198,-5.439,-5.4519,-5.468,-5.4871,-5.4901,-5.4871,-5.4711,-5.468,-5.4597,-5.4449,-5.4228,-5.3997,-5.3851,-5.3508,-5.3162,-5.2944,-5.2875,-5.2806,-5.2572,-5.2498,-5.2498,-5.2498,-5.2498,-5.2498,-5.2498,-5.2498,-5.2498,-5.2498,-5.2498,-5.2498,-5.2498,-5.2498,-5.2498,-5.2498,-5.2498,-5.2498,-5.2498,-5.2498,-5.2498,-5.2498,-5.2498,-5.2498,-5.2498,-5.2498,-5.2452,-5.2452,-5.2498,-5.2498,-5.2434,-5.2434,-5.2498,-5.2498,-5.2498,-5.2498,-5.2498,-5.2498,-5.2387,-4.0728,-4.0871,-4.0871,-4.1012,-4.1088,-4.1088,-4.1163,-4.13,-4.1346,-4.1328,-4.1346,-4.1346,-4.1328,-4.1346,-4.1328,-4.13,-4.1328,-4.1445,-4.1635,-4.1911,-4.2846,-4.3695,-4.4519,-4.5383,-4.6252,-4.6988,-4.7542,-4.7852,-4.7992,-4.7992,-4.8032,-4.8132,-4.8132,-4.819,-4.8267,-4.8288,-4.8306,-4.8306,-4.8306,-4.8402,-4.855,-4.8587,-4.866,-4.8785,-4.8476,-4.8288,-4.8288,-4.8458,-4.8569,-4.8569,-4.8767,-4.928,-5.0135,-5.1749,-5.2939,-5.3461,-5.4013,-5.4318,-5.4472,-5.4616,-5.4761,-5.4871,-5.4901,-5.4901,-5.4901,-5.4901,-5.4901,-5.4822,-5.468,-5.45,-5.4449,-5.4243,-5.387,-5.3428,-5.3267,-5.3203,-5.2919,-5.2799,-5.2653,-5.2516,-5.2498,-5.2498,-5.2498,-5.2498,-5.2498,-5.2498,-5.2498,-5.2498,-5.2498,-5.2498,-5.2498,-5.2498,-5.2498,-5.2498,-5.2498,-5.2498,-5.2498,-5.2498,-5.2498,-5.2498,-5.2498,-5.2498,-5.2498,-5.2498,-5.2498,-5.2498,-5.2498,-5.2498,-5.2498,-5.2498,-5.2498,-5.2498,-5.2498,-5.2498,-5.2434,-4.0888,-4.0918,-4.0871,-4.1134,-4.1445,-4.1472,-4.1796,-4.2074,-4.2133,-4.2074,-4.205,-4.2115,-4.2032,-4.2133,-4.205,-4.2115,-4.2032,-4.1778,-4.164,-4.1736,-4.2779,-4.3364,-4.3625,-4.5036,-4.5984,-4.654,-4.7488,-4.8014,-4.8072,-4.8111,-4.821,-4.8402,-4.8421,-4.855,-4.8855,-4.8785,-4.882,-4.882,-4.8785,-4.882,-4.889,-4.8855,-4.8855,-4.889,-4.882,-4.882,-4.8855,-4.8874,-4.8855,-4.8855,-4.8909,-4.928,-5.0207,-5.1743,-5.2856,-5.3096,-5.395,-5.449,-5.4597,-5.4742,-5.4871,-5.4901,-5.4901,-5.4901,-5.4901,-5.4901,-5.4901,-5.4901,-5.4871,-5.4871,-5.4871,-5.4791,-5.4482,-5.387,-5.3683,-5.3683,-5.3563,-5.3316,-5.2971,-5.2617,-5.2544,-5.2516,-5.2498,-5.2498,-5.2498,-5.2498,-5.2408,-5.2335,-5.2263,-5.2162,-5.2353,-5.2426,-5.2335,-5.2216,-5.2389,-5.2498,-5.2498,-5.2498,-5.2498,-5.2498,-5.2498,-5.2498,-5.2498,-5.2498,-5.2498,-5.2498,-5.2498,-5.2498,-5.2498,-5.2498,-5.2498,-5.2498,-5.2498,-5.2498,-5.2498,-4.0871,-4.0918,-4.1192,-4.1356,-4.1516,-4.1821,-4.2074,-4.2216,-4.2216,-4.2216,-4.2216,-4.2216,-4.2216,-4.2216,-4.2216,-4.2216,-4.2216,-4.2338,-4.2279,-4.221,-4.3061,-4.363,-4.4041,-4.4856,-4.5993,-4.7169,-4.8163,-4.8605,-4.8605,-4.8605,-4.866,-4.875,-4.8731,-4.8785,-4.8909,-4.889,-4.889,-4.889,-4.889,-4.889,-4.889,-4.889,-4.889,-4.889,-4.889,-4.889,-4.889,-4.889,-4.889,-4.889,-4.8909,-4.935,-5.0269,-5.0927,-5.1832,-5.2915,-5.347,-5.4069,-5.4554,-5.4773,-5.4901,-5.4901,-5.4901,-5.4901,-5.4901,-5.4901,-5.4901,-5.4901,-5.4901,-5.4901,-5.4901,-5.4901,-5.468,-5.4193,-5.4123,-5.4016,-5.3795,-5.3592,-5.3361,-5.3017,-5.2925,-5.2808,-5.258,-5.2508,-5.2481,-5.2345,-5.1999,-5.1682,-5.1601,-5.1266,-5.1166,-5.1529,-5.1656,-5.1855,-5.1973,-5.2045,-5.21,-5.2263,-5.2389,-5.248,-5.2498,-5.2498,-5.2498,-5.2498,-5.2498,-5.2498,-5.2498,-5.2498,-5.2498,-5.2498,-5.2498,-5.2498,-5.2498,-5.2498,-5.2498,-4.1373,-4.1418,-4.1666,-4.1864,-4.205,-4.2338,-4.2537,-4.2693,-4.2693,-4.2693,-4.2693,-4.2675,-4.2693,-4.2675,-4.2693,-4.2693,-4.2714,-4.2976,-4.2939,-4.277,-4.3232,-4.3738,-4.4053,-4.477,-4.6005,-4.7497,-4.8221,-4.8612,-4.889,-4.889,-4.889,-4.889,-4.889,-4.889,-4.889,-4.889,-4.889,-4.889,-4.889,-4.889,-4.889,-4.889,-4.889,-4.889,-4.889,-4.889,-4.889,-4.889,-4.889,-4.8909,-4.8978,-4.9374,-5.0006,-5.0485,-5.1199,-5.2134,-5.3088,-5.3766,-5.4238,-5.4652,-5.4901,-5.4901,-5.4901,-5.4901,-5.4901,-5.4901,-5.4901,-5.4901,-5.4901,-5.4901,-5.4901,-5.4901,-5.4761,-5.4565,-5.4533,-5.4368,-5.4018,-5.3921,-5.3764,-5.3454,-5.3326,-5.3041,-5.2657,-5.2425,-5.2211,-5.1887,-5.1366,-5.0959,-5.0787,-5.0425,-5.0578,-5.0723,-5.0805,-5.1104,-5.143,-5.1574,-5.1665,-5.1955,-5.2245,-5.2389,-5.2498,-5.2498,-5.2498,-5.2498,-5.2498,-5.2498,-5.2498,-5.2498,-5.2498,-5.2498,-5.2498,-5.2498,-5.2498,-5.2498,-5.2498,-4.2216,-4.2216,-4.2239,-4.2476,-4.2806,-4.29,-4.3105,-4.341,-4.3444,-4.3391,-4.341,-4.3356,-4.341,-4.3444,-4.3356,-4.3356,-4.3479,-4.341,-4.341,-4.341,-4.3532,-4.3587,-4.3818,-4.4702,-4.6001,-4.7348,-4.7701,-4.8184,-4.8872,-4.889,-4.889,-4.889,-4.889,-4.889,-4.889,-4.889,-4.889,-4.889,-4.889,-4.889,-4.889,-4.889,-4.889,-4.889,-4.889,-4.889,-4.889,-4.8943,-4.8943,-4.8943,-4.9146,-4.9345,-4.9584,-5.035,-5.0835,-5.1156,-5.2635,-5.3299,-5.3745,-5.4124,-5.4522,-5.4484,-5.4503,-5.4806,-5.4693,-5.4674,-5.475,-5.4882,-5.4901,-5.4901,-5.4901,-5.4901,-5.4871,-5.4901,-5.4841,-5.4686,-5.4409,-5.4331,-5.4091,-5.3709,-5.3601,-5.3327,-5.2381,-5.2213,-5.1745,-5.1118,-5.0727,-5.0507,-5.0271,-5.0059,-5.0053,-5.0101,-5.0166,-5.0379,-5.0768,-5.085,-5.0959,-5.1158,-5.1593,-5.1937,-5.2353,-5.248,-5.2498,-5.2498,-5.2498,-5.2498,-5.2498,-5.2498,-5.2498,-5.2498,-5.2498,-5.2498,-5.2498,-5.2498,-5.2498,-4.2216,-4.2257,-4.2595,-4.2806,-4.2957,-4.3196,-4.3375,-4.3479,-4.3479,-4.3479,-4.3479,-4.3479,-4.3479,-4.3479,-4.3479,-4.3479,-4.3479,-4.3479,-4.3479,-4.3497,-4.3566,-4.3667,-4.3966,-4.4781,-4.5774,-4.6791,-4.7404,-4.8129,-4.8853,-4.889,-4.889,-4.889,-4.889,-4.889,-4.889,-4.889,-4.889,-4.889,-4.889,-4.889,-4.889,-4.889,-4.889,-4.889,-4.889,-4.8909,-4.8909,-4.9046,-4.9113,-4.9146,-4.9402,-4.9574,-4.9653,-5.0005,-5.0449,-5.1055,-5.1538,-5.2172,-5.2665,-5.2987,-5.3101,-5.3063,-5.3252,-5.3347,-5.3973,-5.4029,-5.4314,-5.4693,-5.4901,-5.4901,-5.4901,-5.4901,-5.4901,-5.4901,-5.4844,-5.4784,-5.4692,-5.4716,-5.4387,-5.3508,-5.3259,-5.2688,-5.197,-5.1583,-5.1398,-5.0972,-5.0485,-5.0105,-4.9869,-4.9541,-4.9401,-4.9551,-4.9656,-4.9828,-5.0007,-5.0152,-5.0234,-5.0343,-5.0768,-5.1275,-5.1892,-5.2444,-5.248,-5.2498,-5.2498,-5.2498,-5.2498,-5.2498,-5.2498,-5.2498,-5.2498,-5.2498,-5.2498,-5.2498,-5.2498,-4.277,-4.277,-4.3032,-4.316,-4.3196,-4.341,-4.3479,-4.3479,-4.3479,-4.3479,-4.3479,-4.3479,-4.3479,-4.3479,-4.3479,-4.3479,-4.3479,-4.3479,-4.3479,-4.3513,-4.3634,-4.3786,-4.4027,-4.4568,-4.5361,-4.6438,-4.6958,-4.7813,-4.8704,-4.889,-4.889,-4.889,-4.889,-4.889,-4.889,-4.889,-4.889,-4.889,-4.889,-4.889,-4.889,-4.889,-4.889,-4.889,-4.889,-4.8943,-4.9046,-4.9211,-4.9276,-4.934,-4.9544,-4.9721,-4.9788,-4.9843,-5.0126,-5.0656,-5.0978,-5.1452,-5.185,-5.2191,-5.24,-5.2419,-5.24,-5.2854,-5.3499,-5.3726,-5.4029,-5.475,-5.4882,-5.4901,-5.4901,-5.4901,-5.4901,-5.4863,-5.4598,-5.4427,-5.4398,-5.4322,-5.3897,-5.3175,-5.276,-5.2409,-5.1345,-5.1199,-5.0927,-5.0508,-4.9998,-4.9707,-4.9415,-4.9066,-4.8873,-4.9136,-4.9231,-4.9393,-4.9441,-4.9511,-4.9819,-4.9903,-5.0428,-5.0879,-5.1347,-5.2118,-5.2391,-5.2409,-5.2454,-5.2462,-5.2435,-5.2435,-5.2498,-5.2498,-5.2498,-5.2498,-5.2498,-5.2498,-5.2498,-4.3479,-4.3479,-4.3479,-4.3479,-4.3479,-4.3479,-4.3479,-4.3479,-4.3479,-4.3479,-4.3479,-4.3479,-4.3479,-4.3479,-4.3582,-4.3548,-4.3479,-4.3582,-4.3615,-4.3682,-4.3814,-4.4005,-4.4079,-4.4079,-4.4952,-4.6104,-4.6401,-4.7367,-4.837,-4.8779,-4.889,-4.889,-4.889,-4.889,-4.889,-4.889,-4.889,-4.889,-4.889,-4.889,-4.889,-4.889,-4.889,-4.889,-4.889,-4.9012,-4.9146,-4.9289,-4.9415,-4.9415,-4.9615,-4.9759,-4.9898,-4.9879,-4.9917,-5.005,-5.058,-5.0978,-5.113,-5.1604,-5.2021,-5.1926,-5.1983,-5.2608,-5.3177,-5.3423,-5.3821,-5.4825,-5.4901,-5.4901,-5.4901,-5.4901,-5.4901,-5.4806,-5.4238,-5.3754,-5.3583,-5.3564,-5.3233,-5.2438,-5.2286,-5.1888,-5.1357,-5.0969,-5.0676,-5.019,-4.9809,-4.969,-4.9514,-4.9314,-4.9126,-4.9057,-4.9036,-4.8922,-4.8946,-4.8878,-4.9287,-4.9603,-5.0267,-5.0761,-5.0921,-5.1522,-5.2043,-5.2261,-5.2261,-5.2266,-5.2263,-5.2309,-5.2454,-5.2498,-5.2498,-5.2498,-5.2498,-5.2498,-5.2498,-4.3479,-4.3479,-4.3479,-4.3479,-4.3479,-4.3479,-4.3479,-4.3479,-4.3479,-4.3479,-4.3513,-4.3479,-4.3532,-4.3548,-4.3763,-4.3749,-4.3615,-4.3763,-4.3955,-4.4072,-4.4318,-4.4484,-4.4465,-4.4221,-4.4612,-4.5611,-4.6267,-4.7047,-4.7921,-4.8661,-4.889,-4.8925,-4.8974,-4.889,-4.8925,-4.8974,-4.889,-4.889,-4.8925,-4.8959,-4.8959,-4.8959,-4.8959,-4.8959,-4.894,-4.9046,-4.9197,-4.9321,-4.9476,-4.9615,-4.9759,-4.9852,-4.9879,-4.9879,-4.9879,-4.9936,-5.0031,-5.0201,-5.0239,-5.0429,-5.0467,-5.0599,-5.0732,-5.1073,-5.2513,-5.2741,-5.3442,-5.4484,-5.4901,-5.4901,-5.4901,-5.4901,-5.4844,-5.4655,-5.4086,-5.3357,-5.2864,-5.2675,-5.2333,-5.1707,-5.1442,-5.1149,-5.0353,-5.0277,-5.0052,-4.9816,-4.9769,-4.9741,-4.9665,-4.9539,-4.942,-4.9265,-4.9252,-4.9215,-4.9113,-4.9085,-4.9272,-4.9533,-5.0082,-5.0496,-5.0675,-5.089,-5.1372,-5.1761,-5.2042,-5.2069,-5.1998,-5.2395,-5.2566,-5.2498,-5.2399,-5.229,-5.2245,-5.2345,-5.2481,-4.3479,-4.3479,-4.3479,-4.3479,-4.3479,-4.3479,-4.3479,-4.3479,-4.3479,-4.3582,-4.3716,-4.3749,-4.3795,-4.3918,-4.4102,-4.4072,-4.4011,-4.4114,-4.4289,-4.4402,-4.4565,-4.4676,-4.477,-4.4621,-4.4824,-4.565,-4.6475,-4.7301,-4.8108,-4.8809,-4.9358,-4.9327,-4.9277,-4.934,-4.9327,-4.9296,-4.934,-4.934,-4.9327,-4.9327,-4.9327,-4.9327,-4.934,-4.937,-4.9363,-4.9453,-4.9665,-4.9655,-4.9759,-4.9879,-4.9925,-4.9906,-4.9879,-4.9879,-4.9879,-4.9879,-4.9879,-4.9879,-4.9898,-4.9879,-4.9936,-4.9879,-4.9879,-5.0865,-5.1907,-5.24,-5.3233,-5.4408,-5.4901,-5.4901,-5.4901,-5.4901,-5.4787,-5.4238,-5.3594,-5.275,-5.2077,-5.184,-5.1509,-5.0835,-5.0589,-5.0372,-5.0031,-4.9917,-4.9879,-4.9824,-4.9824,-4.9824,-4.9824,-4.975,-4.975,-4.9646,-4.9636,-4.957,-4.9442,-4.942,-4.945,-4.9649,-4.9875,-5.009,-5.0196,-5.045,-5.0698,-5.1155,-5.1579,-5.1584,-5.1651,-5.213,-5.2275,-5.1934,-5.1789,-5.1864,-5.1996,-5.2072,-5.226,-4.3479,-4.3479,-4.3479,-4.3479,-4.3479,-4.3479,-4.3548,-4.3582,-4.3532,-4.3697,-4.3986,-4.4017,-4.4091,-4.4346,-4.4438,-4.4465,-4.4465,-4.4519,-4.4599,-4.4695,-4.4843,-4.4919,-4.4985,-4.5019,-4.52,-4.6017,-4.6821,-4.7629,-4.8283,-4.9273,-4.9674,-4.9776,-4.9776,-4.9702,-4.9776,-4.9803,-4.9721,-4.9721,-4.9721,-4.9721,-4.9721,-4.9749,-4.9757,-4.9811,-4.9808,-4.9892,-5.0019,-5.0012,-5.0032,-5.0193,-5.007,-5.0012,-4.9959,-4.9906,-4.9879,-4.9879,-4.9879,-4.9879,-4.9879,-4.9879,-4.9879,-4.9879,-4.9879,-5.0599,-5.1755,-5.2381,-5.3177,-5.4086,-5.475,-5.4901,-5.4901,-5.4901,-5.4503,-5.3821,-5.2949,-5.2096,-5.1386,-5.113,-5.0618,-5.0201,-5.0134,-5.0012,-4.9955,-4.9879,-4.9879,-4.9879,-4.9879,-4.9879,-4.9879,-4.9879,-4.9871,-4.9871,-4.9803,-4.9765,-4.9655,-4.9617,-4.9693,-4.9712,-4.9853,-4.9863,-4.992,-5.008,-5.0395,-5.0742,-5.1035,-5.1143,-5.1299,-5.1618,-5.1636,-5.1248,-5.1269,-5.1498,-5.1639,-5.1811,-5.2005,-4.3479,-4.3479,-4.3479,-4.3479,-4.3479,-4.3479,-4.3682,-4.3846,-4.3649,-4.3823,-4.426,-4.4121,-4.421,-4.443,-4.465,-4.4745,-4.4751,-4.4825,-4.4872,-4.4985,-4.518,-4.5342,-4.5362,-4.5362,-4.5515,-4.5897,-4.6717,-4.7397,-4.796,-4.8951,-4.9758,-4.9819,-4.9857,-4.9857,-4.9884,-4.983,-4.9884,-4.9936,-4.991,-4.991,-4.991,-4.9917,-4.9943,-4.9993,-5.0035,-5.0083,-5.0187,-5.0206,-5.0206,-5.0339,-5.0339,-5.0317,-5.0225,-5.0051,-4.9959,-4.9906,-4.9933,-4.9933,-4.9906,-4.9879,-4.9879,-4.9879,-4.9879,-5.0315,-5.1282,-5.204,-5.2817,-5.3726,-5.4522,-5.4844,-5.4901,-5.4769,-5.4446,-5.3726,-5.2836,-5.1973,-5.1235,-5.0637,-5.0201,-4.9936,-4.9879,-4.9879,-4.9879,-4.9879,-4.9879,-4.9879,-4.9879,-4.9879,-4.9879,-4.9879,-4.9879,-4.9879,-4.9879,-4.986,-4.9852,-4.9824,-4.9852,-4.9824,-4.9871,-4.989,-4.9909,-4.9917,-5.0137,-5.0428,-5.0681,-5.087,-5.1042,-5.1211,-5.1162,-5.0934,-5.1039,-5.1156,-5.121,-5.1281,-5.1432,-4.386,-4.3962,-4.398,-4.3962,-4.3962,-4.398,-4.4072,-4.4162,-4.4023,-4.4184,-4.4465,-4.4484,-4.4591,-4.4838,-4.4976,-4.5068,-4.5113,-4.518,-4.5222,-4.5322,-4.5457,-4.5568,-4.5586,-4.5586,-4.5586,-4.5877,-4.6586,-4.7341,-4.7799,-4.8968,-4.9763,-5.021,-5.0268,-5.0268,-5.0287,-5.0291,-5.0245,-5.0245,-5.0245,-5.0249,-5.0252,-5.0298,-5.0363,-5.0406,-5.0389,-5.047,-5.0529,-5.0486,-5.0486,-5.0527,-5.0446,-5.0385,-5.0342,-5.0272,-5.0144,-5.007,-5.0063,-4.9986,-4.9906,-4.9879,-4.9879,-4.9879,-4.9879,-5.0315,-5.0997,-5.1661,-5.2381,-5.3413,-5.3905,-5.4265,-5.4238,-5.4286,-5.3679,-5.2665,-5.204,-5.1471,-5.0713,-5.0163,-4.9974,-4.9879,-4.9879,-4.9879,-4.9879,-4.9879,-4.9879,-4.9879,-4.9879,-4.9879,-4.9879,-4.9879,-4.9879,-4.9879,-4.9879,-4.9879,-4.9879,-4.9879,-4.9879,-4.9879,-4.9879,-4.9879,-4.9879,-4.9879,-4.9879,-5.0033,-5.0296,-5.0542,-5.0477,-5.0476,-5.0534,-5.0598,-5.0541,-5.0554,-5.0654,-5.0729,-5.0948,-4.4192,-4.4402,-4.4402,-4.4402,-4.4402,-4.4402,-4.443,-4.4465,-4.4402,-4.4572,-4.4868,-4.4843,-4.4957,-4.5216,-4.5297,-4.5317,-4.5418,-4.5458,-4.5438,-4.5495,-4.555,-4.5586,-4.5586,-4.5586,-4.5586,-4.5701,-4.6183,-4.7163,-4.8049,-4.899,-4.9836,-5.0394,-5.0663,-5.0683,-5.0644,-5.0585,-5.0683,-5.0683,-5.0683,-5.0702,-5.072,-5.0812,-5.0899,-5.0899,-5.0893,-5.0855,-5.0822,-5.0754,-5.0718,-5.07,-5.0606,-5.0527,-5.0508,-5.0508,-5.0445,-5.031,-5.0264,-5.0139,-5.0012,-4.9959,-4.9959,-4.9925,-4.9879,-5.0296,-5.0732,-5.1206,-5.1841,-5.3061,-5.3429,-5.3421,-5.3423,-5.3443,-5.2741,-5.1793,-5.13,-5.094,-5.0315,-4.9917,-4.9936,-4.9879,-4.9879,-4.9879,-4.9879,-4.9879,-4.9879,-4.9879,-4.9879,-4.9879,-4.9879,-4.9879,-4.9879,-4.9879,-4.9879,-4.9879,-4.9879,-4.9879,-4.9879,-4.9879,-4.9879,-4.9879,-4.9879,-4.9879,-4.9879,-4.9879,-4.9936,-5.0126,-4.9936,-4.9879,-5.0128,-5.0184,-4.9976,-5.0003,-5.0241,-5.0402,-5.0562,-4.4355,-4.443,-4.443,-4.4402,-4.443,-4.4457,-4.4565,-4.4726,-4.4546,-4.472,-4.5154,-4.4976,-4.5023,-4.5235,-4.5317,-4.5357,-4.5399,-4.5419,-4.5457,-4.5513,-4.5568,-4.5586,-4.5586,-4.5586,-4.5586,-4.5605,-4.5759,-4.6701,-4.7913,-4.8933,-4.9817,-5.0491,-5.0683,-5.0683,-5.0683,-5.0683,-5.0683,-5.0683,-5.0683,-5.0702,-5.0701,-5.0793,-5.0846,-5.088,-5.0893,-5.0906,-5.0906,-5.0858,-5.0858,-5.0858,-5.0858,-5.0841,-5.0858,-5.0839,-5.0791,-5.0644,-5.0506,-5.0313,-5.0212,-5.0163,-5.0089,-4.9986,-4.9906,-4.9982,-5.0277,-5.0789,-5.1452,-5.2371,-5.255,-5.254,-5.2561,-5.2541,-5.2028,-5.1499,-5.0997,-5.0637,-5.0088,-4.9879,-4.9879,-4.9879,-4.9879,-4.9879,-4.9879,-4.9879,-4.9879,-4.9879,-4.9879,-4.9879,-4.9879,-4.9879,-4.9879,-4.9879,-4.9879,-4.9879,-4.9879,-4.9879,-4.9879,-4.9879,-4.9879,-4.9879,-4.9879,-4.9879,-4.9879,-4.9879,-4.9879,-4.9879,-4.9879,-4.9879,-4.9879,-4.9879,-4.9879,-4.9879,-4.9936,-5.0069,-5.0239,-4.4905,-4.4887,-4.4905,-4.4905,-4.4887,-4.4887,-4.4976,-4.5023,-4.4976,-4.5023,-4.5235,-4.5173,-4.5173,-4.5297,-4.5339,-4.5361,-4.54,-4.5476,-4.5513,-4.555,-4.5586,-4.5586,-4.5586,-4.5586,-4.5586,-4.5586,-4.5759,-4.6586,-4.774,-4.8548,-4.9279,-5.0548,-5.0683,-5.0683,-5.0683,-5.0683,-5.0683,-5.0702,-5.0721,-5.0739,-5.0775,-5.0808,-5.0858,-5.0913,-5.0909,-5.089,-5.0906,-5.0906,-5.0906,-5.0906,-5.0906,-5.0906,-5.0906,-5.089,-5.0858,-5.0825,-5.0735,-5.0567,-5.0358,-5.0313,-5.0197,-5.0095,-5.0063,-5.005,-5.0028,-5.0258,-5.0846,-5.1642,-5.1717,-5.1717,-5.1726,-5.1725,-5.1204,-5.0797,-5.0599,-5.0391,-5.005,-4.9974,-4.9879,-4.9879,-4.9879,-4.9879,-4.9879,-4.9879,-4.9879,-4.9879,-4.9879,-4.9879,-4.9879,-4.9879,-4.9879,-4.9879,-4.9879,-4.9879,-4.9879,-4.9879,-4.9879,-4.9879,-4.9879,-4.9879,-4.9879,-4.9879,-4.9879,-4.9879,-4.9879,-4.9879,-4.9879,-4.9879,-4.9879,-4.9879,-4.9879,-4.9879,-4.9879,-4.9898,-5.0031,-4.5277,-4.5277,-4.5277,-4.5277,-4.5277,-4.5277,-4.5277,-4.5297,-4.5256,-4.5277,-4.5277,-4.5297,-4.5297,-4.5298,-4.5361,-4.54,-4.5419,-4.5532,-4.5586,-4.5586,-4.5586,-4.5586,-4.5586,-4.5586,-4.5586,-4.5586,-4.5586,-4.6547,-4.7605,-4.8317,-4.9048,-5.0606,-5.0683,-5.0683,-5.0683,-5.0683,-5.0683,-5.0702,-5.072,-5.0775,-5.0791,-5.0861,-5.0893,-5.0909,-5.0906,-5.0906,-5.0906,-5.0906,-5.0906,-5.0906,-5.0906,-5.0906,-5.0906,-5.089,-5.089,-5.0874,-5.0839,-5.0789,-5.0587,-5.0488,-5.0383,-5.0291,-5.0188,-5.0089,-4.9952,-4.9898,-5.005,-5.0846,-5.0873,-5.0873,-5.0892,-5.0882,-5.0589,-5.0247,-4.9993,-4.9917,-4.9879,-4.9879,-4.9879,-4.9879,-4.9879,-4.9879,-4.9879,-4.9879,-4.9879,-4.9879,-4.9879,-4.9879,-4.9879,-4.9879,-4.9879,-4.9879,-4.9879,-4.9879,-4.9879,-4.9879,-4.9879,-4.9879,-4.9879,-4.9879,-4.9879,-4.9879,-4.9879,-4.9879,-4.9879,-4.9879,-4.9879,-4.9879,-4.9879,-4.9879,-4.9879,-4.9879,-4.9879,-4.9879,-4.9879,-4.5277,-4.5277,-4.5277,-4.5277,-4.5277,-4.5277,-4.5277,-4.5277,-4.5277,-4.5277,-4.5277,-4.5277,-4.5277,-4.5317,-4.5379,-4.5419,-4.5419,-4.5476,-4.555,-4.5586,-4.5586,-4.5586,-4.5586,-4.5586,-4.5586,-4.5586,-4.5624,-4.6528,-4.7721,-4.8105,-4.9144,-5.0452,-5.0664,-5.0683,-5.0683,-5.0683,-5.0683,-5.0702,-5.074,-5.0738,-5.081,-5.0863,-5.0913,-5.0909,-5.0906,-5.0906,-5.0906,-5.0906,-5.0906,-5.0906,-5.0906,-5.0906,-5.0906,-5.0906,-5.0906,-5.0906,-5.0906,-5.0858,-5.0789,-5.0681,-5.0567,-5.0423,-5.0264,-5.0139,-5.0005,-4.9906,-4.9993,-5.0107,-5.0247,-5.0172,-5.0088,-4.9974,-5.0077,-5.002,-4.9879,-4.9879,-4.9879,-4.9879,-4.9879,-4.9879,-4.9879,-4.9879,-4.9879,-4.9879,-4.9879,-4.9879,-4.9879,-4.9879,-4.9879,-4.9879,-4.9879,-4.9879,-4.9879,-4.9879,-4.9879,-4.9879,-4.9879,-4.9879,-4.9879,-4.9879,-4.9879,-4.9879,-4.9879,-4.9879,-4.9879,-4.9879,-4.9879,-4.9879,-4.9879,-4.9879,-4.9879,-4.9879,-4.9879,-4.9879,-4.9879,-4.5277,-4.5277,-4.5277,-4.5277,-4.5277,-4.5277,-4.5277,-4.5277,-4.5277,-4.5277,-4.5277,-4.5277,-4.5277,-4.5317,-4.538,-4.54,-4.5438,-4.5513,-4.5568,-4.5586,-4.5586,-4.5586,-4.5586,-4.5586,-4.5586,-4.5586,-4.5682,-4.6471,-4.7932,-4.8086,-4.9183,-5.0164,-5.0664,-5.0683,-5.0683,-5.0683,-5.0702,-5.0702,-5.074,-5.0775,-5.081,-5.0861,-5.0909,-5.089,-5.0906,-5.0906,-5.0906,-5.0906,-5.0906,-5.0906,-5.0906,-5.0906,-5.0906,-5.0906,-5.0906,-5.0906,-5.0906,-5.0906,-5.0906,-5.0841,-5.0754,-5.0586,-5.0374,-5.0182,-5.0063,-4.9986,-4.9906,-4.9898,-4.9879,-4.9879,-4.9898,-4.9898,-4.9944,-4.9898,-4.9879,-4.9879,-4.9879,-4.9879,-4.9879,-4.9879,-4.9879,-4.9879,-4.9879,-4.9879,-4.9879,-4.9879,-4.9879,-4.9879,-4.9879,-4.9879,-4.9879,-4.9879,-4.9879,-4.9879,-4.9879,-4.9879,-4.9879,-4.9879,-4.9879,-4.9879,-4.9879,-4.9879,-4.9879,-4.9879,-4.9879,-4.9879,-4.9879,-4.9879,-4.9879,-4.9879,-4.9879,-4.9879,-4.9879,-4.9879,-4.9879,-4.5277,-4.5277,-4.5277,-4.5277,-4.5277,-4.5277,-4.5277,-4.5277,-4.5277,-4.5277,-4.5297,-4.5317,-4.5338,-4.5359,-4.54,-4.5419,-4.5457,-4.555,-4.5586,-4.5586,-4.5586,-4.5586,-4.5586,-4.5586,-4.5586,-4.5586,-4.574,-4.6471,-4.8048,-4.8086,-4.9144,-5.0183,-5.0683,-5.0683,-5.0683,-5.0683,-5.0702,-5.074,-5.0794,-5.0829,-5.0827,-5.0877,-5.089,-5.0906,-5.0906,-5.0906,-5.0906,-5.0906,-5.0906,-5.0906,-5.0906,-5.0906,-5.0906,-5.0906,-5.0906,-5.0906,-5.0906,-5.0906,-5.0906,-5.089,-5.0841,-5.0682,-5.0526,-5.0333,-5.0169,-5.0063,-5.0012,-4.9879,-4.9879,-4.9879,-4.9879,-4.9879,-4.9879,-4.9879,-4.9879,-4.9879,-4.9879,-4.9879,-4.9879,-4.9879,-4.9879,-4.9879,-4.9879,-4.9879,-4.9879,-4.9879,-4.9879,-4.9879,-4.9879,-4.9879,-4.9879,-4.9879,-4.9879,-4.9879,-4.9879,-4.9879,-4.9879,-4.9879,-4.9879,-4.9879,-4.9879,-4.9879,-4.9879,-4.9879,-4.9879,-4.9879,-4.9879,-4.9879,-4.9879,-4.9879,-4.9879,-4.9879,-4.9879,-4.9879,-4.9879,-4.5277,-4.5277,-4.5277,-4.5277,-4.5277,-4.5277,-4.5277,-4.5277,-4.5277,-4.5277,-4.5277,-4.5359,-4.5379,-4.5399,-4.5458,-4.5457,-4.5495,-4.5568,-4.5586,-4.5586,-4.5586,-4.5586,-4.5586,-4.5586,-4.5586,-4.5586,-4.574,-4.6471,-4.8105,-4.8105,-4.9106,-5.0202,-5.0683,-5.0683,-5.0702,-5.0702,-5.072,-5.0793,-5.0846,-5.0863,-5.088,-5.0913,-5.089,-5.0906,-5.0906,-5.0906,-5.0906,-5.0906,-5.0906,-5.0906,-5.0906,-5.0906,-5.0906,-5.0906,-5.0906,-5.0906,-5.0906,-5.0906,-5.0906,-5.0906,-5.0841,-5.0756,-5.0625,-5.0506,-5.0287,-5.0163,-5.0133,-4.9986,-4.9906,-4.9906,-4.9879,-4.9879,-4.9879,-4.9879,-4.9879,-4.9879,-4.9879,-4.9879,-4.9879,-4.9879,-4.9879,-4.9879,-4.9879,-4.9879,-4.9879,-4.9879,-4.9879,-4.9879,-4.9879,-4.9879,-4.9879,-4.9879,-4.9879,-4.9879,-4.9879,-4.9879,-4.9879,-4.9879,-4.9879,-4.9879,-4.9879,-4.9879,-4.9879,-4.9879,-4.9879,-4.9879,-4.9879,-4.9879,-4.9879,-4.9879,-4.9879,-4.9879,-4.9879,-4.9879,-4.9879,-4.5277,-4.5277,-4.5277,-4.5277,-4.5277,-4.5277,-4.5277,-4.5277,-4.5277,-4.5277,-4.5277,-4.5317,-4.5378,-4.5399,-4.5419,-4.5457,-4.5513,-4.5568,-4.5586,-4.5586,-4.5586,-4.5586,-4.5586,-4.5586,-4.5586,-4.5586,-4.572,-4.6471,-4.8105,-4.8105,-4.9106,-5.026,-5.0702,-5.0683,-5.0683,-5.0701,-5.072,-5.0793,-5.0863,-5.0899,-5.0899,-5.0893,-5.0906,-5.0906,-5.0906,-5.0906,-5.0906,-5.0906,-5.0906,-5.0906,-5.0906,-5.0906,-5.0906,-5.0906,-5.0906,-5.0906,-5.0906,-5.0906,-5.0906,-5.089,-5.089,-5.0825,-5.0756,-5.0644,-5.0526,-5.0287,-5.0188,-5.0108,-4.9978,-4.9952,-4.9879,-4.9879,-4.9879,-4.9879,-4.9879,-4.9879,-4.9879,-4.9879,-4.9879,-4.9879,-4.9879,-4.9879,-4.9879,-4.9879,-4.9879,-4.9879,-4.9879,-4.9879,-4.9879,-4.9879,-4.9879,-4.9879,-4.9879,-4.9879,-4.9879,-4.9879,-4.9879,-4.9879,-4.9879,-4.9879,-4.9879,-4.9879,-4.9879,-4.9879,-4.9879,-4.9879,-4.9879,-4.9879,-4.9879,-4.9879,-4.9879,-4.9879,-4.9879,-4.9879,-4.9879,-4.5277,-4.5277,-4.5277,-4.5277,-4.5277,-4.5277,-4.5277,-4.5277,-4.5277,-4.5277,-4.5298,-4.5319,-4.536,-4.54,-4.5438,-4.5495,-4.5531,-4.5568,-4.5586,-4.5586,-4.5586,-4.5586,-4.5586,-4.5586,-4.5586,-4.5586,-4.5759,-4.6451,-4.8029,-4.8105,-4.9086,-5.0279,-5.0702,-5.072,-5.072,-5.0775,-5.0773,-5.0844,-5.0877,-5.0897,-5.0913,-5.0909,-5.0906,-5.0906,-5.0906,-5.0906,-5.0906,-5.0906,-5.0906,-5.0906,-5.0906,-5.0906,-5.0906,-5.0906,-5.0906,-5.0906,-5.0906,-5.0906,-5.0906,-5.0906,-5.089,-5.089,-5.0789,-5.0736,-5.0701,-5.0506,-5.0359,-5.0253,-5.0076,-5.0016,-4.9982,-4.9982,-4.9906,-4.9906,-4.9879,-4.9879,-4.9879,-4.9879,-4.9879,-4.9879,-4.9879,-4.9879,-4.9879,-4.9879,-4.9879,-4.9879,-4.9879,-4.9879,-4.9879,-4.9879,-4.9879,-4.9879,-4.9879,-4.9879,-4.9879,-4.9879,-4.9879,-4.9879,-4.9879,-4.9879,-4.9879,-4.9879,-4.9879,-4.9879,-4.9879,-4.9879,-4.9879,-4.9879,-4.9879,-4.9879,-4.9879,-4.9879,-4.9879,-4.9879,-4.9879,-4.5277,-4.5277,-4.5277,-4.5277,-4.5277,-4.5277,-4.5277,-4.5297,-4.5297,-4.5317,-4.5317,-4.538,-4.54,-4.5419,-4.555,-4.5605,-4.5605,-4.5586,-4.5586,-4.5586,-4.5586,-4.5586,-4.5586,-4.5586,-4.5586,-4.5586,-4.5759,-4.6336,-4.7894,-4.8355,-4.9259,-5.0336,-5.0682,-5.0757,-5.0829,-5.0827,-5.0844,-5.0877,-5.089,-5.0909,-5.0909,-5.0909,-5.0906,-5.0906,-5.0906,-5.0906,-5.0906,-5.0906,-5.0906,-5.0906,-5.0906,-5.0906,-5.0906,-5.0906,-5.0906,-5.0906,-5.0906,-5.0906,-5.0906,-5.0906,-5.0906,-5.0906,-5.089,-5.0825,-5.0738,-5.0664,-5.056,-5.0417,-5.0259,-5.0234,-5.0168,-5.0028,-4.9933,-4.9906,-4.9906,-4.9879,-4.9879,-4.9879,-4.9879,-4.9879,-4.9879,-4.9879,-4.9879,-4.9879,-4.9879,-4.9879,-4.9879,-4.9879,-4.9879,-4.9879,-4.9879,-4.9879,-4.9879,-4.9879,-4.9879,-4.9879,-4.9879,-4.9879,-4.9879,-4.9879,-4.9879,-4.9879,-4.9879,-4.9879,-4.9879,-4.9879,-4.9879,-4.9879,-4.9879,-4.9879,-4.9879,-4.9879,-4.9879,-4.9879,-4.9879,-4.5277,-4.5277,-4.5277,-4.5277,-4.5277,-4.5277,-4.5317,-4.5378,-4.5378,-4.536,-4.538,-4.5419,-4.5419,-4.5457,-4.5513,-4.5568,-4.5586,-4.5586,-4.5586,-4.5586,-4.5586,-4.5586,-4.5586,-4.5586,-4.5586,-4.5586,-4.5759,-4.6182,-4.7355,-4.8182,-4.9432,-5.0509,-5.0682,-5.0812,-5.0846,-5.0863,-5.0897,-5.0909,-5.0906,-5.0906,-5.0906,-5.0906,-5.0906,-5.0906,-5.0906,-5.0906,-5.0906,-5.0906,-5.0906,-5.0906,-5.0906,-5.0906,-5.0906,-5.0906,-5.0906,-5.0906,-5.0906,-5.0906,-5.0906,-5.0906,-5.0906,-5.0906,-5.0906,-5.089,-5.0825,-5.0775,-5.0683,-5.0581,-5.0405,-5.0307,-5.0215,-5.0107,-4.9978,-4.9906,-4.9925,-4.9879,-4.9879,-4.9879,-4.9879,-4.9879,-4.9879,-4.9879,-4.9879,-4.9879,-4.9879,-4.9879,-4.9879,-4.9879,-4.9879,-4.9879,-4.9879,-4.9879,-4.9879,-4.9879,-4.9879,-4.9879,-4.9879,-4.9879,-4.9879,-4.9879,-4.9879,-4.9879,-4.9879,-4.9879,-4.9879,-4.9879,-4.9879,-4.9879,-4.9879,-4.9879,-4.9879,-4.9879,-4.9879,-4.9879,-4.9879,-4.5277,-4.5277,-4.5277,-4.5277,-4.5277,-4.5277,-4.5319,-4.5399,-4.5418,-4.5419,-4.54,-4.5438,-4.5457,-4.5495,-4.555,-4.5568,-4.5586,-4.5586,-4.5586,-4.5586,-4.5586,-4.5586,-4.5586,-4.5586,-4.5586,-4.5586,-4.572,-4.6086,-4.7144,-4.8509,-4.9836,-5.068,-5.0738,-5.0791,-5.0861,-5.0913,-5.0893,-5.0909,-5.0906,-5.0906,-5.0906,-5.0906,-5.0906,-5.0906,-5.0906,-5.0906,-5.0906,-5.0906,-5.0906,-5.0906,-5.0906,-5.0906,-5.0906,-5.0906,-5.0906,-5.0906,-5.0906,-5.0906,-5.0906,-5.0906,-5.0906,-5.0906,-5.0906,-5.089,-5.0874,-5.0844,-5.0793,-5.0739,-5.0526,-5.0355,-5.025,-5.0158,-5.0043,-4.9925,-4.9925,-4.9879,-4.9879,-4.9879,-4.9879,-4.9879,-4.9879,-4.9879,-4.9879,-4.9879,-4.9879,-4.9879,-4.9879,-4.9879,-4.9879,-4.9879,-4.9879,-4.9879,-4.9879,-4.9879,-4.9936,-5.005,-5.0107,-5.0069,-4.9879,-4.9879,-4.9898,-4.9917,-4.9936,-4.9917,-4.9879,-4.9879,-4.9879,-4.9879,-4.9879,-4.9879,-4.9879,-4.9879,-4.9879,-4.9879,-4.9879,-4.522,-4.5277,-4.5277,-4.5297,-4.5317,-4.5317,-4.536,-4.5419,-4.5419,-4.5419,-4.5419,-4.5476,-4.5513,-4.5531,-4.5568,-4.5586,-4.5586,-4.5586,-4.5586,-4.5586,-4.5586,-4.5586,-4.5586,-4.5586,-4.5586,-4.5586,-4.5759,-4.6163,-4.7221,-4.8413,-4.9585,-5.0715,-5.0793,-5.0827,-5.0893,-5.0909,-5.0909,-5.089,-5.0906,-5.0906,-5.0906,-5.0906,-5.0906,-5.0906,-5.0906,-5.0906,-5.0906,-5.0906,-5.0906,-5.0906,-5.0906,-5.0906,-5.0906,-5.0906,-5.0906,-5.0906,-5.0906,-5.0906,-5.0906,-5.0906,-5.0906,-5.0906,-5.0906,-5.0906,-5.089,-5.0874,-5.0858,-5.0825,-5.0644,-5.0526,-5.0435,-5.0325,-5.0212,-5.0089,-5.0012,-4.9959,-4.9906,-4.9906,-4.9879,-4.9879,-4.9879,-4.9879,-4.9879,-4.9879,-4.9879,-4.9879,-4.9879,-4.9879,-4.9879,-4.9879,-4.9936,-4.9955,-5.022,-5.0315,-5.0391,-5.0486,-5.0448,-5.0334,-5.0277,-5.041,-5.0789,-5.0486,-5.0012,-4.9955,-4.9879,-4.9879,-4.9879,-4.9879,-4.9879,-4.9879,-4.9879,-4.9879,-4.9879,-4.9879,-4.9879,-4.4704,-4.5277,-4.5277,-4.5317,-4.5378,-4.5359,-4.54,-4.5476,-4.5476,-4.5495,-4.5531,-4.5549,-4.5568,-4.5568,-4.5586,-4.5586,-4.5586,-4.5586,-4.5586,-4.5586,-4.5586,-4.5586,-4.5586,-4.5586,-4.5586,-4.5586,-4.5797,-4.6297,-4.7451,-4.8335,-4.9238,-5.06,-5.0791,-5.0844,-5.0909,-5.0906,-5.0906,-5.0906,-5.0906,-5.0906,-5.0906,-5.0906,-5.0906,-5.0906,-5.0906,-5.0906,-5.0906,-5.0906,-5.0906,-5.0906,-5.0906,-5.0906,-5.0906,-5.0906,-5.0906,-5.0906,-5.0906,-5.0906,-5.0906,-5.0906,-5.0906,-5.0906,-5.0906,-5.0906,-5.0906,-5.0906,-5.089,-5.0855,-5.0789,-5.0682,-5.0586,-5.0485,-5.0358,-5.0217,-5.0089,-4.9986,-4.9906,-4.9906,-4.9879,-4.9879,-4.9879,-4.9879,-4.9879,-4.9879,-4.9879,-4.9879,-4.9879,-4.9879,-4.9879,-4.9898,-5.005,-5.0182,-5.0714,-5.0885,-5.095,-5.1092,-5.1149,-5.1376,-5.1471,-5.1604,-5.1679,-5.1263,-5.077,-5.0144,-4.9879,-5.005,-5.0088,-4.9879,-4.9879,-4.9879,-4.9906,-4.9906,-4.9906,-4.9906,-4.9906,-4.4303,-4.4743,-4.5144,-4.5338,-4.5398,-4.5418,-4.5438,-4.5495,-4.5495,-4.5531,-4.5586,-4.5586,-4.5586,-4.5586,-4.5586,-4.5586,-4.5586,-4.5586,-4.5586,-4.5586,-4.5586,-4.5586,-4.5586,-4.5586,-4.5586,-4.5586,-4.5682,-4.6278,-4.7471,-4.8105,-4.893,-5.0138,-5.0501,-5.0844,-5.089,-5.0906,-5.0906,-5.0906,-5.0906,-5.0906,-5.0906,-5.0906,-5.0906,-5.0906,-5.0906,-5.0906,-5.0906,-5.0906,-5.0906,-5.0906,-5.0906,-5.0906,-5.0906,-5.0906,-5.0906,-5.0906,-5.0906,-5.0906,-5.0906,-5.0906,-5.0906,-5.0906,-5.0906,-5.0906,-5.0906,-5.0906,-5.0906,-5.0874,-5.0791,-5.0683,-5.0587,-5.049,-5.0336,-5.0188,-5.0063,-4.9952,-4.9906,-4.9879,-4.9879,-4.9879,-4.9879,-4.9879,-4.9879,-4.9879,-4.9879,-4.9879,-4.9879,-4.9879,-4.9879,-5.0134,-5.0201,-5.0542,-5.1168,-5.1585,-5.1727,-5.1907,-5.204,-5.2305,-5.2608,-5.2305,-5.2115,-5.1907,-5.1547,-5.1035,-5.0656,-5.0561,-5.0505,-5.0239,-4.9936,-4.9879,-4.9906,-4.9906,-4.9906,-4.9933,-4.9959,-4.3787,-4.4112,-4.4953,-4.5338,-4.5399,-4.5418,-4.5438,-4.5495,-4.5513,-4.555,-4.5586,-4.5586,-4.5586,-4.5586,-4.5586,-4.5586,-4.5586,-4.5586,-4.5586,-4.5586,-4.5586,-4.5586,-4.5586,-4.5586,-4.5586,-4.5586,-4.5624,-4.6182,-4.7028,-4.7758,-4.8621,-4.9502,-5.0229,-5.0844,-5.0874,-5.0906,-5.0906,-5.0906,-5.0906,-5.0906,-5.0906,-5.0906,-5.0906,-5.0906,-5.0906,-5.0906,-5.0906,-5.0906,-5.0906,-5.0906,-5.0906,-5.0906,-5.0906,-5.0906,-5.0906,-5.0906,-5.0906,-5.0906,-5.0906,-5.0906,-5.0906,-5.0906,-5.0906,-5.0906,-5.0906,-5.0906,-5.0906,-5.0858,-5.0773,-5.0718,-5.0642,-5.0567,-5.0404,-5.0236,-5.0114,-4.9952,-4.9925,-4.9906,-4.9906,-4.9906,-4.9906,-4.9906,-4.9906,-4.9906,-4.9906,-4.9906,-4.9879,-4.9879,-5.002,-5.0437,-5.0721,-5.1225,-5.1869,-5.2238,-5.2532,-5.2854,-5.3092,-5.3215,-5.3404,-5.2949,-5.2608,-5.2589,-5.2456,-5.2115,-5.1793,-5.1395,-5.0959,-5.0637,-5.0334,-5.0039,-4.9906,-4.9906,-5.0044,-5.0044,-5.0044,-4.2794,-4.4074,-4.4934,-4.532,-4.54,-4.54,-4.5476,-4.5568,-4.5568,-4.5586,-4.5586,-4.5586,-4.5586,-4.5586,-4.5586,-4.5586,-4.5586,-4.5586,-4.5586,-4.5586,-4.5586,-4.5586,-4.5586,-4.5586,-4.5586,-4.5603,-4.5699,-4.6124,-4.6777,-4.7679,-4.86,-4.9404,-5.0419,-5.0858,-5.089,-5.0906,-5.0906,-5.0906,-5.0906,-5.0906,-5.0906,-5.0906,-5.0906,-5.0906,-5.0906,-5.0906,-5.0906,-5.0906,-5.0906,-5.0906,-5.0906,-5.0906,-5.0906,-5.0906,-5.0906,-5.0906,-5.0906,-5.0906,-5.0906,-5.0906,-5.0906,-5.0906,-5.0906,-5.0906,-5.0906,-5.0906,-5.0906,-5.0906,-5.0841,-5.0841,-5.0786,-5.0769,-5.0663,-5.0464,-5.0329,-5.0114,-5.0005,-4.9959,-4.9933,-4.9933,-4.9933,-4.9933,-4.9933,-4.9933,-4.9906,-4.9906,-4.9879,-4.9925,-5.0009,-5.0559,-5.1193,-5.1868,-5.2542,-5.3072,-5.348,-5.3993,-5.4258,-5.4324,-5.4248,-5.3889,-5.3623,-5.3461,-5.3271,-5.3063,-5.2542,-5.204,-5.1604,-5.1383,-5.0711,-5.0415,-5.0039,-4.9933,-5.0095,-5.0174,-5.0174]}]]